     2.10           OBSERVATION DATA    G (GPS)             RINEX VERSION / TYPE
teqc 2002Mar18 WCDA Data collecting20030805 00:06:42UTC     PGM / RUN BY / DATE
Solaris 2.7|Ultra 2|cc SC5.0|=+-|*Sparc                     COMMENT
teqc 2002Mar18 WCDA Data collecting20030805 00:06:36UTC     COMMENT
teqc 2002Mar18 WCDA Data collecting20030805 00:06:28UTC     COMMENT
teqc 2002Mar18 WCDA Data collecting20030804 01:05:12UTC     COMMENT
BIT 2 OF LLI FLAGS DATA COLLECTED UNDER A/S CONDITION       COMMENT
holb WCDA-ACP 927005 Holberg BC Canada                      MARKER NAME
40130M001                                                   MARKER NUMBER
PGC-WCDA GEOL. SURV. CANADA                                 OBSERVER / AGENCY
30199 LEICA CRS1000 9.00 4.42 1.26 1.20                     REC # / TYPE / VERS
00724 00023LEIAT504 SCIS                                    ANT # / TYPE
 -2503040.4240 -3188233.3250  4908701.5430                  APPROX POSITION XYZ
        0.1000        0.0000        0.0000                  ANTENNA: DELTA H/E/N
     1     1                                                WAVELENGTH FACT L1/2
     7    C1    P1    P2    L1    L2    S1    S2            # / TYPES OF OBSERV
    30.0000                                                 INTERVAL
STATION INFORMATION EFFECTIVE FROM: 2002/05/15 15:27:00     COMMENT
TO: CURRENT DATE (above)                                    COMMENT
BIT 2 OF LLI FLAGS (+4) DATA COLLECTED UNDER 'AS' CONDITION COMMENT
L1 PHASE CENTRE 0.110m ABOVE ARP                            COMMENT
L2 PHASE CENTRE 0.128m ABOVE ARP                            COMMENT
where ARP is the Antenna Reference Point for HI measurement COMMENT
SCIGN dome installed on antenna                             COMMENT
No RF skirt used;                                           COMMENT
CONTACT gps@pgc.nrcan.gc.ca FOR ADDITIONAL INFORMATION      COMMENT
SNR is mapped to RINEX snr flag value [2-9]                 COMMENT
L1 & L2: 25-27 dBHz = 2, ..., 49-55 dBHz = 9                COMMENT
  2003     8     4     0     0    0.0000000     GPS         TIME OF FIRST OBS
                                                            END OF HEADER
 03  8  4  0  0  0.0000000  0 10G24G16G 4G13G27G 8G 3G 1G20G 2
  24297575.6164                   24297569.6214  127684620.03645  99494467.08944
        37.0004         34.0004
  22766310.0484                   22766301.5504  119637782.85447  93224220.50446
        43.0004         39.0004
  25027005.1114                                  131517793.84144
        35.0004
  20186588.8854                   20186579.2844  106081278.51648  82660714.19248
        48.0004         47.0004
  21792678.3374                   21792670.3354  114521347.17748  89237417.87447
        47.0004         44.0004
  23890717.3924                   23890711.2084  125546586.51346  97828478.40044
        39.0004         35.0004
  24576560.3494                                  129150702.64344
        33.0004
  20963720.8224                   20963712.6814  110165140.47448  85842957.22948
        48.0004         46.0004
  24632617.0384                                  129445258.09144
        35.0004
  22138846.1914                   22138838.3114  116340459.08948  90654891.74248
        48.0004         45.0004
 03  8  4  0  0 30.0000000  0 10G24G16G 4G13G27G 8G 3G 1G20G 2
  24305054.8134                   24305048.7734  127723923.23245  99525092.90344
        37.0004         33.0004
  22779442.3834                   22779433.8614  119706793.55047  93277995.05746
        43.0004         39.0004
  25043461.1384                                  131604268.90945
        36.0004
  20186199.5654                   20186189.9644  106079232.62549  82659119.99248
        49.0004         47.0004
  21780555.3874                   21780547.3874  114457640.77248  89187776.55247
        47.0004         44.0004
  23871213.7724                   23871207.6054  125444094.73845  97748614.78044
        38.0004         35.0004
  24561091.0694                                  129069409.83945
        37.0004
  20973605.4844                   20973597.3584  110217084.66149  85883433.20448
        49.0004         46.0004
  24655148.0594                                  129563659.97244
        35.0004
  22145142.9864                   22145135.1064  116373548.97548  90680676.06547
        48.0004         44.0004
 03  8  4  0  1  0.0000000  0 10G24G16G 4G13G27G 8G 3G 1G20G 2
  24312622.1954                   24312616.1844  127763690.09245  99556080.06244
        37.0004         35.0004
  22792659.2434                   22792650.7504  119776248.49447  93332115.76146
        42.0004         39.0004
  25059944.8914                                  131690891.68145
        36.0004
  20185893.8434                   20185884.2434  106077626.04648  82657868.11748
        48.0004         47.0004
  21768480.0534                   21768472.0534  114394184.52848  89138330.14047
        47.0004         44.0004
  23851734.4054                   23851728.2254  125341730.22545  97668850.29145
        38.0004         36.0004
  24545663.2354                                  128988337.08544
        34.0004
  20983558.0564                   20983549.9294  110269385.77948  85924187.31948
        48.0004         46.0004
  24677687.6914                                  129682107.65944
        34.0004
  22151524.2054                   22151516.3524  116407082.56848  90706806.13847
        48.0004         44.0004
 03  8  4  0  1 30.0000000  0 10G24G16G 4G13G27G 8G 3G 1G20G 2
  24320278.0424                   24320272.0774  127803921.46645  99587429.10144
        37.0004         35.0004
  22805960.5854                   22805952.0804  119846147.45447  93386582.48046
        42.0004         39.0004
  25076456.4504                                  131777661.38545
        36.0004
  20185672.2044                   20185662.6054  106076461.32648  82656960.54848
        48.0004         47.0004
  21756452.8284                   21756444.8154  114330981.03348  89089080.67647
        47.0004         44.0004
  23832279.8314                   23832273.6254  125239496.06046  97589187.39344
        39.0004         35.0004
  24530278.5664                                  128907489.48245
        37.0004
  20993578.8924                   20993570.7514  110322045.56248  85965220.91148
        48.0004         46.0004
  24700236.3284                                  129800600.60944
        34.0004
  22157990.0314                   22157982.1764  116441060.71248  90733282.60747
        48.0004         44.0004
 03  8  4  0  2  0.0000000  0  9G24G16G13G27G 8G 3G 1G20G 2
  24328021.0394                   24328015.0884  127844611.31745  99619135.49944
        37.0004         34.0004
  22819345.3364                   22819336.8574  119916484.60847  93441390.59446
        42.0004         39.0004
  20185534.0234                   20185524.4244  106075735.24549  82656394.78248
        49.0004         47.0004
  21744473.0334                   21744464.9924  114268026.97248  89040025.61547
        48.0004         44.0004
  23812849.5264                   23812843.3084  125137389.61446  97509624.05544
        39.0004         35.0004
  24514936.4384                                  128826866.55345
        36.0004
  21003667.1874                   21003659.0594  110375059.84849  86006530.72148
        49.0004         46.0004
  24722792.3284                                  129919132.81644
        34.0004
  22164539.5174                   22164531.6874  116475478.55848  90760101.69747
        47.0004         44.0004
 03  8  4  0  2 30.0000000  0 10G24G16G 4G13G27G 8G 3G 1G20G 2
  24335851.3314                   24335845.3664  127885759.71345  99651199.17644
        38.0004         34.0004
  22832813.3854                   22832804.9204  119987259.74947  93496540.06146
        42.0004         39.0004
  25109560.1174                                  131951627.20354
        35.0004
  20185479.8624                   20185470.2514  106075450.56549  82656172.94948
        49.0004         47.0004
  21732541.2244                   21732533.1834  114205324.95348  88991166.91447
        47.0004         44.0004
  23793444.1104                   23793437.8504  125035414.15545  97430162.82344
        38.0004         35.0004
  24499638.3574                                  128746473.59545
        37.0004
  21013823.2274                   21013815.1124  110428430.20048  86048117.99748
        48.0004         46.0004
  24745355.8514                                  130037703.80744
        34.0004
  22171172.8534                   22171165.0374  116510336.91248  90787264.03047
        48.0004         44.0004
 03  8  4  0  3  0.0000000  0 10G24G16G 4G13G27G 8G 3G 1G20G 2
  24343768.7584                   24343762.7904  127927366.01345  99683619.64344
        37.0004         34.0004
  22846364.5094                   22846356.0704  120058471.25947  93552029.50446
        42.0004         39.0004
  25126150.9554                                  132038813.58344
        35.0004
  20185510.0484                   20185500.4514  106075609.25249  82656296.61448
        49.0004         47.0004
  21720657.6654                   21720649.6244  114142876.49148  88942505.79047
        47.0004         44.0004
  23774064.1174                   23774057.8574  124933571.78945  97350805.17845
        38.0004         36.0004
  24484384.4024                                  128666307.64555
        36.0004
  21024047.1364                   21024039.0204  110482157.20749  86089983.19048
        49.0004         46.0004
  24767926.5134                                  130156312.18444
        35.0004
  22177890.0034                   22177882.1884  116545635.77448  90814769.64347
        48.0004         44.0004
 03  8  4  0  3 30.0000000  0 10G24G16G 4G13G27G 8G 3G 1G20G 2
  24351772.4094                   24351766.4544  127969425.10645  99716392.87244
        37.0004         34.0004
  22859997.6864                   22859989.2624  120130113.83747  93607854.83446
        42.0004         39.0004
  25142767.1084                                  132126131.05744
        35.0004
  20185624.0854                   20185614.4754  106076208.45748  82656763.52548
        48.0004         47.0004
  21708821.8544                   21708813.7994  114080679.01248  88894040.25147
        47.0004         44.0004
  23754709.0504                   23754702.7934  124831860.54246  97271549.73944
        39.0004         35.0004
  24469175.0994                                  128586382.27945
        36.0004
  21034338.2604                   21034330.1584  110536237.42749  86132123.61948
        49.0004         45.0004
  24790503.0064                                  130274952.32944
        34.0004
  22184690.0894                   22184682.2844  116581370.52548  90842614.89847
        48.0004         44.0004
 03  8  4  0  4  0.0000000  0 10G24G16G 4G13G27G 8G 3G 1G20G 2
  24359834.0424                   24359828.0744  128011789.21245  99749403.85944
        37.0004         34.0004
  22873684.7194                   22873676.2934  120202039.61947  93663900.87746
        42.0004         39.0004
  25159379.8794                                  132213431.07045
        36.0004
  20185794.3604                   20185784.7524  106077103.19848  82657460.71948
        48.0004         47.0004
  21697006.2164                   21696998.1484  114018587.47648  88845657.26248
        48.0004         45.0004
  23735351.4324                   23735345.1184  124730136.01145  97192283.98544
        38.0004         35.0004
  24453983.4164                                  128506548.26445
        36.0004
  21044668.7934                   21044660.6894  110590524.68048  86174425.35548
        48.0004         46.0004
  24813057.3544                                  130393476.41844
        34.0004
  22191545.2054                   22191537.4024  116617394.28248  90870685.33747
        48.0004         44.0004
 03  8  4  0  4 30.0000000  0 10G24G16G 4G13G27G 8G 3G 1G20G 2
  24368009.8684                   24368003.9054  128054753.90645  99782882.95544
        37.0004         33.0004
  22887481.7974                   22887473.3604  120274543.50347  93720397.37046
        42.0004         39.0004
  25176045.2544                                  132301008.08045
        36.0004
  20186077.5614                   20186067.9524  106078591.42748  82658620.37548
        47.0004         47.0004
  21685267.4194                   21685259.3504  113956899.74448  88797588.90847
        48.0004         44.0004
  23716048.0654                   23716041.7524  124628696.63045  97113240.42545
        38.0004         36.0004
  24438865.8224                                  128427105.95545
        36.0004
  21055095.2374                   21055087.1484  110645315.95248  86217119.83648
        48.0004         46.0004
  24835646.0764                                  130512179.32544
        34.0004
  22198511.6834                   22198503.8934  116654003.36848  90899211.89047
        48.0004         44.0004
 03  8  4  0  5  0.0000000  0 11G24G16G 4G13G27G 8G 3G 1G20G 2G10
  24376241.9974                   24376236.0754  128098013.60045  99816591.69144
        37.0004         34.0004
  22901330.6814                   22901322.2494  120347319.57047  93777105.94446
        42.0004         39.0004
  25192704.7784                                  132388555.28544
        35.0004
  20186415.9764                   20186406.3684  106080369.87448  82660006.19248
        48.0004         47.0004
  21673547.7534                   21673539.6864  113895312.54948  88749598.90448
        47.0004         45.0004
  23696741.3984                   23696735.0874  124527239.78845  97034183.23545
        38.0004         36.0004
  24423765.8754                                  128347754.57345
        36.0004
  21065559.6684                   21065551.5794  110700306.84448  86259969.86948
        48.0004         45.0004
  24858210.4454                                  130630754.76244
        35.0004
  22205531.4454                   22205523.6444  116690892.40648  90927956.59647
        48.0004         44.0004
  24966982.4434                                  131202382.59554
        34.0004
 03  8  4  0  5 30.0000000  0 10G24G16G 4G13G27G 8G 1G20G 2G10
  24384588.0444                   24384582.0804  128141872.18445  99850767.18644
        38.0004         35.0004
  22915289.1254                   22915280.6504  120420671.62447  93834263.38845
        43.0004         38.0004
  25209416.5604                                  132476375.85244
        35.0004
  20186868.0054                   20186858.4114  106082745.36748  82661857.23448
        48.0004         47.0004
  21661905.5884                   21661897.5074  113834132.61748  88701926.25447
        48.0004         44.0004
  23677489.9464                   23677483.5634  124426072.84546  96955351.89945
        39.0004         36.0004
  21076120.2894                   21076112.1984  110755803.34848  86303213.90148
        48.0004         45.0004
  24880808.1654                                  130749506.64544
        34.0004
  22212662.5154                   22212654.7114  116728366.42948  90957157.12447
        48.0004         44.0004
  24947612.2694                                  131100592.83144
        34.0004
 03  8  4  0  6  0.0000000  0 11G24G16G 4G13G27G 8G 3G 1G20G 2G10
  24393047.5804                   24393041.6474  128186327.34445  99885407.57344
        37.0004         34.0004
  22929356.6684                   22929348.1964  120494596.81347  93891867.38746
        42.0004         39.0004
  25226179.9074                                  132564466.64944
        35.0004
  20187433.6914                   20187424.0974  106085718.06548  82664173.62548
        48.0004         47.0004
  21650340.9324                   21650332.8234  113773360.06548  88654571.05848
        48.0004         45.0004
  23658293.7654                   23658287.3674  124325196.48545  96876747.00145
        38.0004         36.0004
  24393794.8254                                  128190256.14655
        36.0004
  21086776.9704                   21086768.8914  110811804.51848  86346851.15448
        48.0004         45.0004
  24903439.1584                                  130868431.93944
        34.0004
  22219904.5914                   22219896.7884  116766423.73748  90986812.15747
        48.0004         44.0004
  24928314.5194                                  130999182.78144
        34.0004
 03  8  4  0  6 30.0000000  0 11G24G16G 4G13G27G 8G 3G 1G20G 2G10
  24401561.5134                   24401555.6394  128231067.99045  99920270.32544
        37.0004         33.0004
  22943474.0064                   22943465.5604  120568783.73547  93949675.32146
        42.0004         39.0004
  25242935.2494                                  132652515.50445
        36.0004
  20188054.3204                   20188044.7264  106088979.49448  82666714.99848
        48.0004         47.0004
  21638795.1114                   21638787.0154  113712686.49148  88607292.96548
        47.0004         45.0004
  23639094.2694                   23639087.8304  124224302.82946  96798128.66645
        39.0004         37.0004
  24378865.4394                                  128111804.87545
        36.0004
  21097470.7964                   21097462.7184  110868000.89548  86390640.52448
        48.0004         45.0004
  24926043.5624                                  130987219.44744
        34.0004
  22227198.6064                   22227190.8044  116804753.98048  91016679.86747
        47.0004         44.0004
  24909030.5704                                  130897846.13544
        33.0004
 03  8  4  0  7  0.0000000  0 11G24G16G 4G13G27G 8G 3G 1G20G 2G10
  24410159.4684                   24410153.6234  128276250.48545  99955477.44344
        38.0004         34.0004
  22957670.8324                   22957662.4114  120643388.56047  94007808.92645
        42.0004         38.0004
  25259711.9034                                  132740677.97644
        35.0004
  20188760.1484                   20188750.5534  106092688.64348  82669605.24248
        48.0004         47.0004
  21627298.3554                   21627290.2454  113652270.69448  88560215.74148
        47.0004         45.0004
  23619921.8884                   23619915.4204  124123551.53946  96719621.23045
        39.0004         36.0004
  24363986.1844                                  128033612.17845
        36.0004
  21108231.8074                   21108223.7294  110924550.44948  86434705.12648
        48.0004         46.0004
  24948651.9184                                  131106025.09744
        35.0004
  22234574.4444                   22234566.6414  116843514.26848  91046882.68747
        47.0004         44.0004
  24889791.4834                                  130796744.29944
        34.0004
 03  8  4  0  7 30.0000000  0 11G24G16G 4G13G27G 8G 3G 1G20G 2G10
  24418840.8654                   24418835.0364  128321871.78645  99991026.56544
        36.0004         35.0004
  22971946.4804                   22971938.0734  120718407.47547  94066265.18845
        42.0004         38.0004
  25276509.6894                                  132828950.12444
        35.0004
  20189551.0124                   20189541.4194  106096844.72748  82672843.76748
        48.0004         47.0004
  21615850.5204                   21615842.3964  113592111.97648  88513338.83548
        47.0004         45.0004
  23600776.5474                   23600770.0514  124022942.33846  96641224.51845
        39.0004         36.0004
  24349155.1284                                  127955679.38945
        36.0004
  21119059.6964                   21119051.6314  110981451.32648  86479043.45348
        48.0004         45.0004
  24971262.6884                                  131224845.18344
        35.0004
  22242031.6054                   22242023.8014  116882701.91748  91077418.51247
        47.0004         44.0004
  24870597.4634                                  130695878.47844
        34.0004
 03  8  4  0  8  0.0000000  0 11G24G16G 4G13G27G 8G 3G 1G20G 2G10
  24427605.7224                   24427599.9064  128367930.92045 100026916.67944
        38.0004         34.0004
  22986300.7554                   22986292.3604  120793839.56947  94125043.40845
        42.0004         38.0004
  25293327.8654                                  132917329.98744
        35.0004
  20190427.3284                   20190417.7204  106101449.73248  82676432.07348
        48.0004         47.0004
  21604451.9454                   21604443.8344  113532212.19048  88466663.69548
        48.0004         45.0004
  23581658.6934                   23581652.1574  123922477.71345  96562940.50045
        38.0004         37.0004
  24334375.8684                                  127878011.16645
        38.0004
  21129954.6344                   21129946.5704  111038704.55048  86523656.34048
        48.0004         45.0004
  24993876.1724                                  131343678.90344
        35.0004
  22249570.1184                   22249562.3394  116922317.00748  91108287.38047
        47.0004         44.0004
  24851448.9734                                  130595252.67144
        34.0004
 03  8  4  0  8 30.0000000  0 11G24G16G 4G13G27G 8G 3G 1G20G 2G10
  24436453.0114                   24436447.1964  128414423.67645 100063144.79244
        38.0004         35.0004
  23000732.7814                   23000724.3724  120869680.25446  94184140.02245
        41.0004         38.0004
  25310165.4684                                  133005812.37444
        34.0004
  20191388.6914                   20191379.0984  106106501.73048  82680368.69348
        48.0004         47.0004
  21593102.3274                   21593094.2034  113472569.66648  88420189.04048
        47.0004         45.0004
  23562568.2144                   23562561.6484  123822156.69445  96484768.30645
        38.0004         36.0004
  24319646.5894                                  127800608.34744
        35.0004
  21140916.0874                   21140908.0354  111096307.37448  86568541.64848
        48.0004         45.0004
  25016491.0294                                  131462521.46744
        35.0004
  22257189.2944                   22257181.5144  116962356.04548  91139486.62547
        48.0004         44.0004
  24832346.2354                                  130494867.61044
        35.0004
 03  8  4  0  9  0.0000000  0 11G24G16G 4G13G27G 8G 3G 1G20G 2G10
  24445381.9964                   24445376.2514  128461345.68045 100099707.34244
        37.0004         35.0004
  23015241.6924                   23015233.2814  120945924.84547  94243551.32945
        42.0004         38.0004
  25327021.6714                                  133094392.25944
        34.0004
  20192434.8084                   20192425.2024  106111999.11148  82684652.37448
        48.0004         47.0004
  21581801.3144                   21581793.2034  113413182.50348  88373913.33348
        48.0004         45.0004
  23543504.7074                   23543498.1104  123721978.04046  96406707.18045
        39.0004         37.0004
  24304968.9804                                  127723472.61255
        38.0004
  21151943.5424                   21151935.4914  111154257.04148  86613697.23348
        48.0004         45.0004
  25039106.8294                                  131581368.36244
        33.0004
  22264888.4364                   22264880.6424  117002815.24748  91171013.26947
        47.0004         44.0004
  24813289.5024                                  130394723.92744
        35.0004
 03  8  4  0  9 30.0000000  0 11G24G16G 4G13G27G 8G 3G 1G20G 2G10
  24454392.4084                   24454386.7104  128508695.34345 100136603.10244
        38.0004         34.0004
  23029827.0634                   23029818.6794  121022571.36447  94303275.84645
        42.0004         38.0004
  25343896.1034                                  133183067.18144
        34.0004
  20193565.8534                   20193556.2334  106117942.79549  82689283.82248
        49.0004         47.0004
  21570549.0864                   21570540.9614  113354051.77448  88327837.46948
        47.0004         45.0004
  23524468.7514                   23524462.1394  123621943.35346  96328758.06145
        39.0004         37.0004
  24290341.4334                                  127646605.70944
        35.0004
  21163037.0124                   21163028.9624  111212553.55648  86659123.08248
        48.0004         45.0004
  25061723.3934                                  131700217.58644
        35.0004
  22272667.3474                   22272659.5564  117043693.63848  91202866.55747
        48.0004         44.0004
  24794279.1164                                  130294824.61144
        35.0004
 03  8  4  0 10  0.0000000  0 11G24G16G 4G13G27G 8G 3G 1G20G 2G10
  24463455.1044                   24463449.3934  128556320.13145 100173713.33844
        37.0004         34.0004
  23044459.8884                   23044451.5064  121099467.19047  94363194.63745
        42.0004         38.0004
  25360759.4414                                  133271683.74744
        34.0004
  20194753.2824                   20194743.6734  106124182.83748  82694146.19148
        48.0004         47.0004
  21559317.1564                   21559309.0204  113295027.64748  88281844.67647
        48.0004         44.0004
  23505431.6844                   23505425.0424  123521903.45346  96250805.02145
        40.0004         36.0004
  24275737.1004                                  127569861.35945
        37.0004
  21174167.7614                   21174159.7274  111271045.97949  86704701.57748
        49.0004         45.0004
  25084311.2114                                  131818916.30544
        35.0004
  22280497.1954                   22280489.3944  117084839.64448  91234928.37147
        48.0004         44.0004
  24775287.4474                                  130195021.96544
        35.0004
 03  8  4  0 10 30.0000000  0 11G24G16G 4G13G27G 8G 3G 1G20G 2G10
  24472627.6544                   24472621.9704  128604522.08045 100211273.25844
        38.0004         35.0004
  23059197.5824                   23059189.1844  121176914.10547  94423542.84245
        42.0004         38.0004
  25377668.9814                                  133360543.54444
        34.0004
  20196055.1364                   20196045.5154  106131024.13048  82699477.07748
        48.0004         47.0004
  21548163.5114                   21548155.3614  113236414.96948  88236172.49448
        47.0004         45.0004
  23486451.8004                   23486445.1324  123422163.73946  96173085.83745
        39.0004         37.0004
  24261214.7444                                  127493546.61344
        35.0004
  21185393.5914                   21185385.5694  111330038.11248  86750669.46248
        48.0004         45.0004
  25106928.0784                                  131937766.62145
        36.0004
  22288435.5864                   22288427.7834  117126556.16648  91267434.75047
        47.0004         44.0004
  24756372.3394                                  130095623.27745
        36.0004
 03  8  4  0 11  0.0000000  0 11G24G16G 4G13G27G 8G 3G 1G20G 2G10
  24481851.1164                   24481845.4484  128652991.63845 100249041.73044
        37.0004         34.0004
  23073981.1534                   23073972.7714  121254601.98446  94484078.78145
        41.0004         38.0004
  25394565.5874                                  133449335.86844
        33.0004
  20197412.9434                   20197403.3364  106138159.38748  82705037.00048
        48.0004         47.0004
  21537029.7024                   21537021.5524  113177906.47348  88190581.46848
        47.0004         45.0004
  23467470.6604                   23467463.9664  123322417.67646  96095361.76045
        40.0004         37.0004
  24246715.6454                                  127417356.77545
        37.0004
  21196655.8594                   21196647.8224  111389221.66748  86796786.50748
        48.0004         45.0004
  25129514.3244                                  132056458.20444
        34.0004
  22296423.7484                   22296415.9344  117168534.12048  91300144.82847
        47.0004         44.0004
  24737476.2234                                  129996323.57844
        35.0004
 03  8  4  0 11 30.0000000  0 10G24G16G13G27G 8G 3G 1G20G 2G10
  24491184.3644                   24491178.7264  128702038.12345 100287259.75744
        36.0004         34.0004
  23088869.3644                   23088860.9534  121332840.00146  94545043.46345
        41.0004         38.0004
  20198886.0524                   20198876.4424  106145900.75248  82711069.25148
        48.0004         47.0004
  21525975.1024                   21525966.9374  113119814.21948  88145314.79448
        48.0004         45.0004
  23448547.8934                   23448541.1834  123222977.99046  96017876.31245
        40.0004         37.0004
  24232300.6494                                  127341598.64455
        37.0004
  21208013.7584                   21208005.7354  111448907.82848  86843295.20048
        48.0004         45.0004
  25152129.2164                                  132175300.70044
        34.0004
  22304520.6804                   22304512.8654  117211083.71848  91333300.34747
        48.0004         44.0004
  24718658.5484                                  129897436.96744
        35.0004
 03  8  4  0 12  0.0000000  0 10G24G16G13G27G 8G 3G 1G20G 2G10
  24500626.4544                                  128751655.76845
        37.0004
  23103861.2384                   23103852.8004  121411622.63947  94606432.50545
        42.0004         38.0004
  20200473.9744                   20200464.3644  106154245.34048  82717571.52348
        48.0004         47.0004
  21514999.1794                   21514991.0144  113062135.48248  88100370.34948
        47.0004         45.0004
  23429682.9454                   23429676.2084  123123842.39346  95940627.89545
        40.0004         37.0004
  24217969.7294                                  127266287.84345
        36.0004
  21219466.5784                   21219458.5684  111509092.74148  86890192.50948
        48.0004         45.0004
  25174772.1124                                  132294288.17444
        35.0004
  22312725.4924                   22312717.6794  117254200.23448  91366897.62447
        47.0004         44.0004
  24699919.4644                                  129798962.98145
        36.0004
 03  8  4  0 12 30.0000000  0 10G24G16G13G27G 8G 3G 1G20G 2G10
  24510118.7234                                  128801538.91444
        35.0004
  23118898.4394                   23118890.0384  121490643.72746  94668007.35745
        40.0004         38.0004
  20202119.0014                   20202109.3904  106162890.01448  82724307.63248
        48.0004         47.0004
  21504044.2644                   21504036.1124  113004567.13648  88055511.92048
        48.0004         45.0004
  23410818.3704                   23410811.6214  123024708.56846  95863380.81745
        41.0004         37.0004
  24203664.9504                                  127191115.97045
        37.0004
  21230956.4474                   21230948.4524  111569472.40948  86937241.60048
        48.0004         45.0004
  25197384.0114                                  132413114.69344
        35.0004
  22320980.1364                   22320972.3354  117297578.68648  91400699.00047
        48.0004         44.0004
  24681201.7364                                  129700600.96744
        35.0004
 03  8  4  0 13  0.0000000  0 10G24G16G13G27G 8G 3G 1G20G 2G10
  24519689.6574                                  128851834.20145
        36.0004
  23134008.9474                   23134000.5474  121570049.60947  94729881.99245
        42.0004         38.0004
  20203849.5324                   20203839.9084  106171984.01748  82731393.87648
        48.0004         47.0004
  21493138.7754                   21493130.6104  112947258.46648  88010855.83448
        48.0004         45.0004
  23391982.6724                   23391975.8984  122925726.49446  95786251.98845
        40.0004         37.0004
  24189415.3734                                  127116234.87344
        35.0004
  21242511.5684                   21242503.5854  111630194.92048  86984557.81748
        48.0004         45.0004
  25219993.4744                                  132531926.72144
        35.0004
  22329312.6464                   22329304.8464  117341366.31648  91434819.23947
        47.0004         44.0004
  24662534.0794                                  129602502.32944
        35.0004
 03  8  4  0 13 30.0000000  0 10G24G16G13G27G 8G 3G 1G20G 2G10
  24529338.9474                                  128902541.87245
        36.0004
  23149192.6314                   23149184.2204  121649840.15946  94792056.40645
        41.0004         38.0004
  20205666.1334                   20205656.5224  106181530.38448  82738832.60648
        48.0004         47.0004
  21482283.2504                   21482275.0874  112890212.36548  87966404.34548
        47.0004         45.0004
  23373176.5104                   23373169.7104  122826899.63546  95709244.10645
        41.0004         38.0004
  24175222.3744                                  127041649.85045
        37.0004
  21254132.2734                   21254124.2904  111691262.13848  87032142.65948
        48.0004         45.0004
  25242599.9234                                  132650724.41744
        35.0004
  22337723.2234                   22337715.4354  117385564.13548  91469259.07147
        47.0004         44.0004
  24643917.5334                                  129504672.28344
        35.0004
 03  8  4  0 14  0.0000000  0 10G24G16G13G27G 8G 3G 1G20G 2G10
  24539066.5984                                  128953663.65355
        36.0004
  23164449.3544                   23164440.9554  121730014.84346  94854530.18345
        40.0004         38.0004
  20207569.1684                   20207559.5574  106191530.89949  82746625.21648
        49.0004         47.0004
  21471478.0944                   21471469.9164  112833430.94648  87922159.10448
        47.0004         45.0004
  23354400.4014                   23354393.5604  122728230.76646  95632359.34845
        41.0004         37.0004
  24161087.0984                                  126967368.53555
        37.0004
  21265818.8244                   21265810.8424  111752675.25148  87079997.00948
        48.0004         45.0004
  25265203.6034                                  132769507.30644
        34.0004
  22346211.9204                   22346204.1454  117430172.47648  91504018.79347
        47.0004         44.0004
  24625352.8554                                  129407115.36944
        35.0004
 03  8  4  0 14 30.0000000  0 10G24G16G13G27G 8G 3G 1G20G 2G10
  24548871.9534                                  129005190.57745
        37.0004
  23179778.2514                   23179769.8734  121810568.55146  94917299.22845
        41.0004         38.0004
  20209558.3254                   20209548.7154  106201983.99048  82754770.48648
        48.0004         47.0004
  21460723.0134                   21460714.8344  112776912.67548  87878118.90448
        48.0004         45.0004
  23335654.1534                   23335647.2884  122629718.75846  95555596.81345
        41.0004         37.0004
  24147008.1324                                  126893385.75645
        37.0004
  21277570.6224                   21277562.6134  111814431.30348  87128118.61348
        48.0004         45.0004
  25287803.6184                                  132888270.74644
        34.0004
  22354778.0174                   22354770.2554  117475187.62048  91539095.51847
        47.0004         44.0004
  24606840.5594                                  129309831.84544
        35.0004
 03  8  4  0 15  0.0000000  0 10G24G16G13G27G 8G 3G 1G20G 2G10
  24558725.8034                                  129056971.91045
        36.0004
  23195150.1194                   23195141.7534  121891348.26346  94980244.44545
        41.0004         37.0004
  20211604.9054                   20211595.2954  106212738.83948  82763150.88948
        48.0004         47.0004
  21449989.2844                   21449981.1054  112720506.67648  87834166.20248
        48.0004         45.0004
  23316909.2194                   23316902.3384  122531213.71346  95478839.68845
        41.0004         38.0004
  24132958.8804                                  126819556.50345
        37.0004
  21289358.8554                   21289350.8474  111876378.82648  87176389.39848
        48.0004         45.0004
  25310370.6264                                  133006861.11344
        35.0004
  22363392.5034                   22363384.7264  117520456.98648  91574370.34047
        48.0004         44.0004
  24588351.9414                                  129212673.56444
        35.0004
 03  8  4  0 15 30.0000000  0  9G24G16G13G27G 8G 3G 1G 2G10
  24568656.4514                                  129109157.68945
        37.0004
  23210593.6214                   23210585.2804  121972504.34946  95043482.91945
        41.0004         38.0004
  20213738.0754                   20213728.4624  106223948.72348  82771885.85448
        48.0004         47.0004
  21439306.1464                   21439297.9804  112664366.53148  87790420.65148
        48.0004         45.0004
  23298194.9224                   23298188.0274  122432869.73046  95402208.08745
        41.0004         38.0004
  24118968.3374                                  126746036.70445
        36.0004
  21301212.4974                   21301204.5034  111938670.07248  87224928.01348
        48.0004         45.0004
  22372084.1744                   22372076.3994  117566131.96448  91609961.22347
        47.0004         44.0004
  24569916.8264                                  129115796.31644
        35.0004
 03  8  4  0 16  0.0000000  0  9G24G16G13G27G 8G 3G 1G 2G10
  24578721.7854                                  129162053.81755
        37.0004
  23226166.3394                   23226158.0204  122054339.34846  95107250.37345
        41.0004         38.0004
  20216015.9564                   20216006.3434  106235919.13048  82781213.45448
        48.0004         47.0004
  21428731.7244                   21428723.5594  112608797.63448  87747120.22848
        48.0004         45.0004
  23279569.5414                   23279562.6284  122334992.88246  95325940.44345
        41.0004         38.0004
  24105095.1124                                  126673134.34745
        37.0004
  21313189.5054                   21313181.5254  112001609.60948  87273971.78748
        48.0004         45.0004
  22380910.7804                   22380902.9924  117612516.03248  91646104.64447
        47.0004         44.0004
  24551593.3704                                  129019507.90744
        35.0004
 03  8  4  0 16 30.0000000  0  9G24G16G13G27G 8G 3G 1G 2G10
  24588834.0164                                  129215194.01145
        36.0004
  23241780.5284                   23241772.2214  122136392.34246  95171187.72845
        41.0004         37.0004
  20218351.4384                   20218341.8254  106248192.17448  82790776.86548
        48.0004         47.0004
  21418178.9204                   21418170.7544  112553342.33348  87703908.31948
        48.0004         46.0004
  23260946.0314                   23260939.1074  122237126.05146  95249680.67245
        41.0004         38.0004
  24091253.0594                                  126600394.12145
        37.0004
  21325202.5304                   21325194.5354  112064738.41848  87323163.05848
        47.0004         45.0004
  22389784.8604                   22389777.0724  117659149.51048  91682442.39347
        48.0004         44.0004
  24533295.6254                                  128923352.54445
        36.0004
 03  8  4  0 17  0.0000000  0  9G24G16G13G27G 8G 3G 1G 2G10
  24599021.3824                                  129268728.79345
        36.0004
  23257464.3474                   23257456.0784  122218811.11346  95235410.06345
        41.0004         38.0004
  20220773.1314                   20220763.5184  106260918.25548  82800693.29448
        48.0004         47.0004
  21407676.3274                   21407668.1614  112498150.96048  87660902.07948
        48.0004         46.0004
  23242353.1944                   23242346.2564  122139420.40946  95173546.49545
        41.0004         38.0004
  24077471.3724                                  126527968.93045
        38.0004
  21337280.0094                   21337272.0284  112128205.99848  87372618.30848
        47.0004         45.0004
  22398734.6674                   22398726.8794  117706180.94148  91719090.23347
        47.0004         43.0004
  24515052.4294                                  128827483.09245
        36.0004
 03  8  4  0 17 30.0000000  0  9G24G16G13G27G 8G 3G 1G 2G10
  24609282.7874                                  129322652.58845
        36.0004
  23273216.6704                   23273208.4144  122301589.94246  95299912.99945
        40.0004         37.0004
  20223280.4794                   20223270.8544  106274094.39448  82810960.41348
        48.0004         47.0004
  21397223.4894                   21397215.3094  112443220.98948  87618099.52648
        48.0004         45.0004
  23223790.6784                   23223783.7134  122041873.85446  95097536.23345
        41.0004         38.0004
  24063748.7254                                  126455855.87155
        37.0004
  21349421.2594                   21349413.2904  112192008.63948  87422334.62348
        47.0004         45.0004
  22407759.2674                   22407751.4924  117753605.59448  91756044.51447
        47.0004         44.0004
  24496863.1944                                  128731899.07645
        36.0004
 03  8  4  0 18  0.0000000  0  8G24G16G13G27G 8G 3G 1G 2
  24619589.8234                                  129376816.24244
        35.0004
  23289009.0484                   23289000.8184  122384579.32746  95364580.00245
        41.0004         37.0004
  20225845.6144                   20225835.9894  106287574.27148  82821464.21448
        48.0004         47.0004
  21386792.4904                   21386784.2994  112388405.71948  87575386.34548
        48.0004         45.0004
  23205230.6514                   23205223.6604  121944340.50346  95021536.29545
        41.0004         38.0004
  24050059.4904                                  126383916.64045
        38.0004
  21361598.1874                   21361590.2174  112255998.82648  87472197.10248
        48.0004         45.0004
  22416830.4514                   22416822.6784  117801274.92748  91793189.44147
        47.0004         43.0004
 03  8  4  0 18 30.0000000  0  9G24G16G13G27G 8G 3G 1G 2G10
  24629970.7164                                  129431368.08045
        37.0004
  23304869.6534                   23304861.4364  122467927.42946  95429526.58345
        41.0004         37.0004
  20228497.2014                   20228487.5874  106301508.51549  82832322.06348
        49.0004         47.0004
  21376412.1054                   21376403.9004  112333856.49148  87532880.47048
        48.0004         45.0004
  23186701.9784                   23186694.9884  121846971.98046  94945664.79345
        41.0004         38.0004
  24036431.7194                                  126312301.65845
        37.0004
  21373839.3384                   21373831.3694  112320326.38148  87522322.44948
        48.0004         45.0004
  22425976.6014                   22425968.8144  117849338.14248  91830641.27847
        48.0004         44.0004
  24460595.1664                                  128541295.67955
        36.0004
 03  8  4  0 19  0.0000000  0  9G24G16G13G27G 8G 3G 1G 2G10
  24640484.1294                                  129486615.74945
        36.0004
  23320857.0684                   23320848.8634  122551941.86046  95494992.36045
        41.0004         37.0004
  20231294.3404                   20231284.7284  106316207.58248  82843775.88648
        48.0004         47.0004
  21366141.4164                   21366133.2124  112279883.71648  87490823.78248
        48.0004         45.0004
  23168263.9814                   23168256.9784  121750079.59146  94870164.22245
        41.0004         38.0004
  24022925.3054                                  126241324.15946
        39.0004
  21386203.5924                   21386195.6374  112385300.91748  87572951.93748
        47.0004         45.0004
  22435256.4284                   22435248.6544  117898103.89948  91868640.54647
        47.0004         43.0004
  24442604.7754                                  128446755.66145
        36.0004
 03  8  4  0 19 30.0000000  0  8G24G16G13G27G 8G 1G 2G10
  24651041.4034                                  129542095.28345
        37.0004
  23336883.0604                   23336874.8694  122636158.64446  95560615.73645
        40.0004         37.0004
  20234149.2814                   20234139.6544  106331210.39948  82855466.39548
        48.0004         47.0004
  21355892.6954                   21355884.4774  112226026.38848  87448857.05048
        47.0004         45.0004
  23149828.9404                   23149821.9194  121653203.23546  94794676.24045
        41.0004         38.0004
  21398603.0074                   21398595.0524  112450460.21748  87623725.40448
        47.0004         45.0004
  22444581.8254                   22444574.0524  117947109.06948  91906826.36747
        47.0004         44.0004
  24424642.7234                                  128352364.69145
        37.0004
 03  8  4  0 20  0.0000000  0  9G24G16G13G27G 8G 3G 1G 2G10
  24661672.0214                                  129597962.05755
        36.0004
  23352976.5904                   23352968.4114  122720730.40446  95626515.72845
        40.0004         37.0004
  20237091.5764                   20237081.9614  106346672.26048  82867514.58948
        48.0004         47.0004
  21345695.5474                   21345687.3264  112172440.01148  87407101.42548
        48.0004         46.0004
  23131426.6564                   23131419.6234  121556498.70646  94719322.10045
        41.0004         38.0004
  23996043.9474                                  126100057.73455
        38.0004
  21411066.9534                   21411059.0134  112515958.57248  87674763.05448
        47.0004         45.0004
  22453981.9354                   22453974.1464  117996506.91948  91945318.18047
        47.0004         44.0004
  24406738.9844                                  128258280.28245
        36.0004
 03  8  4  0 20 30.0000000  0  9G24G16G13G27G 8G 3G 1G 2G10
  24672345.0864                                  129654049.51945
        36.0004
  23369106.8784                   23369098.7404  122805495.76146  95692566.66445
        40.0004         37.0004
  20240091.1224                   20240081.5074  106362434.98349  82879797.22748
        49.0004         47.0004
  21335519.8104                   21335511.5784  112118966.21548  87365433.56348
        48.0004         46.0004
  23113027.0504                   23113020.0034  121459808.43446  94643979.10746
        41.0004         39.0004
  23982670.0424                                  126029777.07945
        37.0004
  21423565.0804                   21423557.1384  112581636.67048  87725940.78647
        48.0004         44.0004
  22463426.3134                   22463418.5384  118046137.39448  91983991.26247
        46.0004         43.0004
  24388863.7314                                  128164346.69645
        38.0004
 03  8  4  0 21  0.0000000  0  9G24G16G13G27G 8G 3G 1G 2G10
  24683089.7174                                  129710513.50145
        36.0004
  23385303.1584                   23385295.0884  122890607.72946  95758887.63045
        40.0004         37.0004
  20243177.5004                   20243167.8864  106378653.94548  82892435.37248
        48.0004         47.0004
  21325395.1654                   21325386.9334  112065760.91348  87323974.89448
        48.0004         46.0004
  23094659.9914                   23094652.9194  121363289.01546  94568769.22045
        41.0004         38.0004
  23969360.3574                   23969352.8624  125959835.96245  98150496.82654
        38.0004         35.0004
  21436126.9084                   21436118.9534  112647649.39648  87777379.25648
        47.0004         45.0004
  22472944.2254                   22472936.4504  118096154.29748  92022965.45947
        47.0004         43.0004
  24371047.5454                                  128070718.00355
        37.0004
 03  8  4  0 21 30.0000000  0 10G24G16G31G13G27G 8G 3G 1G 2G10
  24693963.9774                                  129767657.43645
        36.0004
  23401623.1354                   23401615.1084  122976369.65946  95825715.07145
        40.0004         37.0004
  24843546.3854                                  130553716.48054
        33.0004
  20246408.8794                   20246399.2674  106395634.96048  82905667.33648
        48.0004         48.0004
  21315379.9074                   21315371.6614  112013130.43648  87282964.15448
        48.0004         46.0004
  23076383.8144                   23076376.7404  121267247.30346  94493931.57245
        41.0004         38.0004
  23956174.3314                   23956167.1394  125890542.79845  98096502.18244
        38.0004         35.0004
  21448810.4194                   21448802.4654  112714301.57348  87829315.99148
        47.0004         45.0004
  22482593.5224                   22482585.7734  118146861.69848  92062477.69847
        47.0004         44.0004
  24353348.6084                                  127977710.58745
        36.0004
 03  8  4  0 22  0.0000000  0  9G24G16G13G27G 8G 3G 1G 2G10
  24704879.8864                                  129825020.55045
        36.0004
  23417979.1474                   23417971.1374  123062320.89746  95892690.02245
        40.0004         37.0004
  20249698.2364                   20249688.6234  106412920.64749  82919136.70148
        49.0004         47.0004
  21305386.8344                   21305378.6014  111960616.60848  87242044.30648
        48.0004         45.0004
  23058111.5774                   23058104.4634  121171226.24046  94419110.02446
        41.0004         39.0004
  23943024.9294                   23943018.3214  125821442.54145  98042657.90944
        38.0004         35.0004
  21461528.3664                   21461520.4274  112781134.77548  87881393.79648
        48.0004         45.0004
  22492286.7424                   22492278.9774  118197799.91048  92102169.81347
        46.0004         43.0004
  24335680.5474                                  127884865.17545
        36.0004
 03  8  4  0 22 30.0000000  0 10G24G16G31G13G27G 8G 3G 1G 2G10
  24715866.4654                                  129882752.34855
        36.0004
  23434399.9784                   23434391.9684  123148612.75546  95959930.39245
        40.0004         37.0004
  24805245.2224                                  130352441.63754
        33.0004
  20253074.8844                   20253065.2724  106430664.98949  82932963.45048
        49.0004         48.0004
  21295445.5244                   21295437.2774  111908374.67548  87201336.31248
        47.0004         46.0004
  23039872.7504                   23039865.5924  121075381.05846  94344425.58646
        41.0004         39.0004
  23929942.1864                   23929935.5984  125752691.94646  97989086.03144
        39.0004         35.0004
  21474309.8964                   21474301.9454  112848301.98048  87933731.85148
        48.0004         45.0004
  22502052.8764                   22502045.1234  118249121.22748  92142160.42347
        47.0004         43.0004
  24318073.1944                                  127792338.47544
        35.0004
 03  8  4  0 23  0.0000000  0 10G24G16G31G13G27G 8G 3G 1G 2G10
  24726893.7534                                  129940700.63545
        37.0004
  23450855.9064                   23450847.9304  123235088.92946  96027314.37145
        40.0004         37.0004
  24786081.1224                                  130251735.48644
        34.0004
  20256509.6284                   20256500.0164  106448714.69048  82947028.15148
        48.0004         47.0004
  21285526.6454                   21285518.4124  111856250.73448  87160720.28148
        48.0004         46.0004
  23021638.4134                   23021631.2444  120979558.84047  94269758.91746
        42.0004         39.0004
  23916897.2674                   23916890.6044  125684140.37245  97935669.33744
        38.0004         35.0004
  21487125.6184                   21487117.6824  112915648.99248  87986210.02448
        47.0004         45.0004
  22511862.4054                   22511854.6524  118300670.65348  92182328.80447
        46.0004         43.0004
  24300497.7244                                  127699979.63145
        37.0004
 03  8  4  0 23 30.0000000  0 10G24G16G31G13G27G 8G 3G 1G 2G10
  24737990.1284                                  129999011.85945
        36.0004
  23467375.1934                   23467367.2474  123321897.74446  96094957.46145
        40.0004         37.0004
  24766928.6374                                  130151087.18844
        34.0004
  20260031.1674                   20260021.5404  106467220.50249  82961448.26748
        49.0004         47.0004
  21275659.0574                   21275650.8264  111804396.14748  87120314.10248
        48.0004         46.0004
  23003437.2454                   23003430.0644  120883911.49546  94195228.62746
        41.0004         39.0004
  23903919.2704                   23903912.7414  125615941.03845  97882527.03344
        38.0004         35.0004
  21500004.1184                   21499996.1814  112983325.90448  88038945.26547
        47.0004         44.0004
  22521743.7154                   22521735.9614  118352597.16248  92222790.98847
        47.0004         43.0004
  24282983.4814                                  127607942.28545
        36.0004
 03  8  4  0 24  0.0000000  0 10G24G16G31G13G27G 8G 3G 1G 2G10
  24749214.0924                                  130057992.93545
        37.0004
  23484016.1094                   23484008.1884  123409346.34546  96163099.20845
        39.0004         37.0004
  24747846.4854                                  130050809.42744
        32.0004
  20263698.4224                   20263688.8214  106486492.11849  82976465.10748
        49.0004         47.0004
  21265901.6494                   21265893.4164  111753120.74948  87080359.26548
        48.0004         45.0004
  22985328.5174                   22985321.3244  120788749.86447  94121076.80146
        42.0004         39.0004
  23891067.8224                   23891061.2884  125548406.41145  97829902.66844
        38.0004         35.0004
  21513004.1444                   21512996.2224  113051641.43848  88092178.13547
        48.0004         44.0004
  22531755.3204                   22531747.5794  118405208.43848  92263786.76547
        47.0004         43.0004
  24265589.6664                                  127516538.11345
        36.0004
 03  8  4  0 24 30.0000000  0  9G16G31G13G27G 8G 3G 1G 2G10
  23500690.7274                   23500682.7774  123496971.93246  96231378.86445
        40.0004         36.0004
  24728747.7854                                  129950445.14344
        33.0004
  20267423.8524                   20267414.2374  106506069.32248  82991720.06248
        48.0004         47.0004
  21256167.0234                   21256158.7784  111701964.94648  87040497.61048
        48.0004         46.0004
  22967224.8564                   22967217.6524  120693614.54547  94046945.41546
        42.0004         39.0004
  23878255.8774                   23878249.2554  125481079.18646  97777439.91244
        39.0004         35.0004
  21526038.0114                   21526030.0764  113120134.68248  88145549.46247
        47.0004         44.0004
  22541809.3644                   22541801.6234  118458042.79748  92304956.39347
        47.0004         43.0004
  24248229.5784                                  127425303.91855
        36.0004
 03  8  4  0 25  0.0000000  0 10G24G16G31G13G27G 8G 3G 1G 2G10
  24771749.9304                                  130176422.06654
        35.0004
  23517369.3914                   23517361.4544  123584618.52546  96299674.81945
        40.0004         36.0004
  24709603.9294                                  129849844.18844
        33.0004
  20271178.3314                   20271168.7174  106525799.18148  83007093.97048
        48.0004         47.0004
  21246426.0004                   21246417.7544  111650775.58648  87000609.80748
        48.0004         45.0004
  22949097.1954                   22949089.9654  120598353.35747  93972716.00446
        42.0004         39.0004
  23865454.6584                   23865447.9914  125413808.82445  97725021.56144
        37.0004         34.0004
  21539076.3154                   21539068.3924  113188651.36848  88198939.06247
        48.0004         44.0004
  22551876.3604                   22551868.6324  118510945.15648  92346178.98947
        47.0004         43.0004
  24230874.5754                                  127334100.94945
        37.0004
 03  8  4  0 25 30.0000000  0 10G24G16G31G13G27G 8G 3G 1G 2G10
  24783178.0174                                  130236476.50144
        35.0004
  23534197.2764                   23534189.3364  123673049.59846  96368582.11945
        39.0004         36.0004
  24690561.5514                                  129749775.87744
        34.0004
  20275107.6904                   20275098.0764  106546448.10349  83023184.03748
        49.0004         48.0004
  21236824.4704                   21236816.2244  111600319.26848  86961293.20848
        48.0004         46.0004
  22931091.5764                   22931084.3194  120503733.37947  93898986.20746
        42.0004         39.0004
  23852810.6724                   23852804.0174  125347364.48245  97673246.78845
        38.0004         36.0004
  21552264.7494                   21552256.8414  113257956.99948  88252943.43147
        47.0004         44.0004
  22562101.8104                   22562094.0844  118564680.07148  92388050.31547
        47.0004         43.0004
  24213670.3534                                  127243692.09145
        36.0004
 03  8  4  0 26  0.0000000  0 10G24G16G31G13G27G 8G 3G 1G 2G10
  24794643.7924                                  130296729.06044
        35.0004
  23551057.2054                   23551049.2944  123761648.81046  96437620.39545
        40.0004         36.0004
  24671504.1624                                  129649629.30944
        34.0004
  20279095.0804                   20279085.4654  106567401.97949  83039511.72748
        49.0004         47.0004
  21227245.6534                   21227237.4064  111549982.30748  86922069.61348
        48.0004         46.0004
  22913091.3244                   22913084.0524  120409141.72847  93825278.49746
        42.0004         39.0004
  23840207.4604                   23840200.8604  125281134.71645  97621639.27944
        38.0004         35.0004
  21565486.3584                   21565478.4364  113327436.89448  88307083.58947
        47.0004         44.0004
  22572368.4864                   22572360.7754  118618631.75148  92430090.57547
        46.0004         43.0004
  24196500.7734                                  127153466.03045
        37.0004
 03  8  4  0 26 30.0000000  0 10G24G16G31G13G27G 8G 3G 1G 2G10
  24806146.0644                                  130357175.46944
        34.0004
  23567948.2184                   23567940.3314  123850411.55646  96506786.11645
        39.0004         36.0004
  24652432.0574                                  129549405.78144
        33.0004
  20283140.1964                   20283130.5954  106588659.20848  83056075.79948
        48.0004         47.0004
  21217689.2774                   21217681.0424  111499763.27349  86882937.90348
        49.0004         46.0004
  22895096.2834                   22895088.9964  120314577.52447  93751592.19146
        42.0004         39.0004
  23827645.3994                   23827638.7774  125215120.58146  97570199.71345
        39.0004         36.0004
  21578740.5984                   21578732.6914  113397088.27248  88361357.35947
        47.0004         44.0004
  22582675.7314                   22582668.0214  118672796.62948  92472296.96147
        46.0004         43.0004
  24179366.8094                                  127063432.69155
        37.0004
 03  8  4  0 27  0.0000000  0 10G24G16G31G13G27G 8G 3G 1G 2G10
  24817714.5264                                  130417968.14844
        34.0004
  23584899.3594                   23584891.5274  123939490.28046  96576198.05445
        39.0004         36.0004
  24633375.6964                                  129449263.55644
        34.0004
  20287272.4914                   20287262.8764  106610374.56448  83072996.86048
        48.0004         47.0004
  21208184.8864                   21208176.6374  111449817.42748  86844019.07448
        48.0004         46.0004
  22877136.2054                   22877128.8754  120220196.92547  93678048.93446
        42.0004         40.0004
  23815154.3504                   23815147.6724  125149479.61445  97519050.91344
        38.0004         35.0004
  21592056.7854                   21592048.8784  113467065.24748  88415884.85847
        47.0004         44.0004
  22593052.7424                   22593045.0344  118727328.12748  92514789.03247
        46.0004         43.0004
  24162296.7234                                  126973731.65845
        37.0004
 03  8  4  0 27 30.0000000  0 10G24G16G31G13G27G 8G 3G 1G 2G10
  24829407.4704                                  130479413.48044
        35.0004
  23601968.8804                   23601961.0834  124029191.21546  96646094.84445
        39.0004         36.0004
  24614394.3724                                  129349514.77744
        33.0004
  20291550.8334                   20291541.2324  106632857.40148  83090515.95048
        48.0004         47.0004
  21198791.3744                   21198783.1394  111400454.25048  86805554.27248
        48.0004         46.0004
  22859270.0344                   22859262.7054  120126309.75147  93604890.14346
        42.0004         39.0004
  23802793.5984                   23802786.9194  125084523.60845  97468435.88644
        37.0004         35.0004
  21605493.6454                   21605485.7254  113537676.29748  88470906.43847
        47.0004         44.0004
  22603557.9704                   22603550.2774  118782533.35048  92557806.06147
        46.0004         43.0004
  24145351.3194                   24145345.1754  126884683.64645  98871146.99154
        36.0004         34.0004
 03  8  4  0 28  0.0000000  0 10G24G16G31G13G27G 8G 3G 1G 2G10
  24841135.8414                                  130541046.36444
        35.0004
  23619068.3594                   23619060.5634  124119049.27546  96716114.04445
        39.0004         36.0004
  24595399.9984                                  129249699.66344
        35.0004
  20295887.1584                   20295877.5444  106655644.88148  83108272.42248
        48.0004         47.0004
  21189420.7294                   21189412.4794  111351211.23849  86767183.11348
        49.0004         46.0004
  22841409.8954                   22841402.5804  120032454.40147  93531756.16646
        42.0004         40.0004
  23790475.6154                   23790468.9604  125019792.54746  97417996.15044
        39.0004         35.0004
  21618962.9334                   21618955.0264  113608457.75548  88526060.78547
        47.0004         44.0004
  22614103.0094                   22614095.3134  118837947.90348  92600986.22047
        46.0004         43.0004
  24128442.5754                   24128436.5984  126795828.59445  98801909.38244
        37.0004         34.0004
 03  8  4  0 28 30.0000000  0 10G24G16G31G13G27G 8G 3G 1G 2G10
  24852870.1504                                  130602709.88244
        35.0004
  23636167.9674                   23636160.1444  124208908.25846  96786134.03245
        39.0004         36.0004
  24576364.2414                                  129149667.83844
        34.0004
  20300252.2254                   20300242.6264  106678583.46648  83126146.64148
        48.0004         47.0004
  21180043.7974                   21180035.5624  111301935.13049  86728786.14148
        49.0004         46.0004
  22823526.7324                   22823519.3774  119938478.05547  93458527.93946
        42.0004         40.0004
  23778171.6684                   23778164.9834  124955135.36645  97367614.04844
        38.0004         35.0004
  21632435.2214                   21632427.3134  113679255.04448  88581227.48847
        47.0004         44.0004
  22624658.3114                   22624650.6294  118893416.32848  92644208.35047
        46.0004         43.0004
  24111541.9804                   24111536.1454  126707015.37045  98732704.28944
        37.0004         34.0004
 03  8  4  0 29  0.0000000  0 10G24G16G31G13G27G 8G 3G 1G 2G10
  24864756.0424                                  130665169.85644
        35.0004
  23653413.4914                   23653405.7034  124299533.53646  96856751.02545
        39.0004         36.0004
  24557434.3394                                  129050190.77944
        35.0004
  20304792.2054                   20304782.6054  106702441.22248  83144737.09748
        48.0004         47.0004
  21170806.8344                   21170798.5874  111253394.56349  86690962.33648
        49.0004         46.0004
  22805766.9704                   22805759.6284  119845150.12647  93385804.92346
        42.0004         40.0004
  23766028.6644                   23766022.0014  124891323.07946  97317890.13045
        39.0004         36.0004
  21646056.5654                   21646048.6734  113750835.56948  88637004.49247
        47.0004         44.0004
  22635369.6774                   22635361.9954  118949704.87448  92688069.54047
        46.0004         43.0004
  24094795.9804                   24094789.8894  126619014.67145  98664132.42244
        37.0004         34.0004
 03  8  4  0 29 30.0000000  0 10G24G16G31G13G27G 8G 3G 1G 2G10
  24876675.4024                                  130727807.14144
        35.0004
  23670686.9634                   23670679.1864  124390306.18246  96927482.92545
        39.0004         36.0004
  24538492.9694                                  128950655.02144
        35.0004
  20309389.8384                   20309380.2504  106726602.00649  83163563.68248
        49.0004         47.0004
  21161592.5364                   21161584.2744  111204973.16148  86653231.38948
        48.0004         46.0004
  22788013.4334                   22788006.0884  119751854.97247  93313107.45746
        43.0004         40.0004
  23753929.4824                   23753922.8674  124827741.75845  97268346.32344
        38.0004         35.0004
  21659709.4424                   21659701.5614  113822581.91848  88692910.72447
        47.0004         44.0004
  22646119.4934                   22646111.8384  119006195.53848  92732088.22347
        46.0004         43.0004
  24078087.8104                   24078081.5674  126531212.89545  98595715.57144
        37.0004         34.0004
 03  8  4  0 30  0.0000000  0 10G24G16G31G13G27G 8G 3G 1G 2G10
  24888629.6054                                  130790625.21144
        35.0004
  23687989.1344                   23687981.3944  124481229.51446  96998332.20345
        39.0004         36.0004
  24519542.4174                                  128851069.88644
        35.0004
  20314046.2744                   20314036.7014  106751071.68249  83182630.94848
        49.0004         47.0004
  21152402.1944                   21152393.9314  111156677.58648  86615598.47148
        48.0004         46.0004
  22770267.5364                   22770260.1644  119658599.96947  93240441.30346
        44.0004         40.0004
  23741875.9694                   23741869.3314  124764400.55646  97218989.66944
        39.0004         35.0004
  21673394.9054                   21673387.0264  113894499.38848  88748950.28947
        47.0004         44.0004
  22656908.6294                   22656900.9754  119062892.70348  92776267.81347
        46.0004         43.0004
  24061419.1734                   24061412.5994  126443618.80245  98527460.49644
        37.0004         34.0004
 03  8  4  0 30 30.0000000  0 10G24G16G31G13G27G 8G 3G 1G 2G10
  24900674.8034                                  130853928.09554
        35.0004
  23705377.1104                   23705369.3744  124572603.75846  97069532.88545
        39.0004         36.0004
  24500640.7764                                  128751741.15345
        36.0004
  20318819.0494                   20318809.4604  106776152.78149  83202174.66148
        49.0004         47.0004
  21143293.4174                   21143285.1544  111108810.64049  86578299.55348
        49.0004         46.0004
  22752586.9854                   22752579.5854  119565688.41947  93168042.78846
        43.0004         40.0004
  23729926.2154                   23729919.6004  124701604.23845  97170057.45845
        38.0004         36.0004
  21687170.3484                   21687162.4684  113966889.70348  88805358.29647
        47.0004         44.0004
  22667794.2544                   22667786.6274  119120096.98948  92820842.54847
        46.0004         43.0004
  24044848.1234                   24044841.4944  126356537.59745  98459605.03044
        38.0004         35.0004
 03  8  4  0 31  0.0000000  0 10G24G16G31G13G27G 8G 3G 1G 2G10
  24912781.9954                                  130917552.31944
        35.0004
  23722821.3424                   23722813.6454  124664273.50545  97140963.76044
        38.0004         35.0004
  24481759.8074                                  128652519.42944
        35.0004
  20323679.1494                   20323669.5754  106801692.78249  83222075.95548
        49.0004         47.0004
  21134237.2354                   21134228.9584  111061220.14849  86541216.06748
        49.0004         46.0004
  22734943.0604                   22734935.6464  119472968.97047  93095793.86746
        43.0004         40.0004
  23718051.5994                   23718045.0374  124639202.96046  97121433.10644
        39.0004         35.0004
  21701006.5654                   21700998.6874  114039599.39148  88862015.17347
        47.0004         44.0004
  22678747.0164                   22678739.4064  119177654.07848  92865692.22347
        46.0004         43.0004
  24028346.1334                   24028339.4214  126269819.24445  98392032.36344
        38.0004         35.0004
 03  8  4  0 31 30.0000000  0 10G24G16G31G13G27G 8G 3G 1G 2G10
  24924921.6624                                  130981346.25944
        35.0004
  23740292.1644                   23740284.4874  124756083.10746  97212503.68845
        39.0004         36.0004
  24462869.9864                                  128553254.75144
        35.0004
  20328597.5014                   20328587.9264  106827538.83048  83242215.71948
        48.0004         47.0004
  21125204.5754                   21125196.2974  111013753.19748  86504228.83248
        48.0004         46.0004
  22717306.6334                   22717299.1914  119380289.23147  93023575.97146
        43.0004         40.0004
  23706223.5824                   23706216.9904  124577046.37245  97072999.41945
        38.0004         36.0004
  21714874.2124                   21714866.3314  114112474.30648  88918800.79847
        47.0004         43.0004
  22689737.4594                   22689729.8654  119235409.12148  92910696.12847
        46.0004         43.0004
  24011884.4534                   24011877.5764  126183313.21645  98324625.23244
        38.0004         34.0004
 03  8  4  0 32  0.0000000  0 10G24G16G31G13G27G 8G 3G 1G 2G10
  24937122.6954                                  131045462.87344
        35.0004
  23757818.7684                   23757811.1004  124848185.96746  97284272.11444
        39.0004         35.0004
  24444002.6294                                  128454106.24544
        34.0004
  20333603.6354                   20333594.0724  106853846.30848  83262715.05148
        48.0004         47.0004
  21116225.1584                   21116216.8674  110966566.10648  86467459.69248
        48.0004         46.0004
  22699707.6694                   22699700.1854  119287806.24047  92951511.36046
        43.0004         40.0004
  23694472.2344                   23694465.6274  124515292.93745  97024879.92744
        38.0004         35.0004
  21728802.8404                   21728794.9714  114185669.67948  88975836.12547
        46.0004         43.0004
  22700794.9134                   22700787.3324  119293516.36848  92955974.48047
        46.0004         43.0004
  23995493.4494                   23995486.5364  126097178.03745  98257506.97744
        37.0004         34.0004
 03  8  4  0 32 30.0000000  0 10G24G16G31G13G27G 8G 3G 1G 2G10
  24949443.2624                                  131110208.38944
        34.0004
  23775459.4394                   23775451.7854  124940887.94645  97356507.32944
        38.0004         35.0004
  24425216.7374                                  128355385.71845
        36.0004
  20338756.3094                   20338746.7604  106880923.79249  83283814.38148
        49.0004         47.0004
  21107357.7724                   21107349.4974  110919967.67548  86431149.22948
        48.0004         46.0004
  22682205.1074                   22682197.6394  119195829.71747  92879841.35946
        43.0004         40.0004
  23682856.9054                   23682850.2894  124454254.09546  96977317.24545
        39.0004         36.0004
  21742850.9984                   21742843.1424  114259493.18148  89033360.91047
        47.0004         44.0004
  22711977.7504                   22711970.1554  119352282.45248  93001766.21047
        46.0004         42.0004
  23979232.2394                   23979225.3394  126011725.17545  98190920.40944
        38.0004         34.0004
 03  8  4  0 33  0.0000000  0 10G24G16G31G13G27G 8G 3G 1G 2G10
  24961765.6694                                  131174962.32544
        34.0004
  23793096.0894                   23793088.4494  125033569.04246  97428726.33345
        39.0004         36.0004
  24406395.3484                                  128256478.71544
        35.0004
  20343938.0344                   20343928.4844  106908153.93848  83305032.67848
        48.0004         47.0004
  21098484.9604                   21098476.6694  110873340.79648  86394816.60948
        48.0004         46.0004
  22664681.4744                   22664673.9754  119103742.84347  92808085.44646
        42.0004         40.0004
  23671260.4644                   23671253.8484  124393314.57446  96929831.94945
        39.0004         36.0004
  21756900.9694                   21756893.1244  114333326.21748  89090893.11447
        46.0004         44.0004
  22723168.0764                   22723160.4794  119411088.01148  93047588.71747
        46.0004         43.0004
  23962983.7614                   23962976.9024  125926339.15745  98124385.89844
        38.0004         35.0004
 03  8  4  0 33 30.0000000  0 10G24G16G31G13G27G 8G 3G 1G 2G10
  24974177.2284                                  131240184.69544
        35.0004
  23810816.2454                   23810808.6324  125126689.21845  97501287.52244
        38.0004         35.0004
  24387626.9774                                  128157851.32244
        34.0004
  20349236.8754                   20349227.3264  106935999.47649  83326730.48748
        49.0004         47.0004
  21089694.8644                   21089686.5894  110827148.59648  86358822.69848
        48.0004         46.0004
  22647225.1964                   22647217.6974  119012009.73147  92736605.15546
        42.0004         40.0004
  23659771.5454                   23659764.9574  124332939.89546  96882786.73545
        39.0004         36.0004
  21771040.6834                   21771032.8514  114407630.91348  89148792.87047
        46.0004         44.0004
  22734453.6954                   22734446.0984  119470394.21548  93093801.31347
        46.0004         43.0004
  23946836.6594                   23946829.7824  125841485.75245  98058266.39344
        38.0004         35.0004
 03  8  4  0 34  0.0000000  0 10G24G16G31G13G27G 8G 3G 1G 2G10
  24986646.8794                                  131305712.90445
        36.0004
  23828589.1624                   23828581.5614  125220086.21345  97574064.32044
        38.0004         35.0004
  24368881.8714                                  128059347.05944
        35.0004
  20354622.3774                   20354612.8154  106964300.41349  83348783.16348
        49.0004         47.0004
  21080957.1534                   21080948.8644  110781231.61548  86323043.23848
        48.0004         46.0004
  22629805.9714                   22629798.4714  118920471.21347  92665276.46446
        43.0004         40.0004
  23648360.1724                   23648353.5874  124272973.04245  96836059.39445
        38.0004         36.0004
  21785239.5924                   21785231.7764  114482246.49848  89206934.84447
        46.0004         43.0004
  22745803.8084                   22745796.2004  119530039.33348  93140278.02247
        46.0004         42.0004
  23930760.8874                   23930753.9574  125757007.62746  97992439.45244
        39.0004         35.0004
 03  8  4  0 34 30.0000000  0 10G24G16G31G13G27G 8G 3G 1G 2G10
  24999116.2164                                  131371239.71344
        35.0004
  23846356.3414                   23846348.7534  125313453.12145  97646817.68744
        37.0004         35.0004
  24350103.3284                                  127960664.46544
        35.0004
  20360036.5694                   20360027.0224  106992752.18549  83370953.37348
        49.0004         47.0004
  21072213.9144                   21072205.6384  110735285.64648  86287241.19248
        48.0004         46.0004
  22612366.0704                   22612358.5594  118828824.10147  92593863.19046
        43.0004         41.0004
  23636968.8894                   23636962.3004  124213111.75846  96789414.29245
        39.0004         36.0004
  21799439.5324                   21799431.7034  114556867.49648  89265081.04547
        46.0004         43.0004
  22757160.1084                   22757152.5124  119589717.03048  93186780.09847
        46.0004         43.0004
  23914699.1614                   23914692.2544  125672602.81146  97926669.46244
        39.0004         34.0004
 03  8  4  0 35  0.0000000  0  9G16G31G13G27G 8G 3G 1G 2G10
  23864264.2694                   23864256.7334  125407559.54045  97720147.24844
        38.0004         35.0004
  24331438.9444                                  127862579.52745
        36.0004
  20365626.5024                   20365616.9544  107022127.48349  83393843.20948
        49.0004         47.0004
  21063612.2834                   21063604.0074  110690083.76848  86252018.94948
        48.0004         46.0004
  22595052.7304                   22595045.2044  118737841.94647  92522968.02146
        43.0004         40.0004
  23625745.2654                   23625738.7174  124154131.46146  96743455.65545
        39.0004         36.0004
  21813787.3584                   21813779.5304  114632265.70748  89323832.87347
        46.0004         43.0004
  22768669.3014                   22768661.7054  119650198.18748  93233908.25747
        46.0004         43.0004
  23898798.8764                   23898791.9524  125589046.62246  97861560.81944
        39.0004         35.0004
 03  8  4  0 35 30.0000000  0 10G24G16G31G13G27G 8G 3G 1G 2G10
  25024345.0914                                  131503821.40555
        36.0004
  23882164.3524                   23882156.7714  125501625.17245  97793445.15944
        38.0004         34.0004
  24312740.6094                                  127764318.23755
        36.0004
  20371244.0234                   20371234.4914  107051647.69549  83416845.95848
        49.0004         47.0004
  21055004.1514                   21054995.8754  110644847.79248  86216770.14948
        48.0004         46.0004
  22577717.9894                   22577710.4624  118646747.52047  92451985.39746
        42.0004         40.0004
  23614541.7214                   23614535.1154  124095256.50746  96697579.09345
        39.0004         36.0004
  21828134.7664                   21828126.9394  114707661.78548  89382583.05447
        46.0004         43.0004
  22780182.9894                   22780175.3794  119710702.84047  93281054.70047
        44.0004         42.0004
  23882912.5714                   23882905.6774  125505563.59145  97796509.11644
        38.0004         35.0004
 03  8  4  0 36  0.0000000  0 10G24G16G31G13G27G 8G 3G 1G 2G10
  25037016.0164                                  131570407.00645
        36.0004
  23900116.6604                   23900109.0824  125595964.75045  97866956.43444
        38.0004         35.0004
  24294068.8414                                  127666199.37245
        36.0004
  20376949.5064                   20376939.9594  107081630.14449  83440208.89748
        49.0004         47.0004
  21046450.0734                   21046441.7964  110599895.87048  86181742.69148
        48.0004         46.0004
  22560422.4914                   22560414.9494  118555859.31547  92381163.47746
        43.0004         41.0004
  23603419.1134                   23603412.5124  124036806.93246  96652034.01645
        39.0004         37.0004
  21842542.0784                   21842534.2514  114783372.53048  89441578.39947
        46.0004         43.0004
  22791761.2114                   22791753.6014  119771546.68148  93328465.45947
        46.0004         42.0004
  23867101.0174                   23867094.1514  125422473.56245  97731763.68845
        38.0004         36.0004
 03  8  4  0 36 30.0000000  0 10G24G16G31G13G27G 8G 3G 1G 2G10
  25049801.1334                                  131637593.68554
        35.0004
  23918177.9304                   23918170.3374  125690877.23945  97940914.19144
        38.0004         35.0004
  24275482.8044                                  127568528.71545
        37.0004
  20382800.3724                   20382790.8394  107112376.71648  83464167.27248
        48.0004         47.0004
  21038007.4804                   21037999.2044  110555529.74648  86147171.68448
        48.0004         46.0004
  22543223.8784                   22543216.3234  118465480.05447  92310738.10446
        43.0004         41.0004
  23592435.2994                   23592428.6314  123979086.66045  96607057.23645
        38.0004         36.0004
  21857066.4464                   21857058.6194  114859698.47648  89501053.13547
        46.0004         43.0004
  22803460.9994                   22803453.3904  119833029.47948  93376374.14147
        46.0004         42.0004
  23851422.1074                   23851415.2404  125340080.71246  97667561.54444
        39.0004         35.0004
 03  8  4  0 37  0.0000000  0 10G24G16G31G13G27G 8G 3G 1G 2G10
  25062555.2074                                  131704615.11145
        36.0004
  23936202.4604                   23936194.8674  125785596.15846  98014721.00444
        39.0004         35.0004
  24256837.2894                                  127470545.74845
        36.0004
  20388651.2594                   20388641.7134  107143123.21149  83488125.56048
        49.0004         47.0004
  21029531.0714                   21029522.7814  110510985.91749  86112462.21448
        49.0004         46.0004
  22525976.8824                   22525969.3274  118374846.85647  92240114.91346
        43.0004         41.0004
  23581445.3384                   23581438.6794  123921334.33945  96562055.46745
        38.0004         36.0004
  21871562.3764                   21871554.5344  114935874.97648  89560411.42147
        46.0004         43.0004
  22815136.7294                   22815129.1494  119894385.73348  93424184.16947
        45.0004         42.0004
  23835730.9564                   23835724.0474  125257623.96646  97603309.72944
        39.0004         35.0004
 03  8  4  0 37 30.0000000  0 10G24G16G31G13G27G 8G 3G 1G 2G10
  25075452.3444                                  131772389.58244
        35.0004
  23954364.9554                   23954357.3714  125881040.27645  98089092.98644
        38.0004         35.0004
  24238307.9954                                  127373174.83544
        35.0004
  20394677.3824                   20394667.8504  107174790.70249  83512801.52448
        49.0004         47.0004
  21021196.2034                   21021187.9274  110467185.95348  86078332.38048
        48.0004         46.0004
  22508857.1084                   22508849.5414  118284881.83647  92170012.31446
        44.0004         41.0004
  23570625.1684                   23570618.4874  123864473.89746  96517748.59345
        39.0004         36.0004
  21886204.9884                   21886197.1484  115012822.29748  89620370.35047
        47.0004         43.0004
  22826963.3234                   22826955.7404  119956534.84247  93472612.02247
        44.0004         43.0004
  23820203.5644                   23820196.7274  125176027.09645  97539727.76145
        38.0004         36.0004
 03  8  4  0 38  0.0000000  0  9G24G16G13G27G 8G 3G 1G 2G10
  25088345.3444                                  131840142.81745
        36.0004
  23972518.1044                   23972510.5544  125976435.40845  98163426.79744
        37.0004         34.0004
  20400731.9074                   20400722.3864  107206607.50548  83537593.83448
        48.0004         47.0004
  21012856.1624                   21012847.8734  110423358.73849  86044181.31448
        49.0004         46.0004
  22491717.8744                   22491710.2934  118194814.61347  92099830.08446
        44.0004         41.0004
  23559828.2824                   23559821.5304  123807736.25446  96473537.54345
        39.0004         36.0004
  21900847.2594                   21900839.4324  115089767.88748  89680327.92947
        46.0004         43.0004
  22838793.6184                   22838786.0644  120018703.33548  93521054.97047
        45.0004         43.0004
  23804693.4794                   23804686.6404  125094520.98746  97476216.48644
        39.0004         35.0004
 03  8  4  0 38 30.0000000  0 10G24G16G31G13G27G 8G 3G 1G 2G10
  25101292.6104                                  131908180.72244
        35.0004
  23990720.1024                   23990712.5534  126072087.36545  98237960.75144
        38.0004         35.0004
  24201219.3814                                  127178260.04255
        36.0004
  20406873.4934                   20406863.9854  107238881.75648  83562742.59648
        48.0004         47.0004
  21004569.6404                   21004561.3504  110379812.83548  86010249.45348
        48.0004         46.0004
  22474617.9874                   22474610.3924  118104954.35347  92029809.15946
        43.0004         41.0004
  23549113.9224                   23549107.1264  123751432.16245  96429664.28945
        38.0004         37.0004
  21915547.7254                   21915539.8974  115167019.29748  89740523.81547
        45.0004         43.0004
  22850685.9044                   22850678.3504  120081197.65448  93569751.83147
        46.0004         43.0004
  23789259.7634                   23789252.9244  125013416.57745  97413018.31444
        38.0004         35.0004
 03  8  4  0 39  0.0000000  0 10G24G16G31G13G27G 8G 3G 1G 2G10
  25114352.3134                                  131976811.86544
        34.0004
  24009029.7734                   24009022.2104  126168305.20845  98312935.67544
        38.0004         35.0004
  24182780.2714                                  127081358.80545
        37.0004
  20413161.3974                   20413151.8884  107271924.91649  83588490.50848
        49.0004         47.0004
  20996396.0314                   20996387.7434  110336860.23248  85976779.89748
        48.0004         46.0004
  22457616.9964                   22457609.3754  118015613.78947  91960193.21046
        44.0004         41.0004
  23538541.8684                   23538535.1034  123695875.70946  96386373.56045
        39.0004         37.0004
  21930365.5034                   21930357.6904  115244887.11948  89801200.01247
        46.0004         43.0004
  22862699.1534                   22862691.5874  120144327.64548  93618944.03047
        45.0004         43.0004
  23773962.2934                   23773955.4544  124933028.07846  97350377.97944
        39.0004         35.0004
 03  8  4  0 39 30.0000000  0 10G24G16G31G13G27G 8G 3G 1G 2G10
  25127378.1694                                  132045261.88344
        35.0004
  24027299.9004                   24027292.3514  126264315.12845  98387748.53444
        37.0004         35.0004
  24164283.5454                                  126984159.72945
        36.0004
  20419448.8204                   20419439.3264  107304965.48349  83614236.39148
        49.0004         47.0004
  20988188.5744                   20988180.2874  110293729.81648  85943171.80048
        48.0004         47.0004
  22440568.3614                   22440560.7394  117926022.67147  91890381.95946
        44.0004         40.0004
  23527965.8104                   23527959.0644  123640298.33346  96343066.57445
        39.0004         37.0004
  21945153.6094                   21945145.7964  115322598.89148  89861754.58547
        46.0004         43.0004
  22874686.2024                   22874678.6624  120207319.95048  93668028.91047
        45.0004         43.0004
  23758654.7454                   23758647.9214  124852586.56046  97287696.31644
        39.0004         35.0004
 03  8  4  0 40  0.0000000  0 10G24G16G31G13G27G 8G 3G 1G 2G10
  25140544.6524                                  132114451.46844
        35.0004
  24045705.7224                   24045698.1364  126361038.05945  98463116.96344
        37.0004         34.0004
  24145906.4714                                  126887589.80345
        36.0004
  20425911.4554                   20425901.9594  107338926.86249  83640699.79248
        49.0004         47.0004
  20980123.1414                   20980114.8664  110251345.67848  85910145.18748
        48.0004         46.0004
  22423647.9254                   22423640.3024  117837105.36947  91821095.78546
        44.0004         41.0004
  23517562.0144                   23517555.2744  123585625.89446  96300464.66644
        40.0004         35.0004
  21960087.5434                   21960079.7444  115401077.24348  89922906.54447
        46.0004         42.0004
  22886822.4864                   22886814.9604  120271096.36648  93717724.77247
        45.0004         42.0004
  23743513.3584                   23743506.4894  124773018.28346  97225695.11945
        39.0004         36.0004
 03  8  4  0 40 30.0000000  0 10G24G16G31G13G27G 8G 3G 1G 2G10
  25153703.9664                                  132183603.69444
        35.0004
  24064099.2854                   24064091.7194  126457696.51445  98538435.17244
        37.0004         34.0004
  24127502.8384                                  126790877.42945
        37.0004
  20432401.8154                   20432392.3474  107373033.93548  83667276.72148
        48.0004         47.0004
  20972052.2774                   20972043.9884  110208933.06548  85877096.41548
        48.0004         46.0004
  22406708.4774                   22406700.8284  117748088.15648  91751731.78346
        45.0004         41.0004
  23507183.3834                   23507176.6564  123531085.88046  96257965.96245
        39.0004         36.0004
  21975019.7804                   21975011.9954  115479546.43048  89984051.30447
        46.0004         43.0004
  22898960.1584                   22898952.6454  120334880.20048  93767426.43547
        45.0004         42.0004
  23728391.0994                   23728384.1904  124693550.83946  97163772.58345
        39.0004         36.0004
 03  8  4  0 41  0.0000000  0 10G24G16G31G13G27G 8G 3G 1G 2G10
  25166943.9604                                  132253179.64744
        35.0004
  24082568.5344                   24082560.9974  126554752.56845  98614063.15444
        36.0004         34.0004
  24109161.2444                                  126694496.39255
        37.0004
  20439008.2834                   20438998.8164  107407751.15849  83694329.10448
        49.0004         47.0004
  20964064.5194                   20964056.2444  110166957.17349  85844387.93848
        49.0004         46.0004
  22389838.6064                   22389830.9154  117659436.51147  91682652.62546
        44.0004         41.0004
  23496918.7694                   23496912.0414  123477145.28446  96215934.39245
        39.0004         36.0004
  21990038.4524                   21990030.6534  115558469.95848  90045550.13247
        45.0004         43.0004
  22911187.3114                   22911179.7864  120399134.32248  93817494.59647
        46.0004         42.0004
  23713376.9854                   23713370.0784  124614651.38746  97102292.55545
        39.0004         36.0004
 03  8  4  0 41 30.0000000  0 10G24G16G31G13G27G 8G 3G 1G 2G10
  25180205.5734                                  132322869.82844
        35.0004
  24101054.2334                                  126651894.51055
        37.0004
  24090823.1774                                  126598130.88945
        36.0004
  20445672.3504                   20445662.8814  107442771.06749  83721617.33648
        49.0004         47.0004
  20956101.4274                   20956093.1414  110125110.78149  85811780.36148
        49.0004         46.0004
  22372980.0774                   22372972.3724  117570844.34347  91613619.76946
        44.0004         41.0004
  23486710.3074                   23486703.5924  123423499.64146  96174132.62445
        39.0004         36.0004
  22005084.9904                   22005077.2044  115637539.98448  90107163.11947
        45.0004         43.0004
  22923445.1934                   22923437.6794  120463549.86248  93867688.49547
        45.0004         42.0004
  23698413.0644                   23698406.1294  124536015.57446  97041017.93745
        39.0004         36.0004
 03  8  4  0 42  0.0000000  0 10G24G16G31G13G27G 8G 3G 1G 2G10
  25193547.2624                                  132392980.75645
        36.0004
  24119615.5074                                  126749433.16445
        37.0004
  24072548.7864                                  126502099.49945
        36.0004
  20452452.7974                   20452443.3394  107478402.55349  83749382.11848
        49.0004         47.0004
  20948221.9694                   20948213.6964  110083704.01549  85779515.35348
        49.0004         46.0004
  22356191.9064                   22356184.1884  117482622.15847  91544875.27446
        44.0004         41.0004
  23476617.2304                   23476610.4964  123370460.34946  96132803.33545
        39.0004         37.0004
  22020218.0884                   22020210.3014  115717064.76448  90169130.43347
        45.0004         42.0004
  22935792.3014                   22935784.8154  120528434.22748  93918247.70447
        45.0004         42.0004
  23683558.5804                   23683551.6914  124457954.86146  96980191.43545
        39.0004         36.0004
 03  8  4  0 42 30.0000000  0 10G24G16G31G13G27G 8G 3G 1G 2G10
  25206939.3174                                  132463356.60244
        35.0004
  24138222.2574                                  126847211.48545
        37.0004
  24054310.0074                                  126406253.06945
        37.0004
  20459320.6534                   20459311.1964  107514493.31949  83777504.78148
        49.0004         47.0004
  20940397.1354                   20940388.8484  110042584.23549  85747473.96948
        49.0004         46.0004
  22339445.3274                   22339437.5954  117394618.29248  91476300.83947
        45.0004         42.0004
  23466611.0074                   23466604.2644  123317877.23146  96091829.48745
        40.0004         37.0004
  22035408.4924                   22035400.7184  115796890.81348  90231332.52747
        45.0004         42.0004
  22948199.2264                   22948191.7654  120593632.99548  93969051.90147
        45.0004         42.0004
  23668785.0334                   23668778.1614  124380319.47346  96919696.35945
        39.0004         36.0004
 03  8  4  0 43  0.0000000  0 10G24G16G31G13G27G 8G 3G 1G 2G10
  25220322.2854                                  132533683.82344
        35.0004
  24156814.9014                                  126944915.79945
        37.0004
  24036047.4724                                  126310283.55145
        36.0004
  20466216.5304                   20466207.0874  107550731.39949  83805742.24148
        49.0004         47.0004
  20932567.7884                   20932559.5014  110001440.73949  85715414.10348
        49.0004         46.0004
  22322681.2364                   22322673.4894  117306522.58947  91407654.87946
        44.0004         41.0004
  23456632.7504                   23456626.0524  123265441.44846  96050970.50345
        40.0004         37.0004
  22050596.7884                   22050589.0154  115876705.78748  90293526.00147
        45.0004         43.0004
  22960606.4194                   22960598.9594  120658833.11248  94019857.16347
        45.0004         42.0004
  23654033.6834                   23654026.7974  124302800.72946  96859292.17745
        39.0004         36.0004
 03  8  4  0 43 30.0000000  0 10G24G16G31G13G27G 8G 3G 1G 2G10
  25233842.0984                                  132604730.98345
        36.0004
  24175539.8544                                  127043314.90245
        37.0004
  24017909.2034                                  126214965.93145
        36.0004
  20473287.2784                   20473277.8344  107587888.36649  83834695.70448
        49.0004         47.0004
  20924880.8174                   20924872.5154  109961045.42949  85683937.24448
        49.0004         46.0004
  22306046.6994                   22306038.9404  117219107.62748  91339539.36747
        45.0004         42.0004
  23446829.8454                   23446823.1654  123213926.96246  96010829.38145
        40.0004         37.0004
  22065929.6434                   22065921.8704  115957280.29748  90356311.29347
        45.0004         42.0004
  22973160.3504                   22973152.9184  120724804.40248  94071263.33847
        45.0004         42.0004
  23639451.7374                   23639444.8494  124226172.46146  96799581.91445
        39.0004         36.0004
 03  8  4  0 44  0.0000000  0  9G24G31G13G27G 8G 3G 1G 2G10
  25247321.9124                                  132675568.32344
        35.0004
  23999718.7914                                  126119376.79444
        35.0004
  20480356.4594                   20480347.0284  107625037.22849  83863642.87048
        49.0004         47.0004
  20917159.9474                   20917151.6464  109920471.98649  85652321.57548
        49.0004         47.0004
  22289365.5244                   22289357.7644  117131447.65047  91271232.92747
        44.0004         42.0004
  23437026.4634                   23437019.7724  123162409.77846  95970686.12345
        39.0004         37.0004
  22081230.4504                   22081222.6894  116037686.45248  90418965.40247
        45.0004         42.0004
  22985684.3694                   22985676.9524  120790618.37848  94122546.91347
        45.0004         42.0004
  23624863.4324                   23624856.5454  124149510.58846  96739845.43445
        39.0004         36.0004
 03  8  4  0 44 30.0000000  0 10G24G16G31G13G27G 8G 3G 1G 2G10
  25260937.5024                                  132747119.60744
        35.0004
  24213031.2464                                  127240336.12455
        36.0004
  23981654.1314                                  126024445.86745
        37.0004
  20487600.3324                   20487590.9004  107663103.97349  83893305.25348
        49.0004         47.0004
  20909581.4824                   20909573.1814  109880646.94648  85621289.08948
        48.0004         46.0004
  22272814.2304                   22272806.4574  117044470.07848  91203458.21847
        45.0004         42.0004
  23427399.2684                   23427392.5644  123111818.40046  95931264.25545
        40.0004         37.0004
  22096675.3334                   22096667.5734  116118849.73548  90482209.49447
        45.0004         42.0004
  22998354.3434                   22998346.9254  120857199.54147  94174428.33547
        44.0004         42.0004
  23610445.5214                   23610438.5884  124073744.14146  96680806.68745
        39.0004         36.0004
 03  8  4  0 45  0.0000000  0 10G24G16G31G13G27G 8G 3G 1G 2G10
  25274513.2214                                  132818459.23844
        35.0004
  24231797.7324                                  127338954.92345
        37.0004
  23963539.2934                   23963533.7724  125929253.49945  98126678.06354
        37.0004         34.0004
  20494843.2114                   20494833.7814  107701165.49649  83922963.57848
        49.0004         47.0004
  20901969.9034                   20901961.6004  109840647.89249  85590121.00248
        49.0004         46.0004
  22256217.3824                   22256209.5844  116957253.05148  91135496.92447
        46.0004         42.0004
  23417772.9774                   23417766.2604  123061232.08746  95891846.39745
        40.0004         37.0004
  22112088.5114                   22112080.7654  116199846.47248  90545323.81447
        45.0004         42.0004
  23010994.3474                   23010986.9264  120923623.08348  94226186.90347
        45.0004         42.0004
  23596022.8044                   23596015.8734  123997952.62646  96621748.45445
        40.0004         36.0004
 03  8  4  0 45 30.0000000  0 10G24G16G31G13G27G 8G 3G 1G 2G10
  25288223.6834                                  132890507.70444
        35.0004
  24250694.7824                                  127438258.83945
        37.0004
  23945551.4624                                  125834726.55845
        36.0004
  20502260.7584                   20502251.3404  107740145.03149  83953337.24148
        50.0004         47.0004
  20894501.0394                   20894492.7364  109801398.74449  85559537.25348
        49.0004         46.0004
  22239750.8634                   22239743.0534  116870721.03348  91068069.41747
        45.0004         42.0004
  23408323.8684                   23408317.1584  123011576.75146  95853153.96745
        39.0004         37.0004
  22127645.5394                   22127637.7794  116281599.01648  90609027.06047
        46.0004         42.0004
  23023779.7504                   23023772.3174  120990810.70748  94278540.87746
        45.0004         41.0004
  23581771.5634                   23581764.6304  123923062.03946  96563392.18245
        40.0004         36.0004
 03  8  4  0 46  0.0000000  0 10G24G16G31G13G27G 8G 3G 1G 2G10
  25301892.3404                                  132962337.35644
        34.0004
  24269545.6204                                  127537320.16545
        37.0004
  23927514.4324                                  125739943.26345
        36.0004
  20509676.9564                   20509667.5394  107779117.29249  83983705.21248
        49.0004         47.0004
  20886998.8944                   20886990.5924  109761974.70948  85528817.22648
        48.0004         46.0004
  22223238.8594                   22223231.0504  116783949.99148  91000455.65147
        45.0004         42.0004
  23398876.3254                   23398869.6434  122961929.51146  95814467.78445
        39.0004         37.0004
  22143170.1674                   22143162.4224  116363181.30348  90672597.62847
        45.0004         42.0004
  23036534.1364                   23036526.7184  121057835.39647  94330767.89146
        44.0004         41.0004
  23567516.1784                   23567509.2174  123848149.73246  96505019.02645
        39.0004         37.0004
 03  8  4  0 46 30.0000000  0  9G24G31G13G27G 8G 3G 1G 2G10
  25315695.5174                                  133034872.04244
        34.0004
  23909606.1584                                  125645833.96245
        38.0004
  20517268.0284                   20517258.6104  107819008.64149  84014789.38048
        49.0004         47.0004
  20879639.8834                   20879631.5674  109723302.84549  85498683.31348
        49.0004         46.0004
  22206858.0004                   22206850.1934  116697868.05948  90933378.84447
        45.0004         42.0004
  23389607.0474                   23389600.3884  122913219.75346  95776512.23645
        39.0004         37.0004
  22158838.5814                   22158830.8484  116445519.24948  90736757.02947
        45.0004         42.0004
  23049433.6034                   23049426.1734  121125622.42948  94383588.94347
        45.0004         42.0004
  23553433.4754                   23553426.4964  123774144.94246  96447353.01445
        40.0004         36.0004
 03  8  4  0 47  0.0000000  0 10G24G16G31G13G27G 8G 3G 1G 2G10
  25329455.1414                                  133107179.10244
        35.0004
  24307459.3164                                  127736554.73055
        36.0004
  23891649.8674                                  125551472.08045
        37.0004
  20524857.0154                   20524847.6114  107858889.03749  84045865.00848
        49.0004         47.0004
  20872247.1444                   20872238.8264  109684453.80249  85468411.33648
        49.0004         46.0004
  22190431.4524                   22190423.6304  116611546.15648  90866115.06247
        45.0004         42.0004
  23380339.8154                   23380333.1654  122864519.99646  95738564.32145
        39.0004         37.0004
  22174473.6624                   22174465.9444  116527681.96647  90800779.88247
        44.0004         42.0004
  23062300.8554                   23062293.4104  121193240.04148  94436277.94047
        45.0004         42.0004
  23539347.0204                   23539340.0294  123700120.37146  96389671.59545
        40.0004         37.0004
 03  8  4  0 47 30.0000000  0 11G24G16G31G13G27G 8G 3G 1G 2G22G10
  25343347.3884                                  133180183.03944
        33.0004
  24326520.5664                                  127836722.40345
        36.0004
  23873822.6584                                  125457788.21444
        35.0004
  20532620.3364                   20532610.9334  107899685.50249  84077654.45148
        49.0004         47.0004
  20864997.2264                   20864988.9084  109646355.28749  85438724.19448
        49.0004         47.0004
  22174135.9454                   22174128.1084  116525912.75348  90799387.74847
        46.0004         42.0004
  23371251.3084                   23371244.6304  122816759.69546  95701348.53945
        40.0004         37.0004
  22190251.6364                   22190243.9174  116610595.71648  90865387.97947
        45.0004         42.0004
  23075311.9534                   23075304.5224  121261613.69847  94489556.07946
        44.0004         41.0004
  22174136.3644                                  116525874.70255
        36.0004
  23525433.7614                   23525426.7864  123627005.76846  96332699.19345
        40.0004         37.0004
 03  8  4  0 48  0.0000000  0 11G24G16G31G13G27G 8G 3G 1G 2G22G10
  25357195.3734                                  133252955.00744
        33.0004
  24345533.2854                                  127936635.91545
        37.0004
  23855948.5384                                  125363859.51845
        37.0004
  20540381.6394                   20540372.2484  107940471.42449  84109435.67748
        49.0004         46.0004
  20857713.9454                   20857705.6274  109608081.38648  85408900.37648
        48.0004         46.0004
  22157795.3924                   22157787.5294  116440042.75448  90732476.12147
        45.0004         42.0004
  23362165.6914                   23362158.9694  122769014.76746  95664144.77745
        39.0004         37.0004
  22205996.0964                   22205988.4034  116693333.28948  90929858.76947
        45.0004         42.0004
  23088290.3044                   23088282.8864  121329815.39447  94542700.24746
        44.0004         41.0004
  22157795.8094                                  116440004.75645
        36.0004
  23511517.8644                   23511510.8734  123553877.42046  96275716.10545
        40.0004         37.0004
 03  8  4  0 48 30.0000000  0 10G16G31G13G27G 8G 3G 1G 2G22G10
  24364673.7634                                  128037219.30345
        36.0004
  23838204.6074                                  125270615.65345
        37.0004
  20548317.0874                   20548307.7104  107982172.48949  84141930.00348
        49.0004         47.0004
  20850573.6054                   20850565.2744  109570558.64948  85379661.88748
        48.0004         47.0004
  22141586.2614                   22141578.4124  116354863.31848  90666102.55947
        46.0004         42.0004
  23353259.7824                   23353253.0454  122722213.96146  95627676.63045
        40.0004         37.0004
  22221883.0644                   22221875.3954  116776819.86648  90994913.22247
        45.0004         42.0004
  23101411.8544                   23101404.4344  121398769.47848  94596430.66946
        45.0004         41.0004
  22141586.7624                                  116354825.32645
        37.0004
  23497776.0744                   23497769.0684  123481664.01446  96219445.96245
        39.0004         36.0004
 03  8  4  0 49  0.0000000  0 10G16G31G13G27G 8G 3G 1G 2G22G10
  24383765.3184                                  128137548.85255
        36.0004
  23820416.1404                                  125177137.06445
        37.0004
  20556251.0874                   20556241.7244  108023865.87749  84174418.33948
        49.0004         47.0004
  20843400.6684                   20843392.3374  109532864.60649  85350289.91148
        49.0004         46.0004
  22125333.1064                   22125325.2434  116269452.53948  90599548.73847
        46.0004         42.0004
  23344358.3664                   23344351.6224  122675436.51546  95591226.66445
        39.0004         37.0004
  22237736.7504                   22237729.1094  116860131.54948  91059831.40647
        45.0004         42.0004
  23114500.6464                   23114493.2294  121467551.42147  94650026.97046
        44.0004         41.0004
  22125333.5814                                  116269414.53645
        36.0004
  23484033.1954                   23484026.2194  123409445.07346  96163171.54245
        40.0004         36.0004
 03  8  4  0 49 30.0000000  0 10G16G31G13G27G 8G 3G 1G 2G22G10
  24402983.3564                                  128238541.38545
        36.0004
  23802759.3684                                  125084350.16845
        37.0004
  20564359.1704                   20564349.8084  108066474.14149  84207619.58948
        50.0004         47.0004
  20836370.7754                   20836362.4434  109495922.33449  85321503.73348
        49.0004         46.0004
  22109211.8114                   22109203.9214  116184734.68848  90533534.87147
        45.0004         43.0004
  23335637.4444                   23335630.6734  122629607.63646  95555515.83745
        41.0004         37.0004
  22253732.6584                   22253725.0444  116944190.42747  91125331.77347
        44.0004         42.0004
  23127731.9804                   23127724.5644  121537082.42647  94704206.95046
        44.0004         41.0004
  22109212.2184                                  116184696.70245
        36.0004
  23470465.4494                   23470458.4584  123338146.15146  96107613.95445
        39.0004         36.0004
 03  8  4  0 50  0.0000000  0 10G16G31G13G27G 8G 3G 1G 2G22G10
  24422151.3854                                  128339269.55844
        35.0004
  23785057.6754                   23785051.3744  124991331.38945  97395810.29354
        36.0004         34.0004
  20572464.8614                   20572455.5094  108109069.83349  84240811.01648
        49.0004         47.0004
  20829307.8024                   20829299.4714  109458806.22548  85292582.10548
        48.0004         46.0004
  22093046.1914                   22093038.3004  116099783.90648  90467339.47847
        46.0004         42.0004
  23326920.9964                   23326914.1994  122583802.58446  95519823.64645
        40.0004         37.0004
  22269694.1494                   22269686.5474  117028068.56347  91190691.33447
        44.0004         42.0004
  23140929.1104                   23140921.7064  121606433.68447  94758246.85446
        44.0004         41.0004
  22093046.5544                                  116099745.87645
        36.0004
  23456896.8404                   23456889.8074  123266842.93746  96052053.09645
        39.0004         36.0004
 03  8  4  0 50 30.0000000  0 10G16G31G13G27G 8G 3G 1G 2G22G10
  24441444.5154                                  128440655.83045
        36.0004
  23767489.6954                   23767482.9384  124899009.03145  97323870.85844
        37.0004         34.0004
  20580744.1014                   20580734.7484  108152577.53449  84274713.11848
        49.0004         47.0004
  20822387.6374                   20822379.3064  109422440.51049  85264245.18848
        49.0004         46.0004
  22077012.4364                   22077004.5304  116015526.01548  90401683.99647
        46.0004         43.0004
  23318385.4754                   23318378.6784  122538948.30346  95484872.30245
        40.0004         37.0004
  22285797.0404                   22285789.4664  117112689.70547  91256629.84447
        44.0004         42.0004
  23154267.7114                   23154260.2794  121676528.44847  94812866.14446
        44.0004         41.0004
  22077012.7664                                  116015488.00145
        36.0004
  23443503.8724                   23443496.8224  123196462.60346  95997211.31045
        39.0004         36.0004
 03  8  4  0 51  0.0000000  0 10G16G31G13G27G 8G 3G 1G 2G22G10
  24460687.2264                                  128541775.64844
        35.0004
  23749879.1974                   23749872.6384  124806464.42845  97251758.18644
        38.0004         34.0004
  20589021.3814                   20589012.0294  108196074.87249  84308607.13748
        49.0004         46.0004
  20815434.9824                   20815426.6654  109385904.12349  85235775.28248
        49.0004         47.0004
  22060935.2814                   22060927.3634  115931040.18248  90335850.93447
        46.0004         42.0004
  23309855.9834                   23309849.1724  122494125.20646  95449945.15045
        41.0004         37.0004
  22301865.6974                   22301858.1354  117197131.00547  91322428.23247
        44.0004         42.0004
  23167572.0364                   23167564.6054  121746442.89347  94867344.88446
        44.0004         41.0004
  22060935.6174                                  115931002.19845
        36.0004
  23430111.5244                   23430104.4324  123126085.46446  95942372.02545
        40.0004         37.0004
 03  8  4  0 51 30.0000000  0 10G16G31G13G27G 8G 3G 1G 2G22G10
  24480054.0474                                  128643549.66345
        36.0004
  23732402.6704                   23732395.8444  124714623.97245  97180194.26444
        37.0004         35.0004
  20597472.2334                   20597462.8954  108240484.39749  84343211.95548
        50.0004         47.0004
  20808625.5084                   20808617.1774  109350120.16049  85207891.69548
        49.0004         46.0004
  22044990.5804                   22044982.6464  115847250.33748  90270560.17247
        46.0004         43.0004
  23301508.3734                   23301501.5324  122450258.41046  95415763.27245
        40.0004         37.0004
  22318075.5434                   22318067.9954  117282314.13148  91388804.65047
        45.0004         42.0004
  23181017.2564                   23181009.8404  121817097.94247  94922400.74946
        44.0004         41.0004
  22044990.9294                                  115847212.36345
        37.0004
  23416895.8784                   23416888.7864  123056636.90346  95888256.29045
        40.0004         37.0004
 03  8  4  0 52  0.0000000  0  9G31G13G27G 8G 3G 1G 2G22G10
  23714914.0194                   23714907.3354  124622721.49245  97108582.05644
        37.0004         35.0004
  20605950.2104                   20605940.8724  108285036.40649  84377927.79448
        49.0004         46.0004
  20801812.8824                   20801804.5514  109314319.62949  85179995.18948
        49.0004         47.0004
  22029032.1234                   22029024.1894  115763388.14548  90205213.02047
        46.0004         42.0004
  23293196.7344                   23293189.8944  122406580.51246  95381728.56745
        40.0004         37.0004
  22334279.9884                   22334272.4534  117367468.87648  91455158.94846
        45.0004         41.0004
  23194456.6654                   23194449.2334  121887722.44647  94977432.81946
        44.0004         41.0004
  22029032.5164                                  115763350.14945
        36.0004
  23403711.0004                   23403703.8774  122987350.02646  95834266.54245
        40.0004         37.0004
 03  8  4  0 52 30.0000000  0 10G16G31G13G27G 8G 3G 1G 2G22G10
  24518807.7614                                  128847207.99355
        36.0004
  23697501.6254                   23697494.8794  124531218.99145  97037281.51944
        37.0004         34.0004
  20614542.4214                   20614533.0964  108330188.77848  84413111.45248
        48.0004         47.0004
  20795084.4434                   20795076.0984  109278961.44649  85152443.36348
        49.0004         47.0004
  22013147.3084                   22013139.3754  115679913.06848  90140167.54847
        46.0004         42.0004
  23285008.7264                   23285001.8774  122363552.17946  95348200.00645
        41.0004         37.0004
  22350566.0514                   22350558.5314  117453052.65347  91521847.58946
        44.0004         41.0004
  23207977.2144                   23207969.7944  121958773.22847  95032797.00446
        44.0004         40.0004
  22013147.7474                                  115679875.06145
        37.0004
  23390644.5084                   23390637.3434  122918685.58346  95780761.89645
        40.0004         37.0004
 03  8  4  0 53  0.0000000  0 10G16G31G13G27G 8G 3G 1G 2G22G10
  24538222.8154                                  128949233.66745
        36.0004
  23680107.9034                   23680101.1084  124439814.17945  96966056.93744
        38.0004         35.0004
  20623190.6974                   20623181.3684  108375635.77349  84448524.68148
        49.0004         47.0004
  20788382.0984                   20788373.7674  109243740.44749  85124998.43848
        49.0004         47.0004
  21997278.2304                   21997270.2964  115596520.62348  90075186.44947
        46.0004         43.0004
  23276886.5914                   23276879.7054  122320870.07146  95314941.25845
        40.0004         37.0004
  22366875.4694                   22366867.9634  117538759.03347  91588631.73846
        44.0004         41.0004
  23221520.3734                   23221512.9524  122029942.94647  95088253.91146
        44.0004         41.0004
  21997278.6074                                  115596482.60545
        37.0004
  23377638.8504                   23377631.6844  122850340.45146  95727505.95845
        40.0004         37.0004
 03  8  4  0 53 30.0000000  0 10G16G31G13G27G 8G 3G 1G 2G22G10
  24557702.0014                                  129051597.41944
        35.0004
  23662792.3054                   23662785.4414  124348820.59645  96895152.98544
        36.0004         34.0004
  20631953.9524                   20631944.6384  108421686.99249  84484408.74348
        49.0004         47.0004
  20781764.8824                   20781756.5504  109208966.74249  85097902.04348
        49.0004         47.0004
  21981484.1054                   21981476.1864  115513522.12648  90010512.33247
        46.0004         43.0004
  23268889.7504                   23268882.8224  122278846.38946  95282195.54545
        39.0004         37.0004
  22383266.9574                   22383259.4524  117624896.76447  91655752.01746
        44.0004         41.0004
  23235144.7874                   23235137.3664  122101539.72147  95144043.60646
        44.0004         41.0004
  21981484.5094                                  115513484.12245
        36.0004
  23364753.3504                   23364746.1724  122782626.94246  95674742.25045
        39.0004         37.0004
 03  8  4  0 54  0.0000000  0 10G16G31G13G27G 8G 3G 1G 2G22G10
  24577185.4124                                  129153982.55645
        37.0004
  23645495.7554                   23645488.9054  124257927.05345  96824326.87445
        37.0004         36.0004
  20640772.2224                   20640762.9084  108468027.24949  84520518.02148
        49.0004         47.0004
  20775173.0734                   20775164.7394  109174326.61249  85070909.74148
        49.0004         47.0004
  21965705.2564                   21965697.3374  115430603.83748  89945900.70847
        47.0004         43.0004
  23260958.6104                   23260951.6374  122237168.40446  95249719.29545
        40.0004         37.0004
  22399680.4834                   22399672.9774  117711150.23647  91722962.47446
        44.0004         41.0004
  23248790.3004                   23248782.8934  122173247.19147  95199919.50846
        44.0004         41.0004
  21965705.4914                                  115430565.82245
        37.0004
  23351928.6534                   23351921.4334  122715232.95446  95622227.52545
        40.0004         37.0004
 03  8  4  0 54 30.0000000  0 10G16G31G13G27G 8G 3G 1G 2G22G10
  24596702.8394                                  129256545.76445
        36.0004
  23628249.2404                   23628242.4324  124167296.19145  96753705.45144
        38.0004         35.0004
  20649675.7354                   20649666.4214  108514815.46649  84556976.35648
        49.0004         47.0004
  20768637.0194                   20768628.6864  109139979.48349  85044145.75648
        49.0004         47.0004
  21949972.2084                   21949964.2754  115347926.17748  89881476.57747
        46.0004         43.0004
  23253124.0554                   23253117.1104  122195997.54146  95217638.09045
        41.0004         37.0004
  22416146.1244                   22416138.6214  117797677.51547  91790386.28346
        44.0004         41.0004
  23262486.8344                   23262479.4234  122245222.96147  95256004.51046
        43.0004         40.0004
  21949972.5304                                  115347888.18045
        37.0004
  23339195.5724                   23339188.3524  122648320.03746  95570087.56445
        41.0004         37.0004
 03  8  4  0 55  0.0000000  0 10G16G31G13G27G 8G 3G 1G 2G22G10
  24616281.9524                                  129359435.32445
        36.0004
  23611082.0074                   23611075.0794  124077081.77246  96683408.57344
        39.0004         35.0004
  20658692.9684                   20658683.6814  108562201.40549  84593900.46648
        49.0004         47.0004
  20762185.4074                   20762177.0604  109106076.03249  85017727.49048
        49.0004         46.0004
  21934313.7904                   21934305.8434  115265640.63248  89817357.97847
        46.0004         43.0004
  23245414.9914                   23245408.0054  122155486.44646  95186071.09545
        41.0004         37.0004
  22432692.2494                   22432684.7584  117884627.92647  91858139.82346
        44.0004         41.0004
  23276262.7384                   23276255.3294  122317615.76647  95312414.48046
        44.0004         40.0004
  21934314.1694                                  115265602.62345
        36.0004
  23326583.0384                   23326575.8064  122582041.09946  95518441.73345
        40.0004         37.0004
 03  8  4  0 55 30.0000000  0 10G16G31G13G27G 8G 3G 1G 2G22G10
  24635864.9784                                  129462344.75845
        36.0004
  23593936.7414                   23593929.7604  123986983.10545  96613201.92245
        38.0004         36.0004
  20667766.0804                   20667756.7924  108609880.86848  84631053.27948
        48.0004         46.0004
  20755760.4794                   20755752.1454  109072312.87049  84991418.53848
        49.0004         46.0004
  21918672.3334                   21918664.3994  115183444.34448  89753308.94047
        46.0004         43.0004
  23237774.0144                   23237766.9884  122115332.71947  95154782.47045
        42.0004         38.0004
  22449260.8654                   22449253.3754  117971696.40347  91925985.35246
        44.0004         41.0004
  23290059.7774                   23290052.4054  122390119.63347  95368910.95246
        44.0004         40.0004
  21918672.6154                                  115183406.32945
        37.0004
  23314033.7534                   23314026.4784  122516094.28746  95467054.64545
        41.0004         37.0004
 03  8  4  0 56  0.0000000  0 10G16G31G13G27G 8G 3G 1G 2G22G10
  24655510.0244                                  129565578.48445
        36.0004
  23576872.6204                   23576865.5544  123897310.60445  96543327.28744
        38.0004         34.0004
  20676953.3124                   20676944.0404  108658159.97549  84668673.33448
        49.0004         46.0004
  20749420.6834                   20749412.3354  109038997.01449  84965458.13748
        49.0004         47.0004
  21903106.4794                   21903098.5464  115101645.29748  89689569.43747
        47.0004         43.0004
  23230259.7954                   23230252.7564  122075845.47846  95124013.26045
        40.0004         37.0004
  22465910.1674                   22465902.7034  118059188.88847  91994161.25546
        43.0004         41.0004
  23303936.0204                   23303928.6504  122463039.65247  95425731.73046
        44.0004         40.0004
  21903106.7394                                  115101607.28845
        37.0004
  23301606.5034                   23301599.2204  122450788.83746  95416167.35345
        41.0004         38.0004
 03  8  4  0 56 30.0000000  0 10G16G31G13G27G 8G 3G 1G 2G22G10
  24675157.3124                                  129668826.67744
        35.0004
  23559831.6094                   23559824.5484  123807759.92645  96473547.59245
        38.0004         36.0004
  20686196.0544                   20686186.7824  108706730.91349  84706520.81548
        49.0004         46.0004
  20743107.5874                   20743099.2404  109005821.47449  84939607.06948
        49.0004         47.0004
  21887557.8594                   21887549.8994  115019936.80848  89625900.51647
        46.0004         43.0004
  23222814.3894                   23222807.3134  122036719.35846  95093525.35145
        41.0004         38.0004
  22482581.4154                   22482573.9774  118146796.82347  92062427.14546
        44.0004         41.0004
  23317832.6254                   23317825.2654  122536066.55547  95482635.73246
        44.0004         40.0004
  21887558.2374                                  115019898.79545
        37.0004
  23289243.2744                   23289236.0074  122385819.62746  95365541.99845
        41.0004         38.0004
 03  8  4  0 57  0.0000000  0 10G16G31G13G27G 8G 3G 1G 2G22G10
  24694865.7604                                  129772395.27344
        35.0004
  23542873.1384                   23542866.0784  123718642.81145  96404105.73944
        38.0004         35.0004
  20695552.9054                   20695543.6454  108755901.49549  84744835.54548
        49.0004         47.0004
  20736879.8894                   20736871.5294  108973094.70149  84914105.69648
        49.0004         47.0004
  21872085.3264                   21872077.3804  114938628.22148  89562543.20047
        46.0004         43.0004
  23215496.6074                   23215489.5444  121998264.28046  95063560.37545
        40.0004         37.0004
  22499333.0374                   22499325.5984  118234827.12747  92131022.17346
        43.0004         41.0004
  23331807.8194                   23331800.4584  122609506.57147  95539861.68746
        44.0004         40.0004
  21872085.7114                                  114938590.24345
        37.0004
  23277003.0614                   23276995.7834  122321497.00146  95315420.51645
        41.0004         37.0004
 03  8  4  0 57 30.0000000  0 10G16G31G13G27G 8G 3G 1G 2G22G10
  24714575.9774                                  129875972.16045
        36.0004
  23525938.8854                   23525931.7394  123629652.70945  96334762.82945
        38.0004         36.0004
  20704964.7854                   20704955.5374  108805361.25649  84783375.60748
        49.0004         46.0004
  20730678.7014                   20730670.3424  108940507.23848  84888712.87248
        48.0004         46.0004
  21856630.1714                   21856622.2144  114857410.83748  89499256.94047
        47.0004         43.0004
  23208247.9354                   23208240.8564  121960172.49846  95033878.52045
        41.0004         38.0004
  22516105.9264                   22516098.5124  118322969.06747  92199704.13646
        43.0004         41.0004
  23345802.3464                   23345795.0024  122683048.12147  95597166.75546
        43.0004         40.0004
  21856630.6934                                  114857372.82845
        37.0004
  23264827.3784                   23264820.0684  122257513.48046  95265563.24845
        41.0004         37.0004
 03  8  4  0 58  0.0000000  0 10G16G31G13G27G 8G 3G 1G 2G22G10
  24734344.9744                                  129979859.06745
        36.0004
  23509087.2354                   23509080.0634  123541097.13045  96265758.59645
        38.0004         36.0004
  20714489.4014                   20714480.1794  108855413.51549  84822377.36048
        49.0004         47.0004
  20724561.9854                   20724553.6124  108908363.67749  84863665.94748
        49.0004         47.0004
  21841250.4164                   21841242.4444  114776589.67748  89436279.41547
        46.0004         43.0004
  23201126.5944                   23201119.4974  121922749.91246  95004718.12045
        41.0004         38.0004
  22532957.6864                   22532950.2994  118411525.60447  92268709.20146
        43.0004         41.0004
  23359873.7024                   23359866.3724  122756993.53147  95654786.53846
        43.0004         40.0004
  21841250.8554                                  114776551.66845
        37.0004
  23252774.4984                   23252767.1874  122194175.35346  95216208.90345
        40.0004         37.0004
 03  8  4  0 58 30.0000000  0 10G16G31G13G27G 8G 3G 1G 2G22G10
  24754114.1914                                  130083746.31845
        36.0004
  23492260.5144                   23492253.3144  123452672.11245  96196855.99645
        38.0004         36.0004
  20724068.2574                   20724059.0354  108905750.68249  84861601.11148
        49.0004         46.0004
  20718471.2584                   20718462.8844  108876356.75449  84838725.49848
        49.0004         47.0004
  21825887.7704                   21825879.7984  114695858.48848  89373372.01147
        46.0004         43.0004
  23194074.5694                   23194067.4854  121885691.20746  94975841.18745
        41.0004         38.0004
  22549829.6984                   22549822.3264  118500188.37647  92337797.01946
        43.0004         41.0004
  23373963.1674                   23373955.8544  122831033.86147  95712480.23546
        43.0004         40.0004
  21825888.1494                                  114695820.48245
        37.0004
  23240786.3764                   23240779.0664  122131177.59947  95167119.80245
        42.0004         38.0004
 03  8  4  0 59  0.0000000  0 10G16G31G13G27G 8G 3G 1G 2G22G10
  24773942.6174                                  130187945.52544
        35.0004
  23475518.9834                   23475511.7984  123364695.08446  96128302.53845
        39.0004         36.0004
  20733760.9624                   20733751.7394  108956686.12649  84901291.05448
        49.0004         46.0004
  20712466.4764                   20712458.1174  108844801.47349  84814136.97948
        49.0004         47.0004
  21810602.1714                   21810594.1974  114615532.37548  89310780.28047
        46.0004         43.0004
  23187151.8474                   23187144.7794  121849312.18546  94947493.92645
        41.0004         38.0004
  22566781.4384                   22566774.0654  118589270.18147  92407211.37046
        43.0004         41.0004
  23388130.0504                   23388122.7384  122905481.20847  95770491.13146
        44.0004         40.0004
  21810602.4564                                  114615494.37245
        38.0004
  23228923.2884                   23228915.9664  122068836.71146  95118542.51345
        40.0004         38.0004
 03  8  4  0 59 30.0000000  0 11G16G31G13G27G 8G 3G 1G17G 2G22G10
  24793770.6074                                  130292142.81444
        35.0004
  23458804.0544                   23458796.8594  123276857.66745  96059857.84244
        38.0004         35.0004
  20743508.1054                   20743498.8834  109007907.64748  84941203.91548
        48.0004         47.0004
  20706488.3094                   20706479.9354  108813385.99149  84789657.38648
        49.0004         47.0004
  21795334.6424                   21795326.6554  114535300.96748  89248262.30947
        46.0004         44.0004
  23180299.5174                   23180292.4634  121813303.13346  94919434.96045
        40.0004         38.0004
  22583753.4104                   22583746.0524  118678458.24747  92476708.50646
        43.0004         41.0004
  25269690.4894                                  132793117.42454
        35.0004
  23402314.7604                   23402307.4514  122980022.17247  95828574.97246
        43.0004         40.0004
  21795335.0134                                  114535262.97845
        37.0004
  23217126.2284                   23217118.9034  122006842.93146  95070235.70345
        39.0004         38.0004
                            4  1
RINEX FILE SPLICE; other post-header comments skipped       COMMENT
 03  8  4  1  0  0.0000000  0 11G16G31G13G27G 8G 3G 1G17G 2G22G10
  24813657.2474                                  130396647.68744
        34.0004
  23442175.5774                   23442168.4264  123189474.99445  95991767.56345
        38.0004         36.0004
  20753368.8634                   20753359.6524  109059726.27849  84981582.05548
        49.0004         46.0004
  20700596.1434                   20700587.7704  108782422.45449  84765529.95648
        49.0004         47.0004
  21780144.5724                   21780136.5854  114455476.73448  89186061.63947
        47.0004         43.0004
  23173577.2724                   23173570.2734  121777977.62446  94891908.59245
        40.0004         38.0004
  22600804.7154                   22600797.3604  118768063.20847  92546530.51046
        43.0004         41.0004
  25264233.3304                                  132764438.42544
        34.0004
  23416576.2434                   23416568.9504  123054966.58647  95886973.17846
        43.0004         40.0004
  21780144.8594                                  114455438.74745
        37.0004
  23205454.9534                   23205447.6104  121945510.15346  95022443.95845
        41.0004         37.0004
 03  8  4  1  0 30.0000000  0 11G16G31G13G27G 8G 3G 1G17G 2G22G10
  24833571.5334                                  130501296.84445
        36.0004
  23425603.7484                   23425596.5864  123102389.50546  95923908.77345
        39.0004         36.0004
  20763312.5904                   20763303.3814  109111980.85449  85022299.89948
        49.0004         46.0004
  20694759.4944                   20694751.1224  108751750.65548  84741629.85848
        48.0004         47.0004
  21765001.6204                   21764993.6204  114375900.11448  89124053.91547
        47.0004         43.0004
  23166954.8264                   23166947.8284  121743176.62346  94864790.97345
        39.0004         38.0004
  22617904.5104                   22617897.1564  118857922.98747  92616551.06646
        43.0004         41.0004
  25258877.0274                                  132736291.48844
        33.0004
  23430883.5274                   23430876.2354  123130151.68447  95945558.92946
        43.0004         40.0004
  21765001.9294                                  114375862.11245
        37.0004
  23193879.2654                   23193871.9244  121884679.75246  94975043.70845
        41.0004         38.0004
 03  8  4  1  1  0.0000000  0 11G16G31G13G27G 8G 3G 1G17G 2G22G10
  24853484.0164                                  130605936.52044
        34.0004
  23409060.2924                   23409053.1004  123015453.11946  95856166.15245
        39.0004         37.0004
  20773310.2744                   20773301.0784  109164519.03949  85063238.73448
        49.0004         46.0004
  20688949.5174                   20688941.1304  108721219.08149  84717839.03848
        49.0004         47.0004
  21749877.1244                   21749869.1244  114296420.40948  89062121.69447
        47.0004         43.0004
  23160403.7094                   23160396.7244  121708750.52146  94837965.48645
        41.0004         38.0004
  22635023.7704                   22635016.4474  118947885.05647  92686651.32746
        42.0004         41.0004
  25253593.4454                                  132708525.76144
        34.0004
  23445207.4664                   23445200.1884  123205424.42747  96004212.99746
        43.0004         40.0004
  21749877.4564                                  114296382.40645
        37.0004
  23182370.7774                   23182363.4224  121824202.55347  94927918.69146
        42.0004         39.0004
 03  8  4  1  1 30.0000000  0 11G28G16G31G13G27G 8G 3G 1G 2G22G10
  25173588.0354                                  132288095.55854
        33.0004
  24873451.6624                                  130710869.21144
        35.0004
  23392603.7474                   23392596.5384  122928973.82945  95788779.78145
        38.0004         36.0004
  20783419.7054                   20783410.5084  109217644.39449  85104635.09748
        49.0004         46.0004
  20683224.3024                   20683215.9154  108691132.87549  84694395.24048
        49.0004         47.0004
  21734829.2494                   21734821.2464  114217343.41948  89000503.27647
        47.0004         43.0004
  23153982.2714                   23153975.2754  121675005.63546  94811670.78745
        41.0004         38.0004
  22652220.2244                   22652212.9164  119038252.90447  92757067.80546
        43.0004         40.0004
  23459605.7334                   23459598.4534  123281087.70847  96063171.36046
        43.0004         39.0004
  21734829.5854                                  114217305.43645
        37.0004
  23170987.8974                   23170980.5274  121764385.17846  94881307.76545
        41.0004         38.0004
 03  8  4  1  2  0.0000000  0 11G28G16G31G13G27G 8G 3G 1G 2G22G10
  25152363.9564                                  132176559.08044
        33.0004
  24893388.2054                                  130815635.89044
        33.0004
  23376148.0494                   23376140.8284  122842498.49045  95721396.40045
        38.0004         36.0004
  20793554.0814                   20793544.8854  109270900.84049  85146133.61548
        49.0004         46.0004
  20677497.0874                   20677488.6884  108661036.15649  84670943.26548
        49.0004         47.0004
  21719771.3534                   21719763.3374  114138213.76648  88938843.84147
        47.0004         43.0004
  23147603.9464                   23147596.9374  121641487.37646  94785552.68345
        41.0004         38.0004
  22669406.8214                   22669399.5274  119128568.89747  92827443.85446
        43.0004         41.0004
  23473991.0564                   23473983.7994  123356683.14847  96122076.88646
        43.0004         40.0004
  21719771.6484                                  114138175.75745
        38.0004
  23159644.1254                   23159636.7574  121704773.43946  94834857.11145
        41.0004         38.0004
 03  8  4  1  2 30.0000000  0 12G28G16G31G13G27G 8G 3G 1G17G 2G22G10
  25131233.4524                                  132065518.03344
        33.0004
  24913438.3184                                  130921000.87944
        34.0004
  23359839.4484                   23359832.2694  122756796.90046  95654616.07645
        40.0004         36.0004
  20803859.0134                   20803849.8174  109325053.55849  85188330.52548
        50.0004         46.0004
  20671913.7544                   20671905.3554  108631695.54149  84648080.44848
        49.0004         47.0004
  21704849.4934                   21704841.4614  114059798.98748  88877741.44447
        47.0004         44.0004
  23141414.9314                   23141407.9084  121608964.00746  94760209.83145
        40.0004         38.0004
  22686729.1764                   22686721.9074  119219598.35947  92898375.85446
        43.0004         40.0004
  25238412.8214                                  132628756.29454
        33.0004
  23488509.0464                   23488501.8174  123432975.45347  96181525.36646
        43.0004         40.0004
  21704849.8824                                  114059760.96845
        37.0004
  23148485.7354                   23148478.3424  121646135.83146  94789165.51545
        41.0004         38.0004
 03  8  4  1  3  0.0000000  0 12G28G16G31G13G27G 8G 3G 1G17G 2G22G10
  25110051.6334                                  131954208.51344
        34.0004
  24933456.4774                                  131026196.26744
        34.0004
  23343533.1434                   23343525.9694  122671106.62846  95587844.44445
        39.0004         36.0004
  20814188.6874                   20814179.4904  109379336.36348  85230628.81248
        48.0004         46.0004
  20666328.6474                   20666320.2354  108602345.60849  84625210.37948
        49.0004         47.0004
  21689918.0884                   21689910.0554  113981334.17348  88816600.07947
        47.0004         43.0004
  23135269.8854                   23135262.8464  121576671.50946  94735046.83245
        41.0004         38.0004
  22704041.3474                   22704034.0934  119310574.24647  92969266.11246
        43.0004         40.0004
  25233538.8444                                  132603142.37444
        32.0004
  23503013.5554                   23503006.3254  123509197.10047  96240918.84046
        42.0004         40.0004
  21689918.4194                                  113981296.16245
        38.0004
  23137367.4254                   23137360.0174  121587708.65446  94743637.83445
        41.0004         38.0004
 03  8  4  1  3 30.0000000  0 12G28G16G31G13G27G 8G 3G 1G17G 2G22G10
  25088906.8744                                  131843092.11744
        33.0004
  24953529.1304                                  131131679.27044
        33.0004
  23327317.0114                   23327309.8134  122585890.65346  95521442.49545
        40.0004         36.0004
  20824630.4874                   20824621.3024  109434208.39049  85273386.22248
        49.0004         46.0004
  20660829.3174                   20660820.9064  108573446.49749  84602691.61048
        49.0004         47.0004
  21675064.9124                   21675056.8824  113903280.27248  88755778.88147
        46.0004         44.0004
  23129256.4334                   23129249.4214  121545070.73246  94710422.86045
        40.0004         38.0004
  22721430.5724                   22721423.3314  119401955.11647  93040471.94746
        43.0004         40.0004
  25228796.8764                                  132578223.10044
        33.0004
  23517591.7894                   23517584.5724  123585805.98647  96300614.01146
        43.0004         40.0004
  21675065.2384                                  113903242.29645
        38.0004
  23126377.0274                   23126369.6054  121529953.78446  94698634.05945
        41.0004         38.0004
 03  8  4  1  4  0.0000000  0 12G28G16G31G13G27G 8G 3G 1G17G 2G22G10
  25067769.2754                                  131732012.71944
        34.0004
  24973626.2124                                  131237289.33544
        34.0004
  23311161.7084                   23311154.4834  122500994.02646  95455289.30844
        39.0004         35.0004
  20835154.1234                   20835144.9534  109489510.41249  85316478.69148
        49.0004         46.0004
  20655385.7124                   20655377.3004  108544840.15649  84580400.95148
        49.0004         47.0004
  21660259.9874                   21660251.9434  113825479.92848  88695155.25847
        47.0004         44.0004
  23123344.8474                   23123337.8354  121514005.32246  94686216.09245
        41.0004         38.0004
  22738866.5234                   22738859.2954  119493581.40747  93111868.99446
        42.0004         40.0004
  25224157.2634                                  132553841.02244
        33.0004
  23532213.2334                   23532206.0294  123662642.13047  96360486.31246
        43.0004         40.0004
  21660260.4234                                  113825441.90845
        38.0004
  23115484.7784                   23115477.3574  121472714.94646  94654032.43646
        41.0004         39.0004
 03  8  4  1  4 30.0000000  0 12G28G16G31G13G27G 8G 3G 1G17G 2G22G10
  25046580.7244                                  131620667.00644
        34.0004
  24993688.6254                                  131342719.03044
        34.0004
  23295009.6674                   23295002.4324  122416114.72746  95389149.67045
        40.0004         37.0004
  20845701.3344                   20845692.1504  109544936.31549  85359667.69848
        49.0004         46.0004
  20649939.7894                   20649931.3904  108516221.70249  84558100.86048
        49.0004         47.0004
  21645445.4124                   21645437.3574  113747628.87548  88634492.13047
        48.0004         44.0004
  23117477.4474                   23117470.4204  121483172.05347  94662190.19845
        42.0004         38.0004
  22756290.8124                   22756283.5964  119585146.60247  93183218.46646
        42.0004         40.0004
  25219561.9324                                  132529691.70444
        32.0004
  23546819.4904                   23546812.3004  123739398.34047  96420296.29846
        43.0004         40.0004
  21645445.8884                                  113747590.87245
        37.0004
  23104633.0784                   23104625.6724  121415689.00247  94609596.66445
        42.0004         38.0004
 03  8  4  1  5  0.0000000  0 12G28G16G31G13G27G 8G 3G 1G17G 2G22G10
  25025488.9024                                  131509828.92444
        35.0004
  25013863.3024                                  131448738.10644
        34.0004
  23279008.4834                   23279001.2344  122332028.12646  95323627.68845
        39.0004         36.0004
  20856418.9014                   20856409.7184  109601257.44849  85403554.28448
        49.0004         46.0004
  20644638.5334                   20644630.1214  108488363.41249  84536393.11348
        49.0004         47.0004
  21630768.2694                   21630760.2004  113670500.15448  88574391.87347
        47.0004         44.0004
  23111801.4294                   23111794.3614  121453344.50246  94638947.99545
        41.0004         38.0004
  22773850.2144                   22773843.0104  119677421.56747  93255120.95646
        43.0004         39.0004
  25215157.4304                                  132506547.70344
        32.0004
  23561557.0934                   23561549.9024  123816844.77947  96480644.12746
        43.0004         40.0004
  21630768.7454                                  113670462.15345
        38.0004
  23093969.1454                   23093961.7384  121359649.78147  94565929.76245
        42.0004         38.0004
 03  8  4  1  5 30.0000000  0 12G28G16G31G13G27G 8G 3G 1G17G 2G22G10
  25004347.2944                                  131398729.58644
        34.0004
  25034003.0914                                  131554573.47544
        34.0004
  23263012.1124                   23263004.7964  122247966.75646  95258125.38645
        39.0004         36.0004
  20867160.0704                   20867150.8994  109657702.61049  85447537.50048
        49.0004         46.0004
  20639335.3504                   20639326.9404  108460494.99849  84514677.47148
        49.0004         47.0004
  21616082.1434                   21616074.0874  113593324.10448  88514254.69847
        47.0004         44.0004
  23106170.4674                   23106163.4184  121423753.28646  94615889.85146
        41.0004         39.0004
  22791397.7984                   22791390.5944  119769634.68347  93326975.31946
        43.0004         40.0004
  25210797.4074                                  132483639.37944
        33.0004
  23576278.9934                   23576271.8154  123894208.88547  96540927.83846
        43.0004         40.0004
  21616082.4454                                  113593286.12945
        38.0004
  23083346.6924                   23083339.2684  121303828.72646  94522432.89745
        41.0004         38.0004
 03  8  4  1  6  0.0000000  0 12G28G16G31G13G27G 8G 3G 1G17G 2G22G10
  24983244.4414                                  131287833.84644
        34.0004
  25054195.3404                                  131660685.45944
        33.0004
  23247109.2064                   23247101.8574  122164396.54446  95193005.76145
        40.0004         36.0004
  20878012.6944                   20878003.5214  109714733.53149  85491977.17448
        49.0004         46.0004
  20634118.3204                   20634109.9104  108433079.38249  84493314.66948
        49.0004         47.0004
  21601475.1824                   21601467.1104  113516564.25448  88454441.88247
        47.0004         44.0004
  23100672.6794                   23100665.6304  121394862.52646  94593377.63845
        41.0004         38.0004
  22809021.4034                   22809014.2004  119862247.10147  93399140.79146
        43.0004         39.0004
  25206571.3694                                  132461430.08444
        33.0004
  23591072.9414                   23591065.7774  123971951.42147  96601506.38746
        43.0004         40.0004
  21601475.5994                                  113516526.25745
        38.0004
  23072854.1874                   23072846.7784  121248690.36646  94479467.96545
        41.0004         38.0004
 03  8  4  1  6 30.0000000  0 12G28G16G31G13G27G 8G 3G 1G17G 2G22G10
  24962150.8914                                  131176987.68044
        34.0004
  25074410.6944                                  131766916.36544
        33.0004
  23231270.7024                   23231263.3254  122081165.14246  95128150.24345
        39.0004         37.0004
  20888947.0874                   20888937.9304  109772194.09349  85536751.62548
        49.0004         46.0004
  20628957.8994                   20628949.4914  108405961.19049  84472183.61748
        49.0004         47.0004
  21586918.0744                   21586909.9774  113440066.25948  88394833.10247
        47.0004         44.0004
  23095278.9404                   23095271.9374  121366518.23847  94571291.18345
        42.0004         38.0004
  22826691.1614                   22826683.9724  119955101.99647  93471495.17846
        43.0004         40.0004
  25202448.9524                                  132439764.76144
        33.0004
  23605908.9394                   23605901.7744  124049914.99547  96662257.19146
        43.0004         40.0004
  21586918.4804                                  113440028.27145
        38.0004
  23062462.3954                   23062454.9854  121194081.31846  94436915.50045
        41.0004         38.0004
 03  8  4  1  7  0.0000000  0 11G28G16G31G13G27G 8G 3G 1G 2G22G10
  24941008.9564                                  131065886.43844
        34.0004
  25094589.4794                                  131872956.97044
        34.0004
  23215439.0124                   23215431.6384  121997968.98846  95063322.07145
        39.0004         36.0004
  20899904.6354                   20899895.4784  109829776.33649  85581620.88848
        49.0004         46.0004
  20623795.7494                   20623787.3394  108378833.97149  84451045.53148
        49.0004         47.0004
  21572352.5684                   21572344.4874  113363523.94948  88335189.73347
        47.0004         44.0004
  23089931.1124                   23089924.0844  121338415.08746  94549392.61645
        41.0004         38.0004
  22844348.4354                   22844341.2174  120047891.40747  93543798.58246
        42.0004         39.0004
  23620728.2874                   23620721.1484  124127791.12847  96722939.86446
        42.0004         39.0004
  21572353.0974                                  113363485.97845
        38.0004
  23052113.3334                   23052105.8974  121139696.63047  94394537.83845
        42.0004         38.0004
 03  8  4  1  7 30.0000000  0 12G28G16G31G13G27G 8G 3G 1G17G 2G22G10
  24919964.6584                                  130955298.46845
        36.0004
  25114876.9644                                  131979571.42244
        32.0004
  23199760.3794                   23199753.0334  121915577.65646  94999121.11545
        39.0004         36.0004
  20911031.0404                   20911021.8824  109888245.92349  85627181.59048
        49.0004         46.0004
  20618777.7934                   20618769.3834  108352464.49649  84430497.90048
        49.0004         46.0004
  21557924.6344                   21557916.5374  113287704.89548  88276110.00347
        48.0004         44.0004
  23084775.2344                   23084768.2074  121311320.95246  94528280.34945
        41.0004         38.0004
  22862138.8394                   22862131.6244  120141380.30147  93616647.01046
        42.0004         39.0004
  25194485.1234                                  132397912.87054
        33.0004
  23635676.4974                   23635669.3854  124206344.25347  96784150.02146
        42.0004         39.0004
  21557925.1344                                  113287666.89345
        38.0004
  23041953.1164                   23041945.6924  121086304.45446  94352933.56245
        41.0004         38.0004
 03  8  4  1  8  0.0000000  0 12G28G16G31G13G27G 8G 3G 1G17G 2G22G10
  24898872.9784                                  130844461.75244
        35.0004
  25135128.7214                                  132085993.68544
        33.0004
  23184090.2564                   23184082.9004  121833230.79246  94934954.79045
        39.0004         36.0004
  20922180.8184                   20922171.6594  109946838.40149  85672838.06448
        49.0004         46.0004
  20613758.7334                   20613750.3224  108326089.15649  84409945.68748
        49.0004         47.0004
  21543489.2594                   21543481.1634  113211846.54748  88216999.62147
        47.0004         44.0004
  23079666.3464                   23079659.2924  121284473.69147  94507360.44945
        42.0004         38.0004
  22879916.7664                   22879909.5914  120234803.81047  93689444.50346
        43.0004         39.0004
  25190644.7624                                  132377732.32344
        34.0004
  23650607.8304                   23650600.7144  124284808.81147  96845291.18946
        42.0004         39.0004
  21543489.7904                                  113211808.52845
        38.0004
  23031836.8174                   23031829.3954  121033143.06647  94311509.13945
        42.0004         38.0004
 03  8  4  1  8 30.0000000  0 12G28G16G31G13G27G 8G 3G 1G17G 2G22G10
  24877792.3364                                  130733681.60544
        35.0004
  25155400.9744                                  132192524.65744
        33.0004
  23168486.8424                   23168479.4804  121751234.35746  94871061.45545
        40.0004         37.0004
  20933411.4764                   20933402.3314  110005855.84649  85718825.66348
        49.0004         46.0004
  20608796.2874                   20608787.8634  108300011.32949  84389625.30948
        49.0004         47.0004
  21529104.1384                   21529096.0284  113136252.35148  88158095.08547
        47.0004         44.0004
  23074662.4094                   23074655.3424  121258177.63647  94486869.98446
        42.0004         39.0004
  22897739.6664                   22897732.5044  120328463.53346  93762426.03946
        41.0004         39.0004
  25186908.5254                                  132358097.01744
        34.0004
  23665579.5704                   23665572.4654  124363485.77747  96906597.88246
        43.0004         39.0004
  21529104.4954                                  113136214.35145
        38.0004
  23021822.3954                   23021814.9724  120980517.11146  94270501.93946
        41.0004         39.0004
 03  8  4  1  9  0.0000000  0 12G28G16G31G13G27G 8G 3G 1G17G 2G22G10
  24856781.6064                                  130623270.09844
        35.0004
  25175752.3424                                  132299472.44244
        33.0004
  23153009.8314                   23153002.4584  121669902.11646  94807685.70145
        39.0004         37.0004
  20944781.9204                   20944772.7884  110065607.99849  85765385.78548
        49.0004         46.0004
  20603949.5464                   20603941.1334  108274541.65648  84369778.82148
        48.0004         47.0004
  21514828.6554                   21514820.5584  113061234.24348  88099639.42347
        47.0004         44.0004
  23069822.6514                   23069815.4834  121232744.66047  94467052.13445
        43.0004         38.0004
  22915666.3314                   22915659.1674  120422668.73046  93835832.66346
        41.0004         39.0004
  25183335.2284                                  132339318.27944
        35.0004
  23680650.5394                   23680643.4344  124442684.06447  96968310.79546
        42.0004         39.0004
  21514828.9384                                  113061196.23245
        38.0004
  23011969.3384                   23011961.9144  120928739.07247  94230155.43845
        42.0004         38.0004
 03  8  4  1  9 30.0000000  0 11G28G31G13G27G 8G 3G 1G17G 2G22G10
  24835723.9344                                  130512612.41044
        35.0004
  23137542.4234                   23137535.0874  121588620.65246  94744349.52945
        40.0004         37.0004
  20956174.6704                   20956165.5244  110125477.17749  85812037.07348
        49.0004         46.0004
  20599101.2914                   20599092.8784  108249063.96748  84349926.08948
        48.0004         47.0004
  21500545.5214                   21500537.4254  112986176.05448  88041152.56947
        47.0004         44.0004
  23065030.1104                   23065022.9144  121207559.62247  94447427.42845
        42.0004         38.0004
  22933579.2354                   22933572.0964  120516801.42546  93909182.73946
        41.0004         39.0004
  25179807.4334                                  132320779.77844
        34.0004
  23695702.9804                   23695695.8744  124521784.98747  97029947.83146
        42.0004         39.0004
  21500545.9364                                  112986138.04746
        39.0004
  23002160.5714                   23002153.1374  120877193.96946  94189990.51246
        41.0004         39.0004
 03  8  4  1 10  0.0000000  0 12G28G16G31G13G27G 8G 3G 1G17G 2G22G10
  24814678.7384                                  130402018.34744
        35.0004
  25216398.0974                                  132513064.63854
        34.0004
  23122143.8404                   23122136.5064  121507700.86146  94681295.22745
        39.0004         37.0004
  20967648.0434                   20967638.9124  110185770.09449  85859018.55348
        49.0004         46.0004
  20594310.0964                   20594301.6824  108223886.06748  84330306.94348
        48.0004         47.0004
  21486313.5754                   21486305.4534  112911386.67348  87982875.14747
        48.0004         44.0004
  23060343.5274                   23060336.3194  121182931.58747  94428236.79145
        42.0004         38.0004
  22951536.6544                   22951529.5324  120611168.04946  93982715.12646
        41.0004         39.0004
  25176383.9904                                  132302789.77744
        33.0004
  23710795.1364                   23710788.0574  124601094.55347  97091747.42246
        42.0004         39.0004
  21486314.0104                                  112911348.64945
        38.0004
  22992455.0924                   22992447.6724  120826191.45647  94150248.31946
        42.0004         39.0004
 03  8  4  1 10 30.0000000  0 12G28G16G31G13G27G 8G 3G 1G17G 2G22G10
  24793703.6714                                  130291794.56345
        36.0004
  25236807.8684                                  132620319.45944
        33.0004
  23106872.7414                   23106865.3804  121427450.69546  94618762.64345
        40.0004         37.0004
  20979259.9084                   20979250.7784  110246790.79649  85906567.13848
        49.0004         46.0004
  20589633.9904                   20589625.5784  108199312.96548  84311159.07748
        48.0004         47.0004
  21472190.9734                   21472182.8524  112837171.90348  87925045.45547
        48.0004         44.0004
  23055821.1694                   23055813.9654  121159166.37647  94409718.44445
        42.0004         38.0004
  22969596.2624                   22969589.1514  120706071.92946  94056666.18346
        41.0004         39.0004
  25173122.9764                                  132285653.59544
        34.0004
  23725984.6124                   23725977.5584  124680915.78646  97153945.76746
        41.0004         39.0004
  21472191.3574                                  112837133.91746
        39.0004
  22982911.2194                   22982903.7854  120776038.12747  94111167.82146
        42.0004         39.0004
 03  8  4  1 11  0.0000000  0 12G28G16G31G13G27G 8G 3G 1G17G 2G22G10
  24772683.1154                                  130181330.98244
        35.0004
  25257178.2244                                  132727367.90554
        33.0004
  23091613.0864                   23091605.7374  121347261.23146  94556277.45545
        40.0004         37.0004
  20990893.6034                   20990884.4864  110307926.21448  85954205.10548
        48.0004         46.0004
  20584956.5654                   20584948.1524  108174732.99449  84292005.86348
        49.0004         47.0004
  21458061.3934                   21458053.2594  112762920.58348  87867187.32247
        48.0004         44.0004
  23051346.7724                   23051339.5834  121135653.44547  94391396.72446
        42.0004         39.0004
  22987641.4214                   22987634.3084  120800899.69546  94130557.89946
        41.0004         39.0004
  25169907.8514                                  132268759.62044
        33.0004
  23741154.6274                   23741147.6004  124760634.63246  97216064.30446
        41.0004         39.0004
  21458061.9014                                  112762882.62546
        39.0004
  22973412.8064                   22973405.3754  120726123.62947  94072273.42046
        42.0004         39.0004
 03  8  4  1 11 30.0000000  0 11G28G16G31G13G27G 8G 3G 1G 2G22G10
  24751676.0034                                  130070939.18044
        35.0004
  25277567.8144                                  132834513.35744
        33.0004
  23076424.6784                   23076417.3324  121267445.48446  94494083.35145
        39.0004         37.0004
  21002607.9144                   21002598.8084  110369485.39649  86002173.29748
        49.0004         46.0004
  20580336.8454                   20580328.4314  108150456.20049  84273088.88048
        49.0004         47.0004
  21443984.0094                   21443975.8894  112688943.55648  87809542.90947
        48.0004         44.0004
  23046979.5374                   23046972.3234  121112703.47347  94373513.64846
        42.0004         39.0004
  23005730.7914                   23005723.7014  120895959.78947  94204630.62746
        42.0004         39.0004
  23756363.7954                   23756356.7814  124840559.16046  97278343.10646
        41.0004         39.0004
  21443984.4124                                  112688905.54845
        38.0004
  22964019.0804                   22964011.6344  120676759.51647  94033807.93346
        42.0004         39.0004
 03  8  4  1 12  0.0000000  0 12G28G16G31G13G27G 8G 3G 1G17G 2G22G10
  24730741.4824                                  129960927.96245
        36.0004
  25298033.1904                                  132942062.51244
        32.0004
  23061366.2494                   23061358.8754  121188313.27946  94432421.98945
        40.0004         37.0004
  21014461.0584                   21014451.9684  110431774.02749  86050709.87848
        49.0004         46.0004
  20575833.2084                   20575824.7954  108126789.49349  84254647.30548
        49.0004         47.0004
  21430017.3614                   21430009.2274  112615548.38648  87752351.88847
        47.0004         44.0004
  23042778.0574                   23042770.8534  121090624.73347  94356309.45845
        42.0004         38.0004
  23023922.5034                   23023915.4374  120991557.81647  94279122.55546
        42.0004         39.0004
  25163851.9694                                  132236936.31054
        33.0004
  23771670.0614                   23771663.0584  124920994.19346  97341019.75145
        41.0004         38.0004
  21430017.8224                                  112615510.37445
        38.0004
  22954788.8724                   22954781.4134  120628254.32147  93996011.66146
        42.0004         39.0004
 03  8  4  1 12 30.0000000  0 11G28G31G13G27G 8G 3G 1G17G 2G22G10
  24709791.9174                                  129850837.07244
        35.0004
  23046350.6404                   23046343.2694  121109405.84546  94370935.71745
        41.0004         37.0004
  21026364.9684                   21026355.8644  110494329.36849  86099454.28248
        49.0004         46.0004
  20571357.8194                   20571349.4074  108103271.16548  84236321.33748
        48.0004         47.0004
  21416073.6984                   21416065.5654  112542274.07048  87695255.04648
        48.0004         45.0004
  23038654.7484                   23038647.5624  121068956.66347  94339425.27146
        43.0004         39.0004
  23042128.3854                   23042121.3304  121087230.30846  94353672.51846
        41.0004         39.0004
  25160981.5084                                  132221852.43544
        32.0004
  23786985.2594                   23786978.2584  125001475.85347  97403732.68645
        42.0004         38.0004
  21416074.0694                                  112542236.07945
        38.0004
  22945634.4134                   22945626.9134  120580147.68847  93958526.07346
        42.0004         40.0004
 03  8  4  1 13  0.0000000  0 11G28G31G13G27G 8G 3G 1G17G 2G22G10
  24688797.3914                                  129740509.59145
        36.0004
  23031348.1494                   23031340.7774  121030567.41046  94309503.20845
        40.0004         38.0004
  21038289.1914                   21038280.0884  110556991.52349  86148281.92448
        49.0004         46.0004
  20566880.4874                   20566872.0714  108079742.74949  84217987.52048
        49.0004         47.0004
  21402123.0014                   21402114.8654  112468962.78348  87638129.38748
        48.0004         45.0004
  23034579.5774                   23034572.3664  121047541.36647  94322738.02345
        43.0004         38.0004
  23060318.0094                   23060310.9664  121182817.11646  94428155.66146
        41.0004         39.0004
  25158156.9294                                  132207008.23744
        34.0004
  23802278.7544                   23802271.7374  125081843.46146  97466356.73946
        41.0004         39.0004
  21402123.3924                                  112468924.77846
        39.0004
  22936525.9524                   22936518.4544  120532282.52747  93921228.58246
        43.0004         39.0004
 03  8  4  1 13 30.0000000  0 11G28G31G13G27G 8G 3G 1G17G 2G22G10
  24667905.3654                                  129630721.56645
        36.0004
  23016506.6874                   23016499.3004  120952575.18846  94248730.08945
        40.0004         37.0004
  21050380.8304                   21050371.7274  110620533.51149  86197795.16448
        49.0004         46.0004
  20562548.6114                   20562540.1934  108056978.65049  84200249.26948
        49.0004         47.0004
  21388312.7584                   21388304.6224  112396389.53148  87581578.81348
        47.0004         45.0004
  23030699.9924                   23030692.7674  121027154.13547  94306851.90246
        42.0004         39.0004
  23078638.3104                   23078631.2954  121279090.88846  94503174.15845
        40.0004         38.0004
  25155524.9384                                  132193177.96744
        33.0004
  23817697.5484                   23817690.5404  125162869.45847  97529493.78445
        42.0004         38.0004
  21388313.0554                                  112396351.53246
        39.0004
  22927611.0734                   22927603.5754  120485434.65047  93884723.76946
        42.0004         39.0004
 03  8  4  1 14  0.0000000  0 11G28G31G13G27G 8G 3G 1G17G 2G22G10
  24646998.4564                                  129520856.14345
        37.0004
  23001709.1334                   23001701.6904  120874813.83146  94188136.91245
        41.0004         38.0004
  21062522.0574                   21062512.9544  110684335.96548  86247511.33148
        48.0004         46.0004
  20558244.5104                   20558236.0934  108034360.44649  84182624.69848
        49.0004         47.0004
  21374525.4374                   21374517.2874  112323936.73448  87525122.10847
        48.0004         44.0004
  23026898.5934                   23026891.3284  121007177.58946  94291285.77145
        41.0004         38.0004
  23096971.4294                   23096964.4504  121375431.82446  94578244.92646
        41.0004         39.0004
  25152968.4884                                  132179743.29244
        33.0004
  23833123.4904                   23833116.4804  125243933.45446  97592660.55445
        41.0004         38.0004
  21374525.8084                                  112323898.74346
        39.0004
  22918772.3834                   22918764.8594  120438987.01847  93848530.82846
        43.0004         39.0004
 03  8  4  1 14 30.0000000  0 11G28G31G13G27G 8G 3G 1G17G 2G22G10
  24626107.2854                                  129411071.73845
        36.0004
  22986985.9084                   22986978.4414  120797442.63546  94127847.66945
        41.0004         37.0004
  21074742.4004                   21074733.2834  110748554.24049  86297551.53548
        49.0004         46.0004
  20553997.9344                   20553989.5044  108012044.54149  84165235.69048
        49.0004         47.0004
  21360790.9124                   21360782.7624  112251761.44248  87468881.64648
        48.0004         45.0004
  23023205.2874                   23023198.0384  120987769.19747  94276162.36546
        42.0004         39.0004
  23115346.7834                   23115339.8204  121471994.83946  94653488.80745
        41.0004         38.0004
  25150516.8454                                  132166861.07544
        34.0004
  23848586.0894                   23848579.1074  125325189.70946  97655977.05145
        41.0004         38.0004
  21360791.4134                                  112251723.44846
        39.0004
  22910039.8634                   22910032.3394  120393097.44347  93812772.74446
        42.0004         39.0004
 03  8  4  1 15  0.0000000  0 11G28G31G13G27G 8G 3G 1G17G 2G22G10
  24605172.3144                                  129301058.90645
        36.0004
  22972278.2404                   22972270.7884  120720153.57146  94067622.47645
        40.0004         37.0004
  21086982.3934                   21086973.2784  110812875.71048  86347672.14448
        48.0004         46.0004
  20549749.7324                   20549741.3034  107989720.15148  84147840.07848
        48.0004         47.0004
  21347050.1814                   21347042.0184  112179553.41448  87412615.66147
        48.0004         44.0004
  23019561.1034                   23019553.8434  120968618.94346  94261240.11846
        40.0004         39.0004
  23133704.9424                   23133697.9914  121568467.30246  94728662.07345
        41.0004         38.0004
  25148111.5184                                  132154220.18544
        33.0004
  23864025.7134                   23864018.7044  125406325.35746  97719199.62145
        41.0004         38.0004
  21347050.6334                                  112179515.41246
        39.0004
  22901354.5924                   22901347.0554  120347456.28447  93777208.27046
        43.0004         39.0004
 03  8  4  1 15 30.0000000  0 11G28G31G13G27G 8G 3G 1G17G 2G22G10
  24584341.8154                                  129191593.77245
        37.0004
  22957734.0904                   22957726.6224  120643723.73446  94008066.79845
        39.0004         37.0004
  21099389.1984                   21099380.0834  110878073.91549  86398475.93648
        49.0004         45.0004
  20545647.3124                   20545638.8834  107968161.78948  84131041.35448
        48.0004         47.0004
  21333450.7584                   21333442.5824  112108088.02648  87356928.36848
        48.0004         45.0004
  23016113.4964                   23016106.2344  120950501.89546  94247122.98846
        41.0004         39.0004
  23152192.9324                   23152185.9814  121665622.09746  94804367.05146
        41.0004         39.0004
  25145899.3644                                  132142593.98354
        34.0004
  23879589.3824                   23879582.3734  125488112.74246  97782929.99545
        41.0004         38.0004
  21333451.1734                                  112108050.01746
        39.0004
  22892864.2874                   22892856.7624  120302839.55547  93742442.00246
        42.0004         39.0004
 03  8  4  1 16  0.0000000  0 11G28G31G13G27G 8G 3G 1G17G 2G22G10
  24563498.5744                                  129082061.23845
        37.0004
  22943236.5904                   22943229.0914  120567539.29246  93948702.39345
        40.0004         37.0004
  21111845.2164                   21111836.1024  110943530.60548  86449481.12748
        48.0004         45.0004
  20541573.2594                   20541564.8024  107946752.49249  84114358.79848
        49.0004         47.0004
  21319875.3454                   21319867.1684  112036748.93548  87301339.50648
        48.0004         45.0004
  23012745.2784                   23012738.0964  120932801.97546  94233330.83745
        41.0004         38.0004
  23170693.0574                   23170686.1444  121762840.71946  94880121.75345
        41.0004         38.0004
  25143762.5824                                  132131360.80554
        34.0004
  23895159.2774                   23895152.2684  125569932.96747  97846685.98645
        42.0004         38.0004
  21319875.6754                                  112036710.92246
        39.0004
  22884451.8054                   22884444.2804  120258631.79147  93707994.42146
        43.0004         39.0004
 03  8  4  1 16 30.0000000  0 11G28G31G13G27G 8G 3G 1G17G 2G22G10
  24542672.3074                                  128972618.53045
        36.0004
  22928816.0024                   22928808.5044  120491758.71746  93889652.62545
        41.0004         38.0004
  21124379.7734                   21124370.6564  111009400.14648  86500808.03248
        48.0004         45.0004
  20537557.1684                   20537548.7114  107925647.85549  84097913.63748
        49.0004         47.0004
  21306353.7564                   21306345.5834  111965692.50848  87245970.87448
        48.0004         45.0004
  23009486.2674                   23009479.1124  120915675.82247  94219985.77945
        42.0004         38.0004
  23189234.6764                   23189227.7794  121860277.14846  94956046.15045
        41.0004         38.0004
  25141731.9584                                  132120689.24644
        33.0004
  23910764.6604                   23910757.6654  125651939.55847  97910587.16345
        42.0004         38.0004
  21306354.1224                                  111965654.49146
        39.0004
  22876146.9754                   22876139.4534  120214989.73747  93673987.66546
        43.0004         39.0004
 03  8  4  1 17  0.0000000  0 11G28G31G13G27G 8G 3G 1G17G 2G22G10
  24521834.0494                                  128863113.80745
        37.0004
  22914443.5234                   22914435.9994  120416231.33346  93830800.24645
        40.0004         38.0004
  21136963.4434                   21136954.3414  111075527.78149  86552336.05748
        49.0004         45.0004
  20533569.8884                   20533561.4314  107904694.55849  84081586.39648
        49.0004         47.0004
  21292856.8394                   21292848.6644  111894765.91448  87190703.43747
        48.0004         44.0004
  23006307.3654                   23006300.1684  120898970.76446  94206968.91246
        40.0004         39.0004
  23207788.1654                   23207781.2684  121957776.32846  95032019.52245
        41.0004         38.0004
  25139777.7444                                  132110418.65544
        34.0004
  23926375.9144                   23926368.9334  125733977.00046  97974512.38545
        41.0004         38.0004
  21292857.3014                                  111894727.90746
        39.0004
  22867920.8434                   22867913.3064  120171761.18647  93640303.09346
        43.0004         39.0004
 03  8  4  1 17 30.0000000  0 11G28G31G13G27G 8G 3G 1G17G 2G22G10
  24501012.6924                                  128753697.96545
        36.0004
  22900148.2744                   22900140.7464  120341109.16346  93772263.44845
        41.0004         37.0004
  21149624.4454                   21149615.3574  111142061.67049  86604180.61148
        49.0004         45.0004
  20529639.8074                   20529631.3494  107884041.90449  84065493.42948
        49.0004         47.0004
  21279413.2514                   21279405.0634  111824119.38648  87135654.20048
        48.0004         45.0004
  23003237.1984                   23003230.0014  120882836.80347  94194396.96746
        43.0004         39.0004
  23226381.7374                   23226374.8024  122055485.83446  95108156.74945
        40.0004         38.0004
  25137927.9784                                  132100698.25744
        34.0004
  23942021.0384                   23942014.0704  125816192.62046  98038576.48045
        41.0004         37.0004
  21279413.6894                                  111824081.37346
        39.0004
  22859802.1174                   22859794.5504  120129097.05547  93607058.33346
        43.0004         40.0004
 03  8  4  1 18  0.0000000  0 10G31G13G27G 8G 3G 1G17G 2G22G10
  22885989.7534                   22885982.2404  120266705.95046  93714286.98645
        41.0004         38.0004
  21162421.6074                   21162412.5064  111209311.14748  86656582.79848
        48.0004         45.0004
  20525826.0924                   20525817.6214  107864000.69549  84049876.91048
        49.0004         47.0004
  21266082.1784                   21266073.9894  111754064.30948  87081065.86848
        48.0004         45.0004
  23000334.9564                   23000327.7594  120867585.48446  94182512.83145
        41.0004         38.0004
  23245074.1884                   23245067.2554  122153715.01446  95184698.90545
        40.0004         38.0004
  25136242.0794                                  132091838.91944
        34.0004
  23957758.8044                   23957751.8474  125898894.94946  98103019.79745
        40.0004         38.0004
  21266082.5574                                  111754026.30346
        39.0004
  22851850.1174                   22851842.5064  120087309.26447  93574496.47946
        43.0004         39.0004
 03  8  4  1 18 30.0000000  0 11G28G31G13G27G 8G 3G 1G17G 2G22G10
  24459511.6624                                  128535602.95555
        37.0004
  22871880.2214                   22871872.6934  120192560.04246  93656510.99745
        40.0004         38.0004
  21175266.3304                   21175257.2554  111276810.55849  86709179.71148
        49.0004         45.0004
  20522040.3324                   20522031.8594  107844106.51948  84034374.97348
        48.0004         47.0004
  21252775.4034                   21252767.2034  111684136.79848  87026576.92648
        48.0004         45.0004
  22997512.3974                   22997505.1984  120852753.02447  94170955.10346
        42.0004         39.0004
  23263776.8044                   23263769.8824  122251997.61346  95261282.66345
        41.0004         38.0004
  25134631.3764                                  132083375.68444
        33.0004
  23973500.4014                   23973493.4434  125981617.53946  98167478.94145
        40.0004         38.0004
  21252775.8554                                  111684098.80146
        39.0004
  22843976.7324                   22843969.1194  120045934.40647  93542256.34146
        43.0004         39.0004
 03  8  4  1 19  0.0000000  0 11G28G31G13G27G 8G 3G 1G17G 2G22G10
  24438773.7354                                  128426624.53445
        37.0004
  22857850.0644                   22857842.4974  120118831.19546  93599060.00145
        41.0004         38.0004
  21188188.2564                   21188179.1934  111344715.74048  86762092.82448
        48.0004         45.0004
  20518312.4664                   20518303.9934  107824516.45349  84019109.98848
        49.0004         47.0004
  21239522.9154                   21239514.7014  111614494.63149  86972310.33448
        49.0004         45.0004
  22994799.6134                   22994792.4004  120838497.18347  94159846.65045
        42.0004         38.0004
  23282519.1634                   23282512.2414  122350489.06246  95338029.17445
        40.0004         38.0004
  25133126.2344                                  132075465.85644
        33.0004
  23989275.4224                   23989268.4964  126064515.58146  98232074.76845
        40.0004         38.0004
  21239523.3314                                  111614456.62646
        40.0004
  22836212.0634                   22836204.4394  120005130.85947  93510461.39846
        43.0004         39.0004
 03  8  4  1 19 30.0000000  0 11G28G31G13G27G 8G 3G 1G17G 2G22G10
  24418055.3574                                  128317749.28845
        37.0004
  22843900.5904                   22843892.9944  120045526.40446  93541939.43245
        41.0004         38.0004
  21201187.8994                   21201178.8364  111413029.19849  86815324.06548
        49.0004         45.0004
  20514643.2274                   20514634.7544  107805234.53248  84004085.12748
        48.0004         47.0004
  21226325.6574                   21226317.4444  111545142.69348  86918269.89648
        47.0004         45.0004
  22992197.4524                   22992190.2274  120824822.73846  94149191.25045
        41.0004         38.0004
  23301301.7334                   23301294.8004  122449191.88546  95414940.42645
        41.0004         37.0004
  25131727.3074                                  132068125.26054
        33.0004
  24005084.1944                   24005077.2814  126147591.11746  98296808.91445
        40.0004         38.0004
  21226326.0374                                  111545104.69346
        39.0004
  22828557.1374                   22828549.5174  119964904.01547  93479115.83546
        43.0004         39.0004
 03  8  4  1 20  0.0000000  0 10G31G13G27G 8G 3G 1G17G 2G22G10
  22830031.4884                   22830023.8824  119972643.78146  93485147.80145
        41.0004         38.0004
  21214264.0894                   21214255.0264  111481745.03948  86868868.87748
        48.0004         45.0004
  20511031.7934                   20511023.2924  107786256.25648  83989296.85848
        48.0004         46.0004
  21213182.9014                   21213174.6864  111476077.10948  86864452.56548
        47.0004         45.0004
  22989705.1834                   22989697.9534  120811725.89947  94138985.92946
        42.0004         39.0004
  23320123.3804                   23320116.4364  122548099.80646  95492011.44345
        40.0004         37.0004
  25130433.2244                                  132061325.24544
        34.0004
  24020925.4614                   24020918.5754  126230837.41246  98361676.11345
        41.0004         38.0004
  21213183.2984                                  111476039.13146
        39.0004
  22821011.2714                   22821003.6344  119925250.41047  93448216.95646
        43.0004         39.0004
 03  8  4  1 20 30.0000000  0 11G28G31G13G27G 8G 3G 1G17G 2G22G10
  24376646.1444                                  128100142.84155
        37.0004
  22816213.3884                   22816205.7444  119900029.17746  93428565.02345
        41.0004         38.0004
  21227386.7784                   21227377.7284  111550705.17349  86922604.02148
        49.0004         45.0004
  20507448.2684                   20507439.7684  107767424.70648  83974622.92648
        48.0004         47.0004
  21200064.8934                   21200056.6784  111407141.63748  86810736.64047
        48.0004         44.0004
  22987293.0664                   22987285.8404  120799050.07847  94129108.66646
        42.0004         39.0004
  23338953.8404                   23338946.8674  122647054.29046  95569118.78445
        40.0004         37.0004
  25129214.2164                                  132054920.56544
        33.0004
  24036769.0084                   24036762.1384  126314095.68746  98426552.66745
        40.0004         37.0004
  21200065.1794                                  111407103.64146
        40.0004
  22813544.8734                   22813537.2354  119886014.28247  93417643.36146
        43.0004         39.0004
 03  8  4  1 21  0.0000000  0 11G28G31G13G27G 8G 3G 1G17G 2G22G10
  24355985.6524                                  127991571.09745
        37.0004
  22802506.1214                   22802498.4484  119827997.24947  93372436.31045
        42.0004         38.0004
  21240615.0214                   21240605.9574  111620220.06149  86976771.46948
        49.0004         45.0004
  20503952.0074                   20503943.5074  107749051.79549  83960306.38548
        49.0004         46.0004
  21187031.1194                   21187022.8904  111338648.81749  86757365.64348
        49.0004         45.0004
  22985020.4984                   22985013.3354  120787107.83746  94119803.07445
        41.0004         38.0004
  23357852.2124                   23357845.2674  122746365.53146  95646504.07345
        40.0004         37.0004
  25128129.8224                                  132049222.78644
        32.0004
  24052673.7754                   24052666.9194  126397675.67646  98491679.90145
        40.0004         37.0004
  21187031.4124                                  111338610.79546
        39.0004
  22806217.4944                   22806209.8554  119847508.77347  93387639.09246
        43.0004         40.0004
 03  8  4  1 21 30.0000000  0 11G28G31G13G27G 8G 3G 1G17G 2G22G10
  24335344.8924                                  127883103.79945
        37.0004
  22788880.6724                   22788872.9734  119756395.03346  93316642.39645
        41.0004         38.0004
  21253918.9464                   21253909.8814  111690132.59549  87031248.75248
        49.0004         45.0004
  20500513.4214                   20500504.9334  107730981.96248  83946225.99848
        48.0004         47.0004
  21174052.1464                   21174043.9174  111270443.91548  86704218.98248
        48.0004         45.0004
  22982851.3384                                                   94110948.05845
        36.0004
  23376788.4834                   23376781.5084  122845876.18446  95724044.81845
        39.0004         37.0004
  25127150.4704                                  132044076.00644
        34.0004
  24068609.7784                   24068602.9534  126481419.81146  98556935.04445
        40.0004         37.0004
  21174052.5004                                  111270405.90346
        40.0004
  22798999.6844                   22798992.0604  119809579.11247  93358083.55146
        42.0004         39.0004
 03  8  4  1 22  0.0000000  0 11G28G31G13G27G 8G 3G 1G17G 2G22G10
  24314695.9464                                  127774592.72845
        37.0004
  22775309.0044                   22775301.3044  119685075.62447  93261068.86445
        42.0004         38.0004
  21267269.8124                   21267260.7604  111760291.80849  87085918.24548
        49.0004         45.0004
  20497104.0184                   20497095.5184  107713065.43048  83932265.07748
        48.0004         47.0004
  21161099.5274                   21161091.2854  111202377.50748  86651180.24448
        48.0004         45.0004
  22980777.0214                                                  120764804.90656
        41.0004
  23395733.8834                   23395726.9204  122945434.86946  95801622.98645
        39.0004         37.0004
  25126247.5494                                  132039330.31344
        33.0004
  24084548.1374                   24084541.3294  126565176.39246  98622199.90545
        39.0004         37.0004
  21161099.8854                                  111202339.51046
        39.0004
  22791863.1944                   22791855.5574  119772076.73147  93328860.95046
        43.0004         40.0004
 03  8  4  1 22 30.0000000  0 11G28G31G13G27G 8G 3G 1G17G 2G22G10
  24294096.4844                                  127666342.76145
        37.0004
  22761849.3384                   22761841.5974  119614344.78846  93205953.99246
        41.0004         39.0004
  21280725.0114                   21280715.9714  111830999.35448  87141015.02348
        48.0004         45.0004
  20493781.4734                   20493772.9734  107695605.34149  83918659.81048
        49.0004         47.0004
  21148231.1334                   21148222.8914  111134753.76348  86598486.44448
        48.0004         45.0004
  22978835.8184                                                  120754603.56347
        42.0004
  23414745.9014                   23414738.9794  123045343.19846  95879473.50145
        39.0004         37.0004
  25125478.5624                                  132035288.57044
        34.0004
  24100546.1934                   24100539.4104  126649246.62146  98687709.12345
        39.0004         38.0004
  21148231.4664                                  111134715.76346
        39.0004
  22784865.9384                   22784858.3124  119735305.83847  93300208.27946
        43.0004         40.0004
 03  8  4  1 23  0.0000000  0 10G31G13G27G 8G 3G 1G17G 2G22G10
  22748473.4364                   22748465.6674  119544054.19947  93151182.16945
        42.0004         38.0004
  21294255.5644                   21294246.5244  111902102.83049  87196420.31448
        49.0004         45.0004
  20490517.0284                   20490508.5264  107678450.69148  83905292.57148
        48.0004         46.0004
  21135418.3384                   21135410.0844  111067422.07448  86546020.20648
        48.0004         45.0004
  22977005.4744                   22976993.7264  120744984.66347  94086923.74455
        42.0004         38.0004
  23433795.2874                   23433788.4214  123145448.14846  95957477.28445
        39.0004         36.0004
  25124814.2044                                  132031798.97144
        34.0004
  24116574.7954                   24116568.0294  126733477.24246  98753343.32645
        40.0004         37.0004
  21135418.7304                                  111067384.07046
        39.0004
  22777979.3184                   22777971.6804  119699116.59547  93272008.92346
        43.0004         39.0004
 03  8  4  1 23 30.0000000  0 11G28G31G13G27G 8G 3G 1G17G 2G22G10
  24252962.1084                                  127450176.72356
        39.0004
  22735181.8854                   22735174.1304  119474206.75446  93096755.60845
        41.0004         38.0004
  21307861.2264                   21307852.1864  111973601.00048  87252133.16248
        48.0004         45.0004
  20487310.7384                   20487302.2354  107661601.52049  83892163.34348
        49.0004         47.0004
  21122661.3144                   21122653.0324  111000383.58248  86493782.45948
        48.0004         45.0004
  22975285.9284                   22975276.2014  120735948.95046  94079882.95346
        41.0004         39.0004
  23452881.7814                   23452874.9454  123245748.35145  96035633.28245
        38.0004         36.0004
  25124255.2974                                  132028861.70844
        33.0004
  24132633.5634                   24132626.8104  126817866.45146  98819101.10145
        39.0004         36.0004
  21122661.7424                                  111000345.58446
        39.0004
  22771203.5884                   22771195.9524  119663509.95247  93244263.51046
        43.0004         40.0004
 03  8  4  1 24  0.0000000  0 11G28G31G13G27G 8G 3G 1G17G 2G22G10
  24232456.8844                                  127342421.29046
        39.0004
  22722004.4874                   22721996.7474  119404959.18646  93042796.49145
        41.0004         38.0004
  21321571.0104                   21321561.9844  112045646.34348  87308272.36748
        48.0004         45.0004
  20484191.9224                   20484183.4184  107645212.09448  83879392.37448
        48.0004         47.0004
  21109989.4994                   21109981.2294  110933792.87048  86441893.61048
        48.0004         45.0004
  22973706.8654                   22973697.8344  120727650.73046  94073416.80245
        41.0004         38.0004
  23472034.5134                   23472027.7054  123346396.13445  96114060.00745
        38.0004         36.0004
  25123830.9424                                  132026630.45644
        35.0004
  24148751.4494                   24148744.6944  126902566.45146  98885101.07945
        39.0004         37.0004
  21109989.8474                                  110933754.88646
        39.0004
  22764568.2694                   22764560.6194  119628641.05747  93217092.93046
        42.0004         40.0004
 03  8  4  1 24 30.0000000  0 11G28G31G13G27G 8G 3G 1G17G 2G22G10
  24211944.3074                                  127234626.90746
        39.0004
  22708882.7854                   22708875.0554  119336004.54846  92989065.67046
        41.0004         39.0004
  21335325.7384                   21335316.7114  112117927.86449  87364595.61448
        49.0004         45.0004
  20481101.6604                   20481093.1584  107628972.66048  83866738.27548
        48.0004         47.0004
  21097344.1074                   21097335.8374  110867341.01048  86390112.96648
        48.0004         45.0004
  22972209.2264                   22972200.5564  120719780.77246  94067284.45045
        41.0004         38.0004
  23491194.0324                   23491187.2364  123447080.21046  96192515.14845
        39.0004         37.0004
  25123481.8044                                  132024794.78744
        35.0004
  24164869.1494                   24164862.4364  126987265.47146  98951100.28745
        39.0004         36.0004
  21097344.4864                                  110867303.00746
        39.0004
  22758014.5194                   22758006.8414  119594201.24447  93190256.80746
        43.0004         40.0004
 03  8  4  1 25  0.0000000  0 11G28G31G13G27G 8G 3G 1G17G 2G22G10
  24191454.5324                   24191447.6034  127126952.66745  99059927.41554
        38.0004         35.0004
  22695847.3014                   22695839.5584  119267502.87146  92935687.80045
        41.0004         38.0004
  21349155.1064                   21349146.0674  112190601.61948  87421224.51348
        48.0004         45.0004
  20478069.8934                   20478061.3774  107613040.67948  83854323.76148
        48.0004         47.0004
  21084755.2674                   21084746.9984  110801186.27648  86338563.83748
        48.0004         46.0004
  22970823.2964                   22970814.8724  120712497.22847  94061608.93146
        42.0004         39.0004
  23510390.2764                   23510383.5064  123547956.46946  96271119.85345
        39.0004         36.0004
  25123237.6844                                  132023512.11444
        35.0004
  24181016.2984                   24181009.5874  127072118.93846  99017219.79645
        39.0004         37.0004
  21084755.5664                                  110801148.28146
        39.0004
  22751572.7084                   22751565.0164  119560349.11047  93163878.48546
        43.0004         40.0004
 03  8  4  1 25 30.0000000  0 12G28G29G31G13G27G 8G 3G 1G17G 2G22G10
  24171016.7404                   24171009.8374  127019552.21545  98976238.86744
        37.0004         34.0004
  25377204.5034                                  133358112.38054
        35.0004
  22682927.4934                   22682919.7764  119199608.88046  92882783.38946
        41.0004         39.0004
  21363087.7564                   21363078.7184  112263818.12448  87478276.32948
        48.0004         45.0004
  20475125.5874                   20475117.0844  107597568.31048  83842267.37748
        48.0004         46.0004
  21072251.9634                   21072243.6804  110735481.02948  86287364.96848
        48.0004         45.0004
  22969577.8924                   22969569.5774  120705952.33346  94056509.03146
        41.0004         39.0004
  23529651.5154                   23529644.7824  123649175.02245  96349991.43245
        38.0004         37.0004
  25123127.5164                                  132022933.99044
        34.0004
  24197221.3544                   24197214.6424  127157276.89246  99083576.60045
        39.0004         37.0004
  21072252.2834                                  110735443.02645
        38.0004
  22745271.7824                   22745264.0774  119527237.70947  93138077.44446
        43.0004         40.0004
 03  8  4  1 26  0.0000000  0 11G28G31G13G27G 8G 3G 1G17G 2G22G10
  24150572.9444                   24150565.9274  126912119.59345  98892525.15944
        38.0004         35.0004
  22670065.1674                   22670057.4354  119132017.21747  92830114.62646
        42.0004         39.0004
  21377064.8144                   21377055.7634  112337267.93548  87535509.92948
        48.0004         45.0004
  20472210.1304                   20472201.6154  107582247.48048  83830329.07848
        48.0004         47.0004
  21059775.7834                   21059767.5004  110669918.38549  86236277.21848
        49.0004         46.0004
  22968414.3844                   22968406.2334  120699838.12146  94051744.70846
        40.0004         39.0004
  23548919.0614                   23548912.3414  123750426.28646  96428888.42745
        39.0004         36.0004
  25123092.5744                                  132022751.86644
        33.0004
  24213425.3864                   24213418.6854  127242429.46746  99149929.19545
        40.0004         37.0004
  21059776.2834                                  110669880.39246
        40.0004
  22739053.3644                   22739045.6614  119494559.70047  93112614.07046
        43.0004         40.0004
 03  8  4  1 26 30.0000000  0 11G28G31G13G27G 8G 3G 1G17G 2G22G10
  24130153.0234                   24130145.8804  126804812.18545  98808909.04344
        38.0004         35.0004
  22657290.5934                   22657282.8464  119064886.56546  92777805.07345
        40.0004         38.0004
  21391115.6874                   21391106.6524  112411105.64648  87593045.78148
        48.0004         45.0004
  20469353.2024                   20469344.6854  107567234.28448  83818630.49348
        48.0004         47.0004
  21047356.5574                   21047348.2634  110604654.91548  86185422.58148
        48.0004         45.0004
  22967362.6684                   22967354.6024  120694311.25147  94047438.07946
        42.0004         39.0004
  23568222.1604                   23568215.4694  123851864.50545  96507931.13345
        38.0004         36.0004
  25123162.7354                                  132023121.25644
        33.0004
  24229657.6444                   24229650.9164  127327730.50046  99216397.53145
        39.0004         37.0004
  21047356.9744                                  110604616.91746
        39.0004
  22732947.2334                   22732939.5184  119462471.82647  93087610.55846
        43.0004         40.0004
 03  8  4  1 27  0.0000000  0 10G28G31G13G27G 8G 3G 1G 2G22G10
  24109757.3114                   24109750.0824  126697632.55846  98725392.53344
        39.0004         35.0004
  22644604.3364                   22644596.5614  118998220.01846  92725857.16746
        41.0004         39.0004
  21405240.3364                   21405231.3014  112485331.11648  87650883.79948
        48.0004         45.0004
  20466554.9234                   20466546.3944  107552529.22848  83807172.01948
        48.0004         47.0004
  21034994.4534                   21034986.1574  110539691.74648  86134801.94948
        48.0004         45.0004
  22966422.8924                   22966414.8684  120689372.63247  94043589.83946
        42.0004         39.0004
  23587560.6224                   23587553.9324  123953488.56346  96587118.65745
        39.0004         36.0004
  24245917.9494                   24245911.2214  127413178.85346  99282980.63845
        40.0004         36.0004
  21034994.9194                                  110539653.75746
        39.0004
  22726953.7584                   22726946.0124  119430975.96747  93063068.34246
        42.0004         40.0004
 03  8  4  1 27 30.0000000  0 10G28G31G13G27G 8G 3G 1G 2G22G10
  24089356.6144                   24089349.1614  126590426.61246  98641855.54944
        39.0004         35.0004
  22631977.3364                   22631969.5544  118931864.81447  92674151.87146
        42.0004         39.0004
  21419408.7824                   21419399.7614  112559786.80548  87708901.20948
        48.0004         45.0004
  20463785.7224                   20463777.1924  107537976.98048  83795832.60148
        48.0004         46.0004
  21022660.0774                   21022651.7694  110474874.22248  86084294.81748
        48.0004         45.0004
  22965565.5024                   22965557.6064  120684867.14446  94040079.05745
        41.0004         38.0004
  23606904.6474                   23606897.9864  124055141.53646  96666328.64045
        39.0004         36.0004
  24262176.2984                   24262169.5834  127498617.05446  99349555.84945
        39.0004         37.0004
  21022660.5034                                  110474836.21146
        40.0004
  22721043.5094                   22721035.7484  119399917.52447  93038866.98746
        43.0004         40.0004
 03  8  4  1 28  0.0000000  0 11G28G31G13G27G 8G 3G 1G17G 2G22G10
  24069038.9044                   24069031.4164  126483656.94745  98558658.52944
        38.0004         35.0004
  22619497.7934                   22619490.0284  118866284.49546  92623050.36046
        41.0004         39.0004
  21433708.4414                   21433699.4344  112634931.89448  87767455.79447
        48.0004         44.0004
  20461133.2984                   20461124.7674  107524038.45648  83784971.42748
        48.0004         47.0004
  21010441.2684                   21010432.9594  110410664.07248  86034260.95948
        48.0004         46.0004
  22964878.2734                   22964870.4524  120681255.91646  94037265.14946
        41.0004         39.0004
  23626341.4614                   23626334.8154  124157282.55746  96745919.01645
        39.0004         36.0004
  25124002.0664                                  132027531.03154
        33.0004
  24278520.1014                   24278513.3834  127584504.06946  99416480.72945
        39.0004         37.0004
  21010441.7104                                  110410626.08346
        40.0004
  22715304.3554                   22715296.5684  119369758.18947  93015366.25146
        43.0004         40.0004
 03  8  4  1 28 30.0000000  0 11G28G31G13G27G 8G 3G 1G17G 2G22G10
  24048745.9644                   24048738.5394  126377016.88945  98475562.40244
        38.0004         35.0004
  22607107.5504                   22607099.7724  118801173.45447  92572314.52146
        43.0004         39.0004
  21448080.3624                   21448071.3564  112710456.84648  87826306.41047
        48.0004         44.0004
  20458539.0684                   20458530.5394  107510405.68848  83774348.49848
        48.0004         47.0004
  20998279.5174                   20998271.1954  110346753.76548  85984460.75648
        48.0004         46.0004
  22964302.6414                   22964294.9224  120678231.01246  94034908.07746
        41.0004         39.0004
  23645812.1404                   23645805.4524  124259601.73046  96825648.26745
        39.0004         36.0004
  25124519.7474                                  132030251.15044
        34.0004
  24294890.3154                   24294883.6274  127670529.81246  99483513.70545
        39.0004         37.0004
  20998279.9324                                  110346715.75846
        40.0004
  22709677.7934                   22709669.9904  119340190.59547  92992326.60646
        43.0004         40.0004
 03  8  4  1 29  0.0000000  0 11G28G31G13G27G 8G 3G 1G17G 2G22G10
  24028449.1384                   24028441.7174  126270356.78646  98392450.68344
        39.0004         35.0004
  22594778.3074                   22594770.5034  118736382.84346  92521828.35246
        41.0004         39.0004
  21462495.4804                   21462486.4734  112786208.74248  87885333.84347
        48.0004         44.0004
  20455974.1624                   20455965.6184  107496927.01548  83763845.63748
        48.0004         47.0004
  20986146.1604                   20986137.8514  110282992.60648  85934776.74148
        48.0004         46.0004
  22963809.8154                   22963802.1314  120675641.25847  94032890.11446
        42.0004         39.0004
  23665287.6994                   23665281.0254  124361945.98145  96905396.92345
        38.0004         36.0004
  25125112.7494                                  132033366.46244
        34.0004
  24311257.7404                   24311251.0704  127756541.02346  99550535.39745
        39.0004         37.0004
  20986146.5314                                  110282954.61946
        39.0004
  22704135.2004                   22704127.3984  119311064.07247  92969630.61746
        43.0004         40.0004
 03  8  4  1 29 30.0000000  0 11G28G31G13G27G 8G 3G 1G17G 2G22G10
  24008148.9454                   24008141.5104  126163679.11445  98309325.35744
        38.0004         35.0004
  22582510.6714                   22582502.8804  118671916.16946  92471594.61246
        41.0004         39.0004
  21476953.6644                   21476944.6564  112862187.01248  87944537.68448
        48.0004         45.0004
  20453438.7734                   20453430.2304  107483603.51848  83753463.70748
        48.0004         47.0004
  20974041.4564                   20974033.1354  110219382.08148  85885210.13748
        48.0004         46.0004
  22963400.0314                   22963392.3354  120673487.64046  94031211.94645
        41.0004         38.0004
  23684767.7664                   23684761.1044  124464314.36046  96985164.46544
        39.0004         35.0004
  25125780.6044                                  132036877.37744
        34.0004
  24327622.1604                   24327615.5014  127842536.50546  99617544.81845
        39.0004         36.0004
  20974041.8024                                  110219344.08846
        40.0004
  22698676.8584                   22698669.0674  119282380.35347  92947279.66446
        43.0004         40.0004
 03  8  4  1 30  0.0000000  0 11G28G31G13G27G 8G 3G 1G17G 2G22G10
  23987962.2134                   23987954.7074  126057597.31345  98226664.27244
        38.0004         35.0004
  22570421.5474                   22570413.7704  118608387.70847  92422091.97846
        43.0004         39.0004
  21491571.1024                   21491562.1224  112939002.03948  88004393.51647
        47.0004         44.0004
  20451049.3494                   20451040.8064  107471047.01148  83743679.41948
        47.0004         47.0004
  20962081.9934                   20962073.6574  110156534.80449  85836238.26448
        49.0004         46.0004
  22963189.6384                   22963181.9574  120672382.26747  94030350.67146
        42.0004         39.0004
  23704368.6084                   23704361.9844  124567317.04445  97065426.16645
        38.0004         37.0004
  25126640.2924                                  132041395.00544
        33.0004
  24344099.6664                   24344093.0334  127929126.25546  99685017.30945
        39.0004         36.0004
  20962082.4474                                  110156496.81746
        40.0004
  22693419.3544                   22693411.5354  119254752.17147  92925751.26246
        43.0004         40.0004
 03  8  4  1 30 30.0000000  0 11G28G31G13G27G 8G 3G 1G17G 2G22G10
  23967742.8194                   23967735.2484  125951344.24346  98143869.78044
        39.0004         35.0004
  22558365.1714                   22558357.3944  118545031.08947  92372723.19346
        42.0004         39.0004
  21506201.1204                   21506192.1434  113015883.18248  88064300.88047
        48.0004         44.0004
  20448659.5854                   20448651.0414  107458488.78148  83733893.79248
        48.0004         47.0004
  20950121.6054                   20950113.2714  110093682.60749  85787262.54648
        49.0004         46.0004
  22963032.4074                   22963024.7534  120671556.32947  94029707.13445
        42.0004         38.0004
  23723943.4914                   23723936.8814  124670183.50246  97145581.78645
        39.0004         37.0004
  25127544.9704                                  132046149.68144
        35.0004
  24360543.5564                   24360536.8924  128015539.42045  99752352.22245
        38.0004         36.0004
  20950121.9964                                  110093644.59546
        40.0004
  22688216.4854                   22688208.6374  119227411.03647  92904446.51546
        43.0004         40.0004
 03  8  4  1 31  0.0000000  0 11G28G31G13G27G 8G 3G 1G17G 2G22G10
  23947521.8254                   23947514.2354  125845082.63945  98061068.61445
        38.0004         36.0004
  22546372.6334                   22546364.8284  118482010.12647  92323616.01846
        42.0004         39.0004
  21520874.1154                   21520865.1364  113092990.35048  88124384.39647
        48.0004         44.0004
  20446300.1234                   20446291.5924  107446089.78348  83724232.24048
        46.0004         47.0004
  20938191.0654                   20938182.7324  110030987.32049  85738409.10648
        49.0004         46.0004
  22962959.0904                   22962951.4534  120671171.10547  94029406.98346
        42.0004         39.0004
  23743522.8004                   23743516.2444  124773073.08945  97225755.38045
        38.0004         36.0004
  25128525.5264                                  132051302.03644
        35.0004
  24376984.2244                   24376977.5724  128101935.33845  99819673.62545
        38.0004         36.0004
  20938191.4204                                  110030949.31246
        40.0004
  22683099.0864                   22683091.2374  119200518.98747  92883491.68046
        43.0004         40.0004
 03  8  4  1 31 30.0000000  0 11G28G31G13G27G 8G 3G 1G17G 2G22G10
  23927415.9654                   23927408.3434  125739425.94445  97978738.78545
        38.0004         36.0004
  22534560.8244                   22534553.0324  118419938.96147  92275248.93846
        42.0004         39.0004
  21535706.2944                   21535697.3174  113170933.85248  88185119.57247
        48.0004         44.0004
  20444087.3974                   20444078.8544  107434461.89648  83715171.57348
        46.0004         46.0004
  20926406.9204                   20926398.5864  109969061.34549  85690155.12648
        49.0004         46.0004
  22963086.1024                   22963078.4434  120671838.43446  94029926.98346
        41.0004         39.0004
  23763222.5314                   23763215.9894  124876595.87345  97306422.47745
        38.0004         36.0004
  25129697.7514                                  132057463.05644
        33.0004
  24393537.5464                   24393530.9364  128188923.57346  99887456.62945
        39.0004         36.0004
  20926407.2274                                  109969023.33246
        40.0004
  22678183.6914                   22678175.8424  119174688.41147  92863363.96146
        44.0004         40.0004
 03  8  4  1 32  0.0000000  0 11G28G31G13G27G 8G 3G 1G17G 2G22G10
  23907278.7154                   23907271.1044  125633603.97945  97896280.09444
        38.0004         35.0004
  22522783.4454                   22522775.6394  118358048.41747  92227022.54246
        42.0004         39.0004
  21550550.3664                   21550541.4034  113248939.98048  88245903.56147
        47.0004         44.0004
  20441874.5204                   20441865.9884  107422833.14548  83706110.19748
        45.0004         46.0004
  20914622.4734                   20914614.1394  109907133.71949  85641899.84748
        49.0004         46.0004
  22963266.5864                   22963258.9424  120672786.94547  94030666.09746
        42.0004         39.0004
  23782895.6024                   23782889.0994  124979978.18246  97386980.01444
        39.0004         35.0004
  25130914.8704                                  132063860.37344
        34.0004
  24410056.4264                   24410049.8324  128275730.86946  99955098.68845
        39.0004         36.0004
  20914622.7674                                  109907095.70546
        40.0004
  22673323.5274                   22673315.6654  119149148.26247  92843462.59746
        43.0004         40.0004
 03  8  4  1 32 30.0000000  0 11G28G31G13G27G 8G 3G 1G17G 2G22G10
  23887169.8524                   23887162.2114  125527931.75445  97813938.22645
        38.0004         36.0004
  22511100.4954                   22511092.6604  118296654.28847  92179183.01246
        43.0004         39.0004
  21565465.8244                   21565456.8744  113327321.11348  88306979.73247
        48.0004         44.0004
  20439721.2804                   20439712.7514  107411517.85747  83697293.11348
        44.0004         46.0004
  20902897.4684                   20902889.1364  109845518.53049  85593888.04548
        49.0004         46.0004
  22963560.2174                   22963552.6164  120674329.92647  94031868.39346
        42.0004         39.0004
  23802601.2434                   23802594.7814  125083531.84145  97467671.11345
        38.0004         36.0004
  25132237.2244                                  132070806.51944
        34.0004
  24426600.1614                   24426593.5824  128362668.59746 100022842.32845
        39.0004         36.0004
  20902897.8574                                  109845480.51246
        40.0004
  22668578.4284                   22668570.5544  119124212.66047  92824032.28846
        43.0004         40.0004
 03  8  4  1 33  0.0000000  0 11G28G31G13G27G 8G 3G 1G17G 2G22G10
  23867118.0404                   23867110.3894  125422558.89745  97731829.55445
        38.0004         36.0004
  22499540.6594                   22499532.8004  118235907.00247  92131847.50446
        43.0004         39.0004
  21580480.4444                   21580471.4674  113406223.35048  88368461.98347
        48.0004         44.0004
  20437655.6884                   20437647.2224  107400663.03548  83688834.80248
        45.0004         47.0004
  20891260.2624                   20891251.9174  109784364.66249  85546235.70148
        49.0004         46.0004
  22963995.0604                   22963987.4594  120676615.29247  94033649.25346
        42.0004         39.0004
  23822367.4284                   23822361.0084  125187403.34245  97548609.82144
        38.0004         35.0004
  25133691.2034                                  132078448.41644
        33.0004
  24443196.5054                   24443189.9614  128449882.66245 100090801.22645
        38.0004         36.0004
  20891260.6104                                  109784326.67646
        40.0004
  22663976.6264                   22663968.7404  119100030.15447  92805188.81346
        44.0004         40.0004
 03  8  4  1 33 30.0000000  0 11G28G31G13G27G 8G 3G 1G17G 2G22G10
  23847065.2394                   23847057.5874  125317181.15346  97649717.11845
        40.0004         37.0004
  22488046.1354                   22488038.2744  118175503.05647  92084779.52846
        42.0004         39.0004
  21595535.6184                   21595526.6434  113485338.76148  88430110.34747
        48.0004         44.0004
  20435619.5724                   20435611.1054  107389963.17348  83680497.24748
        46.0004         46.0004
  20879652.6364                   20879644.3024  109723366.36249  85498704.58448
        49.0004         46.0004
  22964512.9974                   22964505.3844  120679337.00647  94035770.06946
        43.0004         39.0004
  23842135.4344                   23842129.0284  125291284.85446  97629556.43244
        39.0004         35.0004
  25135219.4274                                  132086479.78844
        32.0004
  24459786.8624                   24459780.2864  128537065.32345 100158735.70745
        38.0004         36.0004
  20879652.9704                                  109723328.36546
        39.0004
  22659459.9574                   22659452.0844  119076295.14647  92786694.05146
        44.0004         40.0004
 03  8  4  1 34  0.0000000  0 11G28G31G13G27G 8G 3G 1G17G 2G22G10
  23827070.9274                   23827063.2634  125212110.46046  97567843.89345
        39.0004         36.0004
  22476676.4994                   22476668.6364  118115755.40646  92038222.94946
        41.0004         39.0004
  21610690.2354                   21610681.2574  113564976.74648  88492165.89847
        48.0004         44.0004
  20433672.0134                   20433663.5184  107379728.68048  83672522.32848
        47.0004         47.0004
  20868133.9474                   20868125.5854  109662835.30448  85451537.55248
        48.0004         46.0004
  22965173.1044                   22965165.4934  120682805.76847  94038472.98246
        42.0004         39.0004
  23861964.1254                   23861957.7484  125395485.07945  97710751.35045
        38.0004         36.0004
  25136880.8094                                  132095209.91044
        34.0004
  24476429.8964                   24476423.3324  128624525.12045 100226886.20045
        38.0004         36.0004
  20868134.3164                                  109662797.30846
        40.0004
  22655087.7694                   22655079.9234  119053319.08447  92768790.59646
        43.0004         40.0004
 03  8  4  1 34 30.0000000  0 11G28G31G13G27G 8G 3G 1G17G 2G22G10
  23807076.4644                   23807068.8324  125107039.22346  97485970.29145
        39.0004         37.0004
  22465373.3634                   22465365.5014  118056356.96147  91991938.43946
        42.0004         39.0004
  21625885.1664                   21625876.1894  113644826.52448  88554386.47747
        47.0004         44.0004
  20431754.1454                   20431745.6524  107369650.21848  83664668.98748
        48.0004         47.0004
  20856645.3614                   20856636.9984  109602462.44148  85404493.77248
        48.0004         46.0004
  22965916.4474                   22965908.8414  120686712.06047  94041516.86646
        42.0004         39.0004
  23881794.1634                   23881787.8274  125499692.81645  97791952.20844
        38.0004         35.0004
  25138616.2274                                  132104328.59144
        34.0004
  24493066.5014                   24493059.9644  128711950.75746 100295009.98944
        39.0004         35.0004
  20856645.7774                                  109602424.43946
        40.0004
  22650801.1674                   22650793.3074  119030793.08847  92751237.93146
        43.0004         40.0004
 03  8  4  1 35  0.0000000  0 11G28G31G13G27G 8G 3G 1G17G 2G22G10
  23787141.3254                   23787133.6664  125002279.42246  97404339.30445
        40.0004         37.0004
  22454196.2064                   22454188.3154  117997620.85547  91946170.10646
        43.0004         39.0004
  21641179.1154                   21641170.1234  113725196.70448  88617012.58247
        48.0004         44.0004
  20429925.0804                   20429916.5714  107360038.47648  83657179.33148
        48.0004         47.0004
  20845246.1544                   20845237.7784  109542559.26748  85357815.99748
        48.0004         46.0004
  22966802.1104                   22966794.5044  120691366.37546  94045143.63546
        41.0004         39.0004
  23901684.6404                   23901678.3264  125604217.10245  97873399.47844
        38.0004         35.0004
  25140483.8654                                  132114145.84744
        32.0004
  24509755.3534                   24509748.8334  128799651.08345 100363347.86845
        38.0004         36.0004
  20845246.5124                                  109542521.27146
        40.0004
  22646659.3904                   22646651.5334  119009028.09147  92734278.24546
        44.0004         40.0004
 03  8  4  1 35 30.0000000  0 11G28G31G13G27G 8G 3G 1G17G 2G22G10
  23767206.8434                   23767199.1704  124897523.32346  97322711.25145
        40.0004         37.0004
  22443086.6724                   22443078.7824  117939239.98347  91900678.55046
        42.0004         40.0004
  21656512.9174                   21656503.9404  113805776.25548  88679801.81147
        47.0004         44.0004
  20428125.9404                   20428117.4314  107350583.99748  83649812.21748
        48.0004         47.0004
  20833877.5534                   20833869.1774  109482816.98948  85311263.60148
        48.0004         46.0004
  22967771.2004                   22967763.5814  120696458.97947  94049111.90346
        42.0004         39.0004
  23921575.9514                   23921569.6394  125708746.58845  97954851.01844
        38.0004         35.0004
  25142425.8234                                  132124351.21544
        33.0004
  24526437.2034                   24526430.6684  128887314.85745 100431657.31645
        38.0004         36.0004
  20833877.8904                                  109482779.00846
        40.0004
  22642603.7024                   22642595.8734  118987715.30347  92717670.87046
        43.0004         40.0004
 03  8  4  1 36  0.0000000  0 11G28G31G13G27G 8G 3G 1G17G 2G22G10
  23747331.5974                   23747323.8844  124793078.51546  97241325.77645
        39.0004         36.0004
  22432103.3784                   22432095.4634  117881522.45047  91855703.88246
        43.0004         40.0004
  21671944.4814                   21671935.5024  113886869.61048  88742991.41747
        47.0004         44.0004
  20426414.9484                   20426406.4394  107341592.67149  83642805.99048
        49.0004         47.0004
  20822597.8704                   20822589.4934  109423541.97949  85265075.30548
        49.0004         46.0004
  22968881.8234                   22968874.2574  120702295.52847  94053659.87346
        42.0004         39.0004
  23941526.1514                   23941519.8254  125813585.28145  98036543.44145
        38.0004         36.0004
  25144499.8014                                  132135249.41844
        32.0004
  24543169.9584                   24543163.3974  128975245.82746 100500174.91945
        39.0004         36.0004
  20822598.1424                                  109423503.97146
        40.0004
  22638692.2684                   22638684.4404  118967160.83347  92701654.45646
        44.0004         40.0004
 03  8  4  1 36 30.0000000  0 11G28G29G31G13G27G 8G 3G 1G 2G22G10
  23727456.9134                   23727449.1864  124688636.40846  97159942.33645
        40.0004         37.0004
  24942868.9414                                  131075661.97254
        35.0004
  22421187.7524                   22421179.8394  117824160.50946  91811006.28846
        41.0004         39.0004
  21687414.4414                   21687405.4624  113968164.73548  88806338.25247
        48.0004         43.0004
  20424733.0374                   20424724.5284  107332754.23348  83635918.90948
        48.0004         47.0004
  20811348.2524                   20811339.8624  109364424.90149  85219010.07248
        49.0004         46.0004
  22970075.0384                   22970067.4594  120708565.85447  94058545.83546
        42.0004         39.0004
  23961475.8844                   23961469.5624  125918421.40046  98118233.84444
        39.0004         35.0004
  24559894.2004                   24559887.6414  129063132.12545 100568657.71444
        37.0004         35.0004
  20811348.5834                                  109364386.89346
        40.0004
  22634866.2804                   22634858.4504  118947055.06647  92685987.60646
        43.0004         40.0004
 03  8  4  1 37  0.0000000  0 10G28G31G13G27G 8G 3G 1G 2G22G10
  23707642.6044                   23707634.8644  124584511.88746  97078806.44045
        40.0004         37.0004
  22410399.8004                   22410391.8974  117767469.74947  91766831.72246
        42.0004         39.0004
  21702982.1084                   21702973.1264  114049973.31448  88870085.17547
        47.0004         43.0004
  20423139.8694                   20423131.3744  107324382.20548  83629395.27048
        47.0004         47.0004
  20800188.4364                   20800180.0454  109305779.79849  85173312.61148
        49.0004         46.0004
  22971410.4064                   22971402.8044  120715583.19647  94064013.91446
        43.0004         39.0004
  23981484.3554                   23981478.0064  126023566.25045  98200164.82744
        37.0004         35.0004
  24576669.2204                   24576662.6924  129151285.01045 100637348.18345
        38.0004         36.0004
  20800188.7594                                  109305741.80746
        40.0004
  22631185.3024                   22631177.4744  118927711.58347  92670914.81346
        43.0004         40.0004
 03  8  4  1 37 30.0000000  0 10G28G31G13G27G 8G 3G 1G 2G22G10
  23687859.1254                   23687851.3444  124480549.18946  96997796.60645
        40.0004         36.0004
  22399710.1344                   22399702.2184  117711295.17547  91723059.33546
        42.0004         39.0004
  21718617.2844                   21718608.3044  114132136.59148  88934108.49047
        48.0004         43.0004
  20421605.5234                   20421597.0144  107316319.15948  83623112.38648
        48.0004         47.0004
  20789088.6364                   20789080.2324  109247450.01848  85127860.85648
        48.0004         46.0004
  22972857.9524                   22972850.3514  120723189.97547  94069941.25046
        42.0004         39.0004
  24001521.3194                   24001514.9744  126128860.77145  98282212.42344
        38.0004         35.0004
  24593464.6644                   24593458.0824  129239545.41545 100706122.49944
        38.0004         35.0004
  20789088.9264                                  109247412.03946
        40.0004
  22627619.5574                   22627611.7144  118908973.59047  92656313.80946
        44.0004         40.0004
 03  8  4  1 38  0.0000000  0 10G28G31G13G27G 8G 3G 1G 2G22G10
  23668078.5684                   23668070.7724  124376602.09946  96916798.97145
        40.0004         36.0004
  22389090.9844                   22389083.0834  117655491.41847  91679575.93746
        43.0004         40.0004
  21734291.5084                   21734282.5134  114214505.07048  88998291.69047
        47.0004         43.0004
  20420101.8824                   20420093.3864  107308417.53848  83616955.28248
        48.0004         47.0004
  20778020.8374                   20778012.4304  109189288.46549  85082540.18248
        49.0004         46.0004
  22974389.4024                   22974381.8014  120731238.05147  94076212.53346
        42.0004         39.0004
  24021558.3344                   24021551.9744  126234155.61645  98364260.27944
        38.0004         35.0004
  24610252.1444                   24610245.5494  129327763.90945 100774864.12045
        38.0004         36.0004
  20778021.1704                                  109189250.46646
        40.0004
  22624141.0424                   22624133.2004  118890693.99947  92642070.00046
        44.0004         40.0004
 03  8  4  1 38 30.0000000  0 10G28G31G13G27G 8G 3G 1G 2G22G10
  23648359.4514                   23648351.6524  124272977.50246  96836052.53445
        40.0004         37.0004
  22378600.8844                   22378592.9704  117600365.69747  91636620.86946
        43.0004         40.0004
  21750062.4954                   21750053.4734  114297381.97848  89062871.07447
        47.0004         43.0004
  20418686.9624                   20418678.4664  107300982.14348  83611161.48348
        48.0004         47.0004
  20767043.2334                   20767034.8134  109131600.82748  85037588.80248
        48.0004         46.0004
  22976062.9404                   22976055.3694  120740032.36547  94083065.20246
        42.0004         39.0004
  24041653.1374                   24041646.7924  126339754.08545  98446544.69844
        37.0004         35.0004
  24627089.3124                   24627082.7524  129416243.44846 100843809.15145
        39.0004         36.0004
  20767043.6244                                  109131562.82146
        39.0004
  22620807.7994                   22620799.9444  118873177.68847  92628420.93546
        44.0004         40.0004
 03  8  4  1 39  0.0000000  0 10G28G31G13G27G 8G 3G 1G 2G22G10
  23628642.9094                   23628635.0524  124169366.62346  96755316.85145
        40.0004         36.0004
  22368181.2374                   22368173.3094  117545610.08147  91593954.15946
        43.0004         40.0004
  21765870.8924                   21765861.8704  114380455.60748  89127603.75547
        47.0004         44.0004
  20417301.7314                   20417293.2224  107293702.64148  83605489.13848
        48.0004         47.0004
  20756096.9344                   20756088.5274  109074077.76349  84992765.65548
        49.0004         46.0004
  22977819.3224                   22977811.7654  120749262.33946  94090257.41246
        41.0004         39.0004
  24061746.2954                   24061739.9504  126445344.15145  98528822.63444
        37.0004         34.0004
  24643916.7894                   24643910.1894  129504672.24845 100912714.69045
        38.0004         36.0004
  20756097.2894                                  109074039.75346
        40.0004
  22617560.8854                   22617553.0174  118856115.16647  92615125.50146
        44.0004         40.0004
 03  8  4  1 39 30.0000000  0 10G28G31G13G27G 8G 3G 1G 2G22G10
  23608987.5964                   23608979.7194  124066077.56746  96674831.92545
        40.0004         36.0004
  22357890.7064                   22357882.7494  117491533.16046  91551816.35146
        41.0004         40.0004
  21781774.6964                   21781765.6734  114464030.65748  89192727.16747
        47.0004         43.0004
  20416004.6524                   20415996.1454  107286886.44948  83600177.82448
        48.0004         47.0004
  20745240.3604                   20745231.9404  109017026.14649  84948309.86948
        49.0004         46.0004
  22979716.8244                   22979709.2644  120759233.84346  94098027.41745
        40.0004         38.0004
  24081895.8654                   24081889.5304  126551230.29545  98611331.16944
        36.0004         35.0004
  24660792.5554                   24660785.9404  129593354.68545 100981817.82044
        38.0004         35.0004
  20745240.7074                                  109016988.15646
        41.0004
  22614458.6774                   22614450.8094  118839813.07547  92602422.60146
        44.0004         40.0004
 03  8  4  1 40  0.0000000  0 10G28G31G13G27G 8G 3G 1G 2G22G10
  23589394.5334                   23589386.5954  123963115.64146  96594601.91745
        40.0004         36.0004
  22347730.5164                   22347722.5604  117438141.06447  91510212.13546
        42.0004         40.0004
  21797774.3734                   21797765.3644  114548109.34048  89258242.97847
        47.0004         43.0004
  20414796.2484                   20414787.7404  107280536.30548  83595229.67148
        48.0004         47.0004
  20734474.3874                   20734465.9664  108960450.64149  84904225.06848
        49.0004         46.0004
  22981756.2004                   22981748.6504  120769950.95846  94106378.42345
        41.0004         38.0004
  24102102.1354                   24102095.7894  126657414.64745  98694072.17544
        37.0004         35.0004
  24677716.9714                   24677710.3704  129682292.77645 101051120.15844
        38.0004         35.0004
  20734474.8164                                  108960412.64346
        41.0004
  22611501.9634                   22611494.0814  118824275.37447  92590315.29746
        44.0004         40.0004
 03  8  4  1 40 30.0000000  0 10G28G31G13G27G 8G 3G 1G 2G22G10
  23569805.3314                   23569797.3324  123860173.94146  96514387.66345
        41.0004         37.0004
  22337642.3804                   22337634.3834  117385127.55247  91468902.92446
        42.0004         40.0004
  21813810.8564                   21813801.8334  114632381.56748  89323909.63747
        46.0004         43.0004
  20413617.9244                   20413609.4014  107274344.23448  83590404.69748
        48.0004         47.0004
  20723740.4154                   20723731.9664  108904043.29749  84860271.32148
        49.0004         46.0004
  22983878.7334                   22983871.1814  120781105.00947  94115069.89546
        42.0004         39.0004
  24122306.1774                   24122299.8744  126763587.16845  98776803.90044
        37.0004         35.0004
  24694630.9314                   24694624.2764  129771176.30245 101120380.08744
        37.0004         35.0004
  20723740.8064                                  108904005.29246
        40.0004
  22608632.0624                   22608624.1534  118809194.13047  92578563.73446
        44.0004         40.0004
 03  8  4  1 41  0.0000000  0 10G28G31G13G27G 8G 3G 1G 2G22G10
  23550221.1124                   23550213.0844  123757258.54846  96434193.94045
        40.0004         36.0004
  22327627.4894                   22327619.4664  117332499.19547  91427893.88946
        43.0004         40.0004
  21829884.6214                   21829875.6244  114716849.71148  89389728.93847
        47.0004         43.0004
  20412470.5464                   20412462.0374  107268314.72049  83585706.36948
        49.0004         47.0004
  20713039.4654                   20713031.0154  108847809.55049  84816452.84048
        50.0004         47.0004
  22986085.1654                   22986077.6024  120792699.76146  94124104.75746
        41.0004         39.0004
  24142508.3834                   24142502.0844  126869750.28845  98859528.38344
        37.0004         34.0004
  24711535.0824                   24711528.3864  129860007.90245 101189599.46744
        38.0004         35.0004
  20713039.8624                                  108847771.57246
        40.0004
  22605849.9984                   22605842.1044  118794574.16047  92567171.51946
        44.0004         40.0004
 03  8  4  1 41 30.0000000  0 10G28G31G13G27G 8G 3G 1G 2G22G10
  23530699.7034                   23530691.6754  123654673.22546  96354257.41045
        40.0004         37.0004
  22317743.8274                   22317735.7904  117280560.39047  91387422.13646
        42.0004         40.0004
  21846052.8854                   21846043.9024  114801814.44748  89455935.21047
        46.0004         43.0004
  20411411.5884                   20411403.0664  107262749.85749  83581370.12148
        49.0004         47.0004
  20702429.1474                   20702420.6854  108792051.95349  84773005.37248
        49.0004         46.0004
  22988432.8134                   22988425.2514  120805036.92446  94133718.17545
        41.0004         38.0004
  24162766.0324                   24162759.7184  126976204.57845  98942479.69844
        36.0004         34.0004
  24728486.5694                   24728479.9274  129949087.88045 101259012.25744
        37.0004         35.0004
  20702429.5494                                  108792013.93946
        41.0004
  22603213.1504                   22603205.2704  118780717.55548  92556374.18846
        45.0004         40.0004
 03  8  4  1 42  0.0000000  0 10G28G31G13G27G 8G 3G 1G 2G22G10
  23511212.2954                   23511204.2564  123552266.51946  96274460.06245
        41.0004         37.0004
  22307962.6714                   22307954.6214  117229160.13147  91347370.01146
        43.0004         40.0004
  21862286.2124                   21862277.2414  114887121.09248  89522407.89147
        47.0004         43.0004
  20410411.9074                   20410403.3994  107257496.56348  83577276.65548
        48.0004         47.0004
  20691880.4534                   20691871.9914  108736618.25549  84729810.29748
        49.0004         47.0004
  22990892.5444                   22990884.9804  120817963.08646  94143790.54245
        41.0004         38.0004
  24183049.6454                   24183043.3504  127082795.12345  99025537.15444
        36.0004         34.0004
  24745455.7454                   24745449.1224  130038261.37745 101328498.08644
        38.0004         34.0004
  20691880.8234                                  108736580.26246
        40.0004
  22600692.4854                   22600684.6104  118767471.37247  92546052.50746
        44.0004         41.0004
 03  8  4  1 42 30.0000000  0 10G28G31G13G27G 8G 3G 1G 2G22G10
  23491730.0964                   23491722.0154  123449886.99846  96194683.85345
        40.0004         37.0004
  22298255.3074                   22298247.2554  117178147.71547  91307620.09746
        43.0004         40.0004
  21878555.2084                   21878546.2384  114972615.12048  89589026.59247
        46.0004         43.0004
  20409442.4594                   20409433.9514  107252402.07848  83573306.92448
        48.0004         47.0004
  20681364.4264                   20681355.9524  108681356.22349  84686749.00248
        49.0004         46.0004
  22993435.1854                   22993427.6214  120831324.81646  94154202.29645
        41.0004         38.0004
  24203329.7574                                  127189367.32945
        36.0004
  24762413.2824                   24762406.6014  130127373.77345 101397936.31444
        38.0004         35.0004
  20681364.8064                                  108681318.21846
        41.0004
  22598258.9154                   22598251.0564  118754683.00247  92536087.57346
        43.0004         40.0004
 03  8  4  1 43  0.0000000  0 10G28G31G13G27G 8G 3G 1G 2G22G10
  23472312.5534                   23472304.4594  123347847.49846  96115172.64545
        41.0004         37.0004
  22288681.3804                   22288673.2864  117127836.44847  91268416.54246
        43.0004         40.0004
  21894918.7074                   21894909.7364  115058605.76248  89656032.25647
        47.0004         43.0004
  20408562.4504                   20408553.9294  107247777.60248  83569703.44548
        48.0004         47.0004
  20670940.4294                   20670931.9684  108626577.81149  84644064.52948
        49.0004         46.0004
  22996119.8544                   22996112.3064  120845432.78647  94165195.50646
        42.0004         39.0004
  24223665.2884                                  127296230.45445
        36.0004
  24779418.1004                   24779411.3834  130216734.50845 101467567.99444
        37.0004         34.0004
  20670940.7974                                  108626539.80746
        41.0004
  22595971.6814                   22595963.8534  118742663.50647  92526721.73546
        43.0004         40.0004
 03  8  4  1 43 30.0000000  0 10G28G31G13G27G 8G 3G 1G 2G22G10
  23452930.6574                   23452922.5644  123245995.00646  96035807.08845
        41.0004         37.0004
  22279211.8134                   22279203.7434  117078073.72547  91229640.41046
        44.0004         40.0004
  21911346.9314                   21911337.9884  115144936.66248  89723303.07647
        46.0004         43.0004
  20407742.4864                   20407733.9654  107243468.65849  83566345.82848
        49.0004         47.0004
  20660579.1364                   20660570.6624  108572128.91049  84601636.83948
        50.0004         46.0004
  22998917.0554                   22998909.5354  120860132.17547  94176649.56546
        42.0004         39.0004
  24244026.3044                                  127403228.19245
        37.0004
  24796440.4154                   24796433.6964  130306187.06545 101537271.20844
        38.0004         34.0004
  20660579.5144                                  108572090.89646
        41.0004
  22593801.3594                   22593793.5794  118731258.51347  92517834.76146
        42.0004         41.0004
 03  8  4  1 44  0.0000000  0 10G28G31G13G27G 8G 3G 1G 2G22G10
  23433583.7744                   23433575.6564  123144326.70046  95956585.10745
        41.0004         38.0004
  22269846.2314                   22269838.1734  117028857.38747  91191290.03046
        43.0004         40.0004
  21927838.8324                   21927829.8904  115231601.99848  89790834.47047
        46.0004         43.0004
  20406981.6924                   20406973.1854  107239470.72248  83563230.56248
        48.0004         47.0004
  20650279.8894                   20650271.4154  108518006.06548  84559463.20848
        48.0004         46.0004
  23001825.8844                   23001818.3634  120875418.11346  94188560.66946
        41.0004         39.0004
  24264411.7434                                  127510354.33445
        36.0004
  24813479.0394                   24813472.3184  130395725.38845 101607041.26644
        36.0004         34.0004
  20650280.2704                                  108517968.06646
        40.0004
  22591747.2124                   22591739.7524  118720463.95947  92509423.43346
        42.0004         40.0004
 03  8  4  1 44 30.0000000  0 10G28G31G13G27G 8G 3G 1G 2G22G10
  23414272.6524                   23414264.5134  123042846.44647  95877509.70545
        42.0004         38.0004
  22260585.4334                   22260577.3494  116980191.68747  91153368.75246
        44.0004         40.0004
  21944394.3774                   21944385.4454  115318602.03748  89858626.70247
        46.0004         42.0004
  20406280.5574                   20406272.0634  107235786.23449  83560359.52348
        49.0004         47.0004
  20640043.1844                   20640034.7094  108464211.94549  84517545.72948
        49.0004         47.0004
  23004846.6334                   23004839.1254  120891292.25847  94200930.12246
        42.0004         39.0004
  24284821.9094                                  127617609.41845
        37.0004
  24830534.0364                                  130485349.93845
        36.0004
  20640043.5414                                  108464173.94546
        40.0004
  22589809.6524                   22589802.1014  118710282.01347  92501489.45246
        43.0004         40.0004
 03  8  4  1 45  0.0000000  0 10G28G31G13G27G 8G 3G 1G 2G22G10
  23395026.2934                   23395018.0984  122941706.52146  95798699.47945
        41.0004         37.0004
  22251458.4734                   22251450.3614  116932229.31547  91115995.51446
        44.0004         40.0004
  21961042.0464                   21961033.1414  115406086.00448  89926795.98147
        46.0004         43.0004
  20405667.7124                   20405659.2044  107232565.70948  83557850.03048
        48.0004         47.0004
  20629897.8864                   20629889.4104  108410898.10449  84476002.49148
        49.0004         46.0004
  23008007.8024                   23008000.2954  120907904.43446  94213874.71046
        41.0004         39.0004
  24305284.7714                                  127725133.29855
        37.0004
  24847633.8854                                  130575209.62745
        37.0004
  20629898.1974                                  108410860.11146
        41.0004
  22588017.3884                   22588009.7624  118700863.60147  92494150.43446
        44.0004         40.0004
 03  8  4  1 45 30.0000000  0 10G28G31G13G27G 8G 3G 1G 2G22G10
  23375787.5794                   23375779.3564  122840606.77347  95719920.54745
        42.0004         38.0004
  22242408.3474                   22242400.2214  116884670.64347  91078936.82646
        43.0004         40.0004
  21977723.9454                   21977715.0514  115493749.97548  89995105.55147
        45.0004         42.0004
  20405085.7644                   20405077.2574  107229507.55648  83555467.05648
        47.0004         47.0004
  20619786.6834                   20619778.1944  108357763.43549  84434598.87748
        50.0004         47.0004
  23011251.9694                   23011244.4344  120924952.64746  94227159.04245
        41.0004         38.0004
  24325742.2464                                  127832640.36544
        35.0004
  24864720.5024                   24864713.8294  130665000.90245 101816846.18554
        37.0004         34.0004
  20619787.1244                                  108357725.44146
        40.0004
  22586312.9244                   22586305.2504  118691906.71047  92487171.05746
        43.0004         40.0004
 03  8  4  1 46  0.0000000  0 10G28G31G13G27G 8G 3G 1G 2G22G10
  23356585.4924                   23356577.2454  122739699.24846  95641291.36245
        41.0004         38.0004
  22233464.0364                   22233455.9224  116837668.15947  91042311.54346
        43.0004         40.0004
  21994468.4694                   21994459.6004  115581742.98148  90063671.49547
        46.0004         42.0004
  20404563.3134                   20404554.8054  107226762.11748  83553327.76348
        48.0004         47.0004
  20609738.3984                   20609729.9114  108304959.34349  84393452.83648
        49.0004         46.0004
  23014607.6034                   23014600.0804  120942586.68447  94240899.85246
        42.0004         39.0004
  24346223.6204                                  127940270.52345
        36.0004
  24881822.9824                   24881816.1454  130754872.79145 101886876.24744
        37.0004         34.0004
  20609738.9354                                  108304921.35046
        40.0004
  22584724.9674                   22584717.2354  118683561.93747  92480668.65146
        43.0004         40.0004
 03  8  4  1 46 30.0000000  0 10G28G31G13G27G 8G 3G 1G 2G22G10
  23337449.5714                   23337441.2964  122639139.67746  95562933.35045
        41.0004         38.0004
  22224655.3134                   22224647.1894  116791378.13647  91006241.44146
        44.0004         40.0004
  22011304.5974                   22011295.7244  115670217.42848  90132612.60747
        46.0004         42.0004
  20404129.9074                   20404121.3994  107224484.55448  83551553.04048
        48.0004         47.0004
  20599782.4574                   20599773.9694  108252640.64449  84352685.04248
        50.0004         47.0004
  23018103.9854                   23018096.4894  120960960.29646  94255216.93546
        41.0004         39.0004
  24366757.3444                                  128048176.09745
        36.0004
  24898969.4574                   24898962.9064  130844977.75045 101957087.80744
        37.0004         34.0004
  20599782.8494                                  108252602.64346
        40.0004
  22583282.8194                   22583275.0724  118675983.45847  92474763.35746
        44.0004         40.0004
 03  8  4  1 47  0.0000000  0 10G28G31G13G27G 8G 3G 1G 2G22G10
  23318292.9944                   23318284.6784  122538471.50046  95484490.69945
        41.0004         38.0004
  22215895.3504                   22215887.2274  116745344.28147  90970370.92346
        44.0004         40.0004
  22028144.8354                   22028135.9634  115758713.35148  90201570.44447
        46.0004         42.0004
  20403698.1674                   20403689.6724  107222215.80848  83549785.18848
        48.0004         47.0004
  20589831.8124                   20589823.3114  108200349.71449  84311938.88848
        49.0004         47.0004
  23021653.7444                   23021646.2524  120979614.34646  94269752.55846
        41.0004         39.0004
  24387256.0284                                  128155897.16045
        36.0004
  24916072.5874                   24916066.0034  130934855.68045 102027122.62944
        37.0004         34.0004
  20589832.2284                                  108200311.71246
        40.0004
  22581899.2674                   22581891.5184  118668713.03447  92469098.12446
        44.0004         41.0004
 03  8  4  1 47 30.0000000  0 11G28G29G31G13G27G 8G 3G 1G 2G22G10
  23299203.2684                   23299194.9684  122438154.62546  95406321.78145
        41.0004         38.0004
  24513563.9634                                  128819649.52355
        37.0004
  22207271.7154                   22207263.5804  116700026.77147  90935058.59146
        44.0004         40.0004
  22045076.0264                   22045067.1684  115847687.23548  90270900.71447
        47.0004         42.0004
  20403355.3634                   20403346.8664  107220414.42348  83548381.52048
        48.0004         47.0004
  20579973.8064                   20579965.3184  108148545.60349  84271572.05648
        49.0004         47.0004
  23025344.0094                   23025336.5194  120999006.75447  94284863.52246
        42.0004         39.0004
  24407806.5044                                  128263889.95145
        36.0004
  24933219.3884                   24933212.9884  131024963.22945 102097336.29144
        37.0004         34.0004
  20579974.3424                                  108148507.60946
        40.0004
  22580661.5734                   22580653.7954  118662208.96948  92464030.04346
        45.0004         40.0004
 03  8  4  1 48  0.0000000  0 10G28G31G13G27G 8G 3G 1G 2G22G10
  23280180.9124                   23280172.5704  122338191.90747  95328428.86545
        42.0004         38.0004
  22198785.0694                   22198776.9244  116655429.20947  90900307.28146
        44.0004         40.0004
  22062098.1354                   22062089.2784  115937138.89848  90340603.28247
        46.0004         42.0004
  20403101.7984                   20403093.3034  107219081.93148  83547343.22048
        48.0004         46.0004
  20570208.8804                   20570200.3804  108097230.57149  84231586.32848
        50.0004         47.0004
  23029174.9584                   23029167.4424  121019138.52946  94300550.63646
        41.0004         39.0004
  24428408.7824                                  128372154.34145
        36.0004
  24950410.0444                   24950403.6194  131115300.23545 102167728.61444
        36.0004         34.0004
  20570209.3194                                  108097192.57046
        41.0004
  22579569.9844                   22579562.1904  118656472.69547  92459560.22946
        44.0004         40.0004
 03  8  4  1 48 30.0000000  0 10G28G31G13G27G 8G 3G 1G 2G22G10
  23261197.8554                   23261189.5284  122238435.52147  95250696.67046
        42.0004         39.0004
  22190407.2704                   22190399.1104  116611403.70147  90866001.72246
        44.0004         40.0004
  22079182.3564                   22079173.5004  116026916.96048  90410560.18947
        45.0004         42.0004
  20402909.0114                   20402900.5144  107218068.82548  83546553.78148
        48.0004         47.0004
  20560508.6254                   20560500.1234  108046255.51249  84191865.52448
        50.0004         47.0004
  23033117.9694                   23033110.4514  121039859.25247  94316696.66146
        42.0004         39.0004
  24449033.9104                                  128480538.93445
        36.0004
  24967615.4324                   24967608.9764  131205715.28545 102238181.92344
        36.0004         33.0004
  20560508.9554                                  108046217.49946
        41.0004
  22578595.9764                   22578588.1694  118651354.30747  92455571.89846
        44.0004         40.0004
 03  8  4  1 49  0.0000000  0 10G28G31G13G27G 8G 3G 1G 2G22G10
  23242194.8634                   23242186.5384  122138574.56047  95172883.04046
        42.0004         39.0004
  22182079.2654                   22182071.0934  116567639.74247  90831899.94546
        44.0004         40.0004
  22096268.8564                   22096259.9994  116116707.06048  90480526.48347
        46.0004         42.0004
  20402717.5064                   20402709.0104  107217062.52248  83545769.66748
        48.0004         47.0004
  20550813.7864                   20550805.2864  107995308.85549  84152166.84748
        49.0004         47.0004
  23037113.4514                   23037105.9464  121060855.52646  94333057.35946
        41.0004         39.0004
  24469621.7484                                  128588729.56445
        36.0004
  24984775.8504                                  131295894.26444
        35.0004
  20550814.1064                                  107995270.84946
        40.0004
  22577680.1754                   22577672.3664  118646541.68247  92451821.77946
        44.0004         40.0004
 03  8  4  1 49 30.0000000  0 10G28G31G13G27G 8G 3G 1G 2G22G10
  23223289.6254                   23223281.2604  122039227.17747  95095469.58545
        42.0004         38.0004
  22173918.7354                   22173910.5364  116524755.99447  90798484.07946
        43.0004         40.0004
  22113474.6774                   22113465.8344  116207124.19748  90550981.37847
        46.0004         42.0004
  20402644.6844                   20402636.1754  107216679.84348  83545471.48048
        48.0004         47.0004
  20541241.8244                   20541233.3104  107945007.91849  84112971.33248
        49.0004         46.0004
  23041278.5704                   23041271.0554  121082743.25247  94350112.72346
        42.0004         39.0004
  24490289.7044                                  128697341.15645
        36.0004
  25002008.2984                                  131386452.57844
        35.0004
  20541242.2984                   20541233.1904  107944969.90646  84112901.27554
        41.0004         34.0004
  22576939.7794                   22576931.9554  118642650.99847  92448790.10346
        44.0004         41.0004
 03  8  4  1 50  0.0000000  0 10G28G31G13G27G 8G 3G 1G 2G22G10
  23204423.7784                   23204415.4124  121940086.72947  95018217.34345
        42.0004         38.0004
  22165867.4124                   22165859.1994  116482446.00547  90765515.26246
        44.0004         41.0004
  22130740.8604                   22130732.0194  116297858.41648  90621683.33247
        46.0004         42.0004
  20402631.9854                   20402623.4774  107216613.10848  83545419.48648
        48.0004         47.0004
  20531734.2434                   20531725.7164  107895045.30449  84074039.44848
        49.0004         47.0004
  23045554.5104                   23045546.9824  121105213.46747  94367621.99046
        42.0004         39.0004
  24510979.1884                                  128806063.69245
        36.0004
  25019254.2264                                  131477079.72944
        35.0004
  20531734.6344                   20531725.8574  107895007.29546  84073969.46144
        40.0004         34.0004
  22576316.1004                   22576308.2784  118639373.66547  92446236.37646
        44.0004         40.0004
 03  8  4  1 50 30.0000000  0 10G28G31G13G27G 8G 3G 1G 2G22G10
  23185568.4774                   23185560.0994  121841001.89147  94941008.48545
        42.0004         38.0004
  22157896.5154                   22157888.2914  116440558.72247  90732875.85046
        44.0004         40.0004
  22148037.8634                   22148029.0354  116388754.65348  90692511.53447
        46.0004         42.0004
  20402650.2114                   20402641.6894  107216708.88848  83545494.12248
        48.0004         47.0004
  20522262.0364                   20522253.5214  107845268.58249  84035252.39548
        49.0004         46.0004
  23049912.0914                   23049904.5374  121128112.64646  94385465.51346
        41.0004         39.0004
  24531660.1404                                  128914742.45045
        36.0004
  25036483.8834                                  131567621.43944
        35.0004
  20522262.4144                   20522253.9634  107845230.56846  84035182.39144
        40.0004         34.0004
  22575780.0614                   22575772.2394  118636556.76547  92444041.38546
        44.0004         40.0004
 03  8  4  1 51  0.0000000  0 10G28G31G13G27G 8G 3G 1G 2G22G10
  23166783.7164                   23166775.3244  121742287.61947  94864088.34846
        42.0004         39.0004
  22150066.0324                   22150057.8084  116399409.37847  90700811.45946
        43.0004         41.0004
  22165425.0354                   22165416.2344  116480124.79948  90763709.02147
        45.0004         42.0004
  20402759.0354                   20402750.5114  107217280.82348  83545939.79448
        48.0004         47.0004
  20512884.9964                   20512876.4684  107795991.96749  83996855.05248
        49.0004         47.0004
  23054410.7414                   23054403.1864  121151753.33946  94403886.85345
        41.0004         38.0004
  24552392.1164                                  129023688.84744
        35.0004
  25053756.2674                                  131658389.17944
        34.0004
  20512885.4004                   20512876.9144  107795953.96746  83996785.00344
        41.0004         34.0004
  22575391.2564                   22575383.4354  118634513.64247  92442449.36346
        44.0004         40.0004
 03  8  4  1 51 30.0000000  0 10G28G31G13G27G 8G 3G 1G 2G22G10
  23147980.9544                   23147972.5364  121643478.81447  94787094.57346
        42.0004         39.0004
  22142287.5274                   22142279.3184  116358533.12547  90668959.84346
        44.0004         40.0004
  22182813.2734                   22182804.4844  116571500.54148  90834910.87147
        45.0004         42.0004
  20402869.6794                   20402861.1574  107217862.26148  83546392.86948
        48.0004         47.0004
  20503514.4474                   20503505.9194  107746749.46349  83958484.28448
        49.0004         46.0004
  23058961.5984                   23058954.0574  121175668.12946  94422521.72245
        41.0004         38.0004
  24573085.9874                                  129132434.62344
        35.0004
  25070982.8934                                  131748914.96245
        36.0004
  20503514.8284                   20503506.2844  107746711.46646  83958414.27844
        40.0004         34.0004
  22575060.7964                   22575052.9754  118632777.19047  92441096.30746
        43.0004         40.0004
 03  8  4  1 52  0.0000000  0 10G28G31G13G27G 8G 3G 1G 2G22G10
  23129307.5224                   23129299.1024  121545349.70347  94710630.42145
        42.0004         38.0004
  22134708.3114                   22134700.1144  116318704.32547  90637924.45646
        44.0004         41.0004
  22200349.2404                   22200340.4774  116663652.60748  90906717.64446
        45.0004         41.0004
  20403129.1194                   20403120.5814  107219225.68948  83547455.29448
        48.0004         47.0004
  20494297.5584                   20494289.0164  107698314.44849  83920742.73348
        50.0004         47.0004
  23063711.3984                   23063703.8544  121200628.68547  94441971.53646
        42.0004         39.0004
  24593887.9134                                  129241750.66644
        35.0004
  25088309.6144                                  131839969.67845
        37.0004
  20494297.9014                   20494289.5294  107698276.43546  83920672.77044
        40.0004         35.0004
  22574935.6554                   22574927.8484  118632119.56947  92440583.87446
        43.0004         40.0004
 03  8  4  1 52 30.0000000  0 10G28G31G13G27G 8G 3G 1G 2G22G10
  23110586.2904                   23110577.8694  121446969.21847  94633970.35346
        42.0004         39.0004
  22127151.3014                   22127143.0914  116278992.15747  90606979.95846
        44.0004         41.0004
  22217855.0694                   22217846.3324  116755646.36048  90978401.06947
        45.0004         42.0004
  20403360.0424                   20403351.5054  107220439.20048  83548400.88948
        48.0004         47.0004
  20485056.9904                   20485048.4624  107649754.99549  83882904.20648
        49.0004         47.0004
  23068482.5744                   23068475.0284  121225701.50846  94461508.82046
        41.0004         39.0004
  24614620.8354                                  129350702.34744
        34.0004
  25105559.8034                                  131930619.03445
        36.0004
  20485057.3784                   20485048.9824  107649716.97046  83882834.15144
        40.0004         34.0004
  22574838.3104                   22574830.4744  118631607.95347  92440185.20446
        44.0004         40.0004
 03  8  4  1 53  0.0000000  0 10G28G31G13G27G 8G 3G 1G 2G22G10
  23091994.4694                   23091986.0344  121349268.91147  94557840.33346
        42.0004         39.0004
  22119793.8364                   22119785.6114  116240328.41547  90576852.37246
        44.0004         41.0004
  22235507.4884                   22235498.7624  116848410.32247  91050684.63246
        44.0004         41.0004
  20403739.3144                   20403730.7904  107222432.28548  83549953.93748
        48.0004         47.0004
  20475969.8644                   20475961.3364  107602001.88949  83845694.01048
        49.0004         47.0004
  23073452.0254                   23073444.4934  121251816.08746  94481857.82045
        41.0004         38.0004
  24635461.1774                                  129460218.26845
        36.0004
  25122909.4844                                  132021791.53545
        36.0004
  20475970.2324                   20475961.7344  107601963.88646  83845624.01244
        40.0004         34.0004
  22574945.7194                   22574937.8824  118632172.45647  92440625.08646
        44.0004         41.0004
 03  8  4  1 53 30.0000000  0 10G28G31G13G27G 8G 3G 1G 2G22G10
  23073385.4094                   23073376.9744  121251477.95447  94481639.65546
        42.0004         39.0004
  22112489.2174                   22112480.9824  116201942.32048  90546941.13846
        45.0004         41.0004
  22253159.0834                   22253150.3574  116941169.95448  91122964.83846
        45.0004         41.0004
  20404119.9924                   20404111.4674  107224432.88948  83551512.86748
        48.0004         47.0004
  20466889.3454                   20466880.8044  107554283.43749  83808510.81048
        50.0004         47.0004
  23078472.4464                   23078464.9424  121278198.64246  94502415.65946
        41.0004         39.0004
  24656261.6494                                  129569524.05144
        35.0004
  25140211.4154                                  132112713.17645
        36.0004
  20466889.7424                   20466881.2624  107554245.46246  83808440.80944
        41.0004         34.0004
  22575110.7714                   22575102.9334  118633039.86947  92441301.00246
        43.0004         41.0004
 03  8  4  1 54  0.0000000  0 10G28G31G13G27G 8G 3G 1G 2G22G10
  23054847.4104                   23054838.9744  121154060.30247  94405729.83346
        42.0004         39.0004
  22105325.7274                   22105317.4804  116164298.11547  90517608.04246
        44.0004         41.0004
  22270897.4724                   22270888.7594  117034385.81947  91195600.56546
        44.0004         41.0004
  20404590.1074                   20404581.5684  107226903.29548  83553437.85248
        48.0004         47.0004
  20457903.5294                   20457895.0024  107507062.78449  83771715.51548
        49.0004         47.0004
  23083631.7344                   23083624.2834  121305310.94446  94523542.11046
        41.0004         39.0004
  24677109.3604                                  129679080.44844
        34.0004
  25157552.9904                                  132203844.64045
        36.0004
  20457903.9104                   20457895.3854  107507024.78446  83771645.52144
        41.0004         34.0004
  22575421.4234                   22575413.5724  118634672.42347  92442573.14346
        43.0004         41.0004
 03  8  4  1 54 30.0000000  0 10G28G31G13G27G 8G 3G 1G 2G22G10
  23036322.6284                   23036314.1644  121056712.34847  94329874.39446
        42.0004         39.0004
  22098245.6664                   22098237.4174  116127092.20747  90488616.43346
        44.0004         41.0004
  22288664.3624                   22288655.6514  117127751.20848  91268352.76747
        45.0004         42.0004
  20405091.5954                   20405083.0684  107229538.76048  83555491.47548
        48.0004         46.0004
  20448954.5014                   20448945.9594  107460035.32149  83735070.74448
        50.0004         47.0004
  23088871.6034                   23088864.1804  121332846.76346  94544998.61445
        41.0004         38.0004
  24697946.4824                                  129788580.45344
        35.0004
  25174876.3724                                  132294879.18745
        36.0004
  20448954.8664                   20448946.3744  107459997.30546  83735000.75444
        41.0004         34.0004
  22575819.5114                   22575811.6594  118636764.51047  92444203.36946
        44.0004         41.0004
 03  8  4  1 55  0.0000000  0 10G28G31G13G27G 8G 3G 1G 2G22G10
  23017840.3114                   23017831.8624  120959587.36847  94254192.64446
        43.0004         39.0004
  22091278.2224                   22091269.9484  116090478.04347  90460085.93746
        44.0004         41.0004
  22306488.2164                   22306479.5184  117221416.06848  91341338.33546
        45.0004         41.0004
  20405653.3284                   20405644.7884  107232490.68848  83557791.68548
        48.0004         47.0004
  20440071.2754                   20440062.7224  107413353.65349  83698695.43448
        49.0004         47.0004
  23094220.7984                   23094213.3624  121360956.84846  94566902.55745
        41.0004         38.0004
  24718801.5054                                  129898173.96444
        35.0004
  25192209.8984                                  132385967.11045
        36.0004
  20440071.6544                   20440063.2064  107413315.64446  83698625.41744
        41.0004         35.0004
  22576333.9224                   22576326.0574  118639467.82547  92446309.86646
        43.0004         41.0004
 03  8  4  1 55 30.0000000  0 10G28G31G13G27G 8G 3G 1G 2G22G10
  22999429.6584                   22999421.1804  120862838.98647  94178804.35646
        43.0004         39.0004
  22084452.5834                   22084444.3094  116054609.25347  90432136.27146
        44.0004         41.0004
  22324397.5634                   22324388.8764  117315530.25848  91414674.03946
        45.0004         41.0004
  20406304.2444                   20406295.7024  107235911.33648  83560457.13448
        47.0004         46.0004
  20431282.9144                   20431274.3604  107367170.57049  83662708.62648
        50.0004         47.0004
  23099707.9834                   23099700.5184  121389792.38846  94589371.85545
        41.0004         38.0004
  24739702.8294                                  130008018.16054
        33.0004
  25209582.2074                                  132477258.76945
        36.0004
  20431283.3304                   20431274.8074  107367132.56946  83662638.58044
        41.0004         34.0004
  22576993.4504                   22576985.5554  118642933.60247  92449010.46546
        44.0004         41.0004
 03  8  4  1 56  0.0000000  0 10G28G31G13G27G 8G 3G 1G 2G22G10
  22981092.1254                   22981083.6174  120766474.84647  94103715.47446
        42.0004         39.0004
  22077770.3204                   22077762.0314  116019493.72248  90404773.52446
        45.0004         41.0004
  22342393.2924                   22342384.6224  117410098.32948  91488363.42046
        45.0004         41.0004
  20407045.5844                   20407037.0424  107239807.10448  83563492.79748
        48.0004         47.0004
  20422590.7234                   20422582.1704  107321492.79649  83627115.55948
        50.0004         47.0004
  23105334.2324                   23105326.7824  121419358.52846  94612410.40345
        41.0004         38.0004
  24760651.8184                                  130118103.34344
        35.0004
  25226994.1154                                  132568758.90144
        35.0004
  20422591.0824                   20422582.4684  107321454.80846  83627045.59444
        40.0004         34.0004
  22577799.1094                   22577791.2274  118647167.43447  92452309.55446
        44.0004         40.0004
 03  8  4  1 56 30.0000000  0 10G28G31G13G27G 8G 3G 1G 2G22G10
  22962739.1514                   22962730.6154  120670029.81847  94028563.62446
        43.0004         39.0004
  22071142.8564                   22071134.5544  115984666.29047  90377635.30246
        43.0004         41.0004
  22360386.2314                   22360377.5894  117504651.80047  91562041.42646
        44.0004         41.0004
  20407788.4904                   20407779.9494  107243711.09848  83566534.87748
        47.0004         47.0004
  20413906.0374                   20413897.4704  107275854.52849  83591553.29248
        50.0004         47.0004
  23111010.5774                   23111003.1024  121449187.73346  94635653.92345
        41.0004         38.0004
  24781558.4134                                  130227968.30244
        34.0004
  25244356.7354                                  132659999.21145
        36.0004
  20413906.4184                   20413897.8254  107275816.52646  83591483.30444
        40.0004         34.0004
  22578662.0954                   22578654.1984  118651702.45647  92455843.33846
        43.0004         41.0004
 03  8  4  1 57  0.0000000  0 10G28G31G13G27G 8G 3G 1G 2G22G10
  22944458.9114                   22944450.3454  120573966.75847  93953709.34946
        43.0004         39.0004
  22064658.3034                   22064650.0024  115950589.79747  90351082.20546
        44.0004         41.0004
  22378463.8534                   22378455.2114  117599650.15647  91636066.08046
        44.0004         41.0004
  20408620.8264                   20408612.2854  107248085.11748  83569943.21548
        48.0004         47.0004
  20405316.7934                   20405308.2284  107230717.74649  83556381.78048
        49.0004         47.0004
  23116824.4694                   23116817.0064  121479740.13146  94659461.01145
        40.0004         38.0004
  24802510.4664                                  130338072.52344
        33.0004
  25261757.2534                                  132751439.30145
        36.0004
  20405317.2064                   20405308.6564  107230679.72546  83556311.72144
        41.0004         35.0004
  22579670.0524                   22579662.1684  118656999.30647  92459970.74646
        43.0004         40.0004
 03  8  4  1 57 30.0000000  0  9G28G31G13G27G 8G 3G 2G22G10
  22926193.9114                   22926185.3334  120477983.59947  93878917.30446
        43.0004         39.0004
  22058259.1964                   22058250.8984  115916962.26347  90324878.94446
        44.0004         41.0004
  22396568.0004                   22396559.3734  117694787.84148  91710199.28346
        45.0004         41.0004
  20409484.8114                   20409476.2704  107252625.39148  83573481.08848
        48.0004         46.0004
  20396765.3294                   20396756.7514  107185779.49649  83521364.97548
        49.0004         47.0004
  23122717.9784                   23122710.5284  121510710.85446  94683594.06245
        41.0004         38.0004
  25279137.6834                                  132842774.38944
        35.0004
  20396765.7064                   20396757.1274  107185741.47946  83521294.95144
        41.0004         33.0004
  22580765.0964                   22580757.2114  118662753.86247  92464454.82846
        44.0004         40.0004
 03  8  4  1 58  0.0000000  0 10G28G31G13G27G 8G 3G 1G 2G22G10
  22908002.6274                   22907994.0084  120382388.00847  93804427.30746
        42.0004         39.0004
  22052004.0294                   22051995.7434  115884091.32847  90299265.25746
        43.0004         41.0004
  22414756.5384                   22414747.9114  117790369.12547  91784678.18046
        44.0004         41.0004
  20410438.6754                   20410430.1314  107257638.03948  83577387.05548
        48.0004         47.0004
  20388310.0404                   20388301.4634  107141346.65649  83486741.98248
        49.0004         47.0004
  23128749.1844                   23128741.7354  121542405.05647  94708290.84645
        42.0004         38.0004
  24844435.0074                                  130558383.71954
        34.0004
  25296555.9874                                  132934308.69244
        34.0004
  20388310.3494                   20388301.6984  107141308.65446  83486672.07044
        41.0004         34.0004
  22582005.4124                   22581997.5154  118669271.76747  92469533.72646
        44.0004         41.0004
 03  8  4  1 58 30.0000000  0 11G28G29G31G13G27G 8G 3G 1G 2G22G10
  22889856.0774                   22889847.4334  120287027.49547  93730120.49046
        44.0004         40.0004
  24093051.0844                                  126609833.99555
        38.0004
  22045863.8214                   22045855.5494  115851824.44047  90274122.25046
        44.0004         41.0004
  22432999.8254                   22432991.2274  117886238.18647  91859381.32246
        44.0004         41.0004
  20411453.1424                   20411444.5984  107262969.10348  83581541.12748
        48.0004         47.0004
  20379921.7314                   20379913.1514  107097265.97949  83452393.43748
        49.0004         47.0004
  23134888.5764                   23134881.1584  121574667.71646  94733430.56945
        41.0004         38.0004
  24865435.6864                                  130668742.28444
        33.0004
  25313982.8614                                  133025886.72344
        35.0004
  20379922.0974                   20379913.4764  107097227.96846  83452323.45344
        40.0004         35.0004
  22583361.5114                   22583353.5974  118676398.30247  92475086.90546
        44.0004         40.0004
 03  8  4  1 59  0.0000000  0 10G28G31G13G27G 8G 3G 1G 2G22G10
  22871754.7304                   22871746.0724  120191904.58547  93655998.81746
        43.0004         40.0004
  22039839.0064                   22039830.7184  115820163.94747  90249451.76246
        44.0004         41.0004
  22451297.6784                   22451289.0924  117982393.92447  91934307.83346
        43.0004         41.0004
  20412528.4314                   20412519.8724  107268619.78248  83585944.25848
        48.0004         47.0004
  20371600.7344                   20371592.1424  107053538.84849  83418320.35848
        49.0004         47.0004
  23141136.0434                   23141128.6104  121607498.50446  94759013.03045
        41.0004         38.0004
  24886451.7814                                  130779182.23244
        34.0004
  25331417.7064                                  133117507.64044
        35.0004
  20371601.1964                   20371592.5864  107053500.83846  83418250.23844
        41.0004         34.0004
  22584833.5404                   22584825.6264  118684133.74247  92481114.49546
        44.0004         40.0004
 03  8  4  1 59 30.0000000  0 10G28G31G13G27G 8G 3G 1G 2G22G10
  22853698.7854                   22853690.1154  120097020.01847  93582062.81746
        44.0004         40.0004
  22033929.7604                   22033921.4724  115789110.71248  90225254.44946
        45.0004         41.0004
  22469649.6454                   22469641.0864  118078833.91347  92009455.80946
        44.0004         41.0004
  20413664.3894                   20413655.8304  107274589.28148  83590595.81648
        48.0004         47.0004
  20363347.0424                   20363338.4494  107010165.46249  83384522.92748
        49.0004         47.0004
  23147491.2764                   23147483.8424  121640895.66246  94785036.82945
        41.0004         38.0004
  24907482.6404                                  130889701.33044
        33.0004
  25348860.2514                                  133209169.76944
        34.0004
  20363347.4234                   20363338.8004  107010127.46846  83384452.92544
        41.0004         34.0004
  22586421.2214                   22586413.3094  118692477.06248  92487615.79046
        45.0004         41.0004
                            4  1
RINEX FILE SPLICE; other post-header comments skipped       COMMENT
 03  8  4  2  0  0.0000000  0 10G28G31G13G27G 8G 3G 1G 2G22G10
  22835688.4344                   22835679.7234  120002375.17047  93508313.64946
        44.0004         40.0004
  22028136.2794                   22028127.9784  115758665.82747  90201531.18746
        44.0004         41.0004
  22488055.2404                   22488046.6794  118175555.90447  92084823.57346
        44.0004         40.0004
  20414861.0024                   20414852.4444  107280877.58949  83595495.81148
        49.0004         47.0004
  20355160.7544                   20355152.1614  106967146.29149  83351001.50648
        50.0004         47.0004
  23153954.0514                   23153946.6174  121674857.77646  94811500.81245
        41.0004         38.0004
  24928528.6244                                  131000297.47244
        34.0004
  25366310.3644                                  133300870.91844
        35.0004
  20355161.0734                   20355152.4194  106967108.28346  83350931.56444
        41.0004         35.0004
  22588124.3684                   22588116.4834  118701427.22147  92494589.94146
        44.0004         40.0004
 03  8  4  2  0 30.0000000  0 10G28G31G13G27G 8G 3G 1G 2G22G10
  22817724.3214                   22817715.5974  119907973.30647  93434753.80746
        44.0004         39.0004
  22022459.2004                   22022450.8854  115728832.63848  90178284.56546
        45.0004         41.0004
  22506514.5834                   22506506.0504  118272560.22247  92160411.29646
        43.0004         40.0004
  20416118.6774                   20416110.1064  107287486.71748  83600645.78848
        48.0004         47.0004
  20347042.3784                   20347033.7744  106924483.94149  83317758.13148
        50.0004         47.0004
  23160524.4804                   23160517.0364  121709385.42547  94838405.45645
        42.0004         38.0004
  24949589.1484                                  131110970.77244
        33.0004
  25383768.2204                                  133392611.76044
        35.0004
  20347042.7134                   20347034.0774  106924445.95046  83317688.18544
        40.0004         34.0004
  22589943.2194                   22589935.3224  118710985.41247  92502037.90646
        44.0004         40.0004
 03  8  4  2  1  0.0000000  0 10G28G31G13G27G 8G 3G 1G 2G22G10
  22799835.7114                   22799826.9604  119813968.27447  93361503.20146
        43.0004         40.0004
  22016927.7774                   22016919.4484  115699764.93947  90155634.44246
        44.0004         41.0004
  22525056.2214                   22525047.7004  118369997.18347  92236336.19046
        43.0004         40.0004
  20417466.3144                   20417457.7574  107294568.59448  83606164.13148
        48.0004         47.0004
  20339021.0034                   20339012.4114  106882331.39049  83284911.99248
        49.0004         47.0004
  23167231.3174                   23167223.9034  121744629.90346  94865868.64245
        41.0004         38.0004
  24970693.1544                                  131221871.76344
        34.0004
  25401262.3474                                  133484542.76844
        34.0004
  20339021.3594                   20339012.7394  106882293.38946  83284842.02344
        41.0004         35.0004
  22591906.6354                   22591898.7394  118721303.17147  92510077.71046
        44.0004         40.0004
 03  8  4  2  1 30.0000000  0 10G28G31G13G27G 8G 3G 1G 2G22G10
  22781964.3194                   22781955.5294  119720053.66747  93288323.05446
        44.0004         40.0004
  22011483.6644                   22011475.3484  115671155.99847  90133341.76546
        44.0004         41.0004
  22543621.2044                   22543612.7074  118467556.64447  92312356.47846
        43.0004         40.0004
  20418845.4844                   20418836.9284  107301816.18648  83611811.60648
        48.0004         47.0004
  20331038.1844                   20331029.5814  106840381.39349  83252223.69848
        49.0004         47.0004
  23174015.6504                   23174008.2224  121780281.94146  94893649.48345
        41.0004         38.0004
  24991781.6074                                  131332690.70344
        33.0004
  25418733.7414                                  133576355.18844
        34.0004
  20331038.5054                   20331029.8404  106840343.39346  83252153.76144
        41.0004         35.0004
  22593955.8654                   22593947.9844  118732071.88147  92518468.89746
        44.0004         41.0004
 03  8  4  2  2  0.0000000  0 10G28G31G13G27G 8G 3G 1G 2G22G10
  22764168.5424                   22764159.7354  119626536.47548  93215452.56646
        45.0004         40.0004
  22006185.2294                   22006176.9134  115643312.59448  90111645.62046
        45.0004         41.0004
  22562267.2864                   22562258.8024  118565542.40247  92388708.99746
        44.0004         40.0004
  20420314.2074                   20420305.6494  107309534.37248  83617825.77448
        48.0004         47.0004
  20323152.1984                   20323143.5814  106798940.25649  83219931.91248
        50.0004         47.0004
  23180935.4574                   23180928.0324  121816645.70947  94921984.88245
        42.0004         38.0004
  25012911.7424                                  131443731.44144
        33.0004
  25436240.1634                                  133668352.68244
        35.0004
  20323152.5304                   20323143.8344  106798902.25446  83219861.94844
        41.0004         34.0004
  22596148.8694                   22596140.9604  118743596.38347  92527449.08346
        44.0004         40.0004
 03  8  4  2  2 30.0000000  0  9G28G31G13G27G 8G 3G 2G22G10
  22746390.4384                   22746381.6174  119533112.22147  93142654.51846
        44.0004         40.0004
  22000974.4984                   22000966.1844  115615930.07948  90090308.61746
        45.0004         41.0004
  22580935.9494                   22580927.4644  118663646.76147  92465153.92146
        44.0004         40.0004
  20421814.3044                   20421805.7464  107317417.50149  83623968.48348
        49.0004         47.0004
  20315304.9224                   20315296.3204  106757702.67249  83187798.75048
        50.0004         47.0004
  23187932.2564                   23187924.8314  121853414.01046  94950635.48045
        41.0004         38.0004
  25453723.3394                                  133760227.51644
        35.0004
  20315305.3124                   20315296.6174  106757664.65746  83187728.71944
        41.0004         34.0004
  22598427.3104                   22598419.4144  118755569.67447  92536778.90646
        44.0004         40.0004
 03  8  4  2  3  0.0000000  0 10G28G31G13G27G 8G 3G 1G 2G22G10
  22728630.9454                   22728622.1124  119439785.70847  93069932.62946
        44.0004         40.0004
  21995852.3284                   21995844.0144  115589013.08148  90069334.37746
        45.0004         41.0004
  22599627.3944                   22599618.9244  118761870.78247  92541692.07446
        44.0004         40.0004
  20423346.4134                   20423337.8564  107325468.79049  83630242.21948
        49.0004         47.0004
  20307497.1394                   20307488.5234  106716672.49549  83155827.19148
        50.0004         47.0004
  23195006.4414                   23194998.9754  121890589.04046  94979603.04445
        39.0004         37.0004
  25055123.5434                                  131665564.32354
        34.0004
  25471183.4794                                  133851981.73644
        34.0004
  20307497.4964                   20307488.8184  106716634.49546  83155757.21244
        41.0004         34.0004
  22600791.6574                   22600783.7624  118767994.33947  92546460.45446
        44.0004         40.0004
 03  8  4  2  3 30.0000000  0 10G28G31G13G27G 8G 3G 1G 2G22G10
  22710977.9954                   22710969.1504  119347019.07847  92997647.01246
        44.0004         40.0004
  21990906.6674                   21990898.3554  115563023.58647  90049082.85247
        44.0004         42.0004
  22618428.9454                   22618420.4754  118860673.47647  92618681.15946
        44.0004         40.0004
  20424998.2614                   20424989.6914  107334149.24549  83637006.20548
        49.0004         47.0004
  20299816.6454                   20299808.0424  106676311.34949  83124376.96748
        50.0004         47.0004
  23202245.4004                   23202237.9104  121928629.90446  95009245.27245
        41.0004         38.0004
  25076292.6234                                  131776809.03044
        33.0004
  25488707.6704                                  133944055.66754
        34.0004
  20299816.9764                   20299808.3294  106676273.34246  83124307.01844
        41.0004         34.0004
  22603329.4214                   22603321.5384  118781330.37747  92556852.16246
        44.0004         41.0004
 03  8  4  2  4  0.0000000  0 10G28G31G13G27G 8G 3G 1G 2G22G10
  22693372.9714                   22693364.1114  119254504.23747  92925557.56846
        44.0004         41.0004
  21986078.8114                   21986070.5124  115537653.09148  90029313.64646
        45.0004         41.0004
  22637281.3164                   22637272.8484  118959743.10447  92695878.22646
        44.0004         40.0004
  20426710.8684                   20426702.2974  107343149.05548  83644019.04148
        48.0004         47.0004
  20292204.6584                   20292196.0544  106636310.15349  83093207.21248
        50.0004         47.0004
  23209589.9434                   23209582.4524  121967225.67646  95039319.88345
        41.0004         38.0004
  25097474.1254                                  131888116.57344
        35.0004
  25506238.0244                                  134036176.11344
        34.0004
  20292205.0544                   20292196.4794  106636272.16846  83093137.20044
        41.0004         34.0004
  22605981.4674                   22605973.5704  118795266.97447  92567711.85346
        44.0004         40.0004
 03  8  4  2  4 30.0000000  0  9G28G31G13G27G 8G 3G 2G22G10
  22675787.3994                   22675778.4984  119162091.55947  92853547.73846
        44.0004         41.0004
  21981340.2094                   21981331.9094  115512751.75748  90009910.04247
        45.0004         42.0004
  22656155.4274                   22656146.9894  119058926.97647  92773164.30046
        44.0004         40.0004
  20428455.5224                   20428446.9654  107352317.33449  83651163.16348
        49.0004         47.0004
  20284632.5474                   20284623.9424  106596518.50049  83062200.74148
        50.0004         47.0004
  23217011.1154                   23217003.6094  122006224.19846  95069708.34345
        40.0004         38.0004
  25523744.2244                                  134128171.56344
        35.0004
  20284632.9054                   20284624.4224  106596480.50646  83062130.76744
        41.0004         35.0004
  22608718.9584                   22608711.0464  118809652.58547  92578921.42246
        44.0004         40.0004
 03  8  4  2  5  0.0000000  0  9G28G31G13G27G 8G 3G 2G22G10
  22658279.8954                   22658270.9804  119070089.25748  92781857.69046
        45.0004         41.0004
  21976749.5314                   21976741.2324  115488627.64348  89991112.05246
        45.0004         41.0004
  22675109.2434                   22675100.8314  119158529.82647  92850776.86546
        44.0004         40.0004
  20430290.7054                   20430282.1484  107361961.28749  83658677.93248
        49.0004         47.0004
  20277158.8334                   20277150.2154  106557243.87049  83031597.13948
        50.0004         47.0004
  23224566.9804                   23224559.4754  122045930.66146  95100648.47345
        40.0004         38.0004
  25541285.0474                                  134220347.77144
        34.0004
  20277159.1534                   20277150.6604  106557205.86546  83031527.21244
        41.0004         34.0004
  22611600.0724                   22611592.1474  118824792.94548  92590719.11146
        45.0004         41.0004
 03  8  4  2  5 30.0000000  0  9G28G31G13G27G 8G 3G 2G22G10
  22640762.1744                   22640753.2594  118978033.19848  92710125.73946
        45.0004         41.0004
  21972218.3584                   21972210.0584  115464816.23348  89972557.71446
        45.0004         41.0004
  22694053.7934                   22694045.3974  119258083.92247  92928351.44846
        44.0004         40.0004
  20432127.7194                   20432119.1494  107371614.79749  83666200.14448
        49.0004         47.0004
  20269695.0274                   20269686.4104  106518021.36749  83001034.16848
        49.0004         47.0004
  23232168.6944                   23232161.2024  122085878.00046  95131776.27445
        40.0004         38.0004
  25558770.8964                                  134312237.28144
        33.0004
  20269695.4444                   20269686.9624  106517983.37246  83000964.11744
        41.0004         34.0004
  22614536.0244                   22614528.1114  118840221.53647  92602741.39346
        44.0004         40.0004
 03  8  4  2  6  0.0000000  0  9G28G31G13G27G 8G 3G 2G22G10
  22623381.4324                   22623372.5054  118886696.90548  92638954.64446
        45.0004         41.0004
  21967893.7864                   21967885.4584  115442090.57848  89954849.45046
        45.0004         41.0004
  22713135.6494                   22713127.2414  119358359.62547  93006488.34746
        43.0004         40.0004
  20434113.5334                   20434104.9634  107382050.32449  83674331.72248
        49.0004         47.0004
  20262388.2364                   20262379.6054  106479623.92149  82971114.08848
        50.0004         47.0004
  23239962.8894                   23239955.3674  122126836.83046  95163692.26845
        41.0004         37.0004
  25576348.8164                                  134404610.68344
        33.0004
  20262388.6284                   20262380.1354  106479585.92046  82971044.07144
        41.0004         35.0004
  22617673.5984                   22617665.6704  118856709.53847  92615589.16946
        44.0004         41.0004
 03  8  4  2  6 30.0000000  0  9G28G31G13G27G 8G 3G 2G22G10
  22605961.9874                   22605953.0484  118795157.35748  92567625.19146
        45.0004         41.0004
  21963600.1604                   21963591.8184  115419527.42048  89937267.77546
        45.0004         41.0004
  22732178.5084                   22732170.1144  119458430.27747  93084465.41446
        42.0004         40.0004
  20436072.1614                   20436063.5914  107392343.04748  83682352.03748
        48.0004         47.0004
  20255062.5734                   20255053.9434  106441127.36749  82941116.79048
        50.0004         47.0004
  23247773.4374                   23247765.9034  122167881.22846  95195674.85745
        41.0004         38.0004
  25593842.9094                                  134496542.01544
        34.0004
  20255062.9774                   20255054.4534  106441089.36546  82941046.74944
        41.0004         34.0004
  22620836.6504                   22620828.7104  118873331.36047  92628541.22846
        43.0004         41.0004
 03  8  4  2  7  0.0000000  0  9G28G31G13G27G 8G 3G 2G22G10
  22588680.6314                   22588671.6664  118704343.40647  92496861.13546
        44.0004         41.0004
  21959514.1344                   21959505.7804  115398055.27147  89920536.25546
        44.0004         41.0004
  22751358.4724                   22751350.1074  119559221.60347  93163004.09146
        43.0004         39.0004
  20438180.2274                   20438171.6424  107403420.94149  83690984.15348
        49.0004         47.0004
  20247894.7334                   20247886.0774  106403460.11349  82911765.69848
        49.0004         47.0004
  23255776.4064                   23255768.8714  122209937.17446  95228445.73545
        41.0004         38.0004
  25611428.8024                                  134588957.31844
        34.0004
  20247895.0924                   20247886.5414  106403422.12546  82911695.72744
        41.0004         35.0004
  22624201.4504                   22624193.5104  118891013.50647  92642319.52446
        44.0004         40.0004
 03  8  4  2  7 30.0000000  0  9G28G31G13G27G 8G 3G 2G22G10
  22571391.6474                   22571382.6844  118613489.36748  92426065.82946
        45.0004         41.0004
  21955489.9274                   21955481.5604  115376907.98548  89904057.87446
        45.0004         41.0004
  22770529.2614                   22770520.8814  119659964.40647  93241504.89546
        43.0004         40.0004
  20440291.6704                   20440283.1004  107414516.71549  83699630.22048
        49.0004         47.0004
  20240738.8244                   20240730.1814  106365855.61849  82882463.50248
        50.0004         47.0004
  23263825.6664                   23263818.1604  122252236.19946  95261405.97545
        41.0004         38.0004
  25628960.8184                                  134681087.93544
        33.0004
  20240739.2534                   20240730.6864  106365817.62346  82882393.44444
        41.0004         35.0004
  22627621.8694                   22627613.9434  118908987.99147  92656325.62246
        44.0004         40.0004
 03  8  4  2  8  0.0000000  0  9G28G31G13G27G 8G 3G 2G22G10
  22554153.2914                   22554144.3164  118522901.32148  92355477.78146
        45.0004         41.0004
  21951585.7064                   21951577.3404  115356391.16448  89888070.74646
        45.0004         41.0004
  22789748.3634                   22789739.9824  119760961.46947  93320203.89946
        43.0004         39.0004
  20442464.5184                   20442455.9494  107425935.10848  83708527.67348
        48.0004         47.0004
  20233652.9584                   20233644.3144  106328619.20249  82853448.12448
        50.0004         47.0004
  23271978.8384                   23271971.3204  122295081.52946  95294791.99145
        41.0004         38.0004
  25646496.3464                                  134773237.25644
        33.0004
  20233653.3404                   20233644.7714  106328581.21246  82853378.12044
        41.0004         35.0004
  22631155.6034                   22631147.6914  118927557.89047  92670795.66646
        44.0004         40.0004
 03  8  4  2  8 30.0000000  0  9G28G31G13G27G 8G 3G 2G22G10
  22537024.2504                   22537015.2594  118432887.79148  92285337.40946
        45.0004         41.0004
  21947860.0464                   21947851.6644  115336812.93847  89872815.03746
        44.0004         41.0004
  22809073.8964                   22809065.5114  119862517.63947  93399338.52246
        43.0004         39.0004
  20444757.2274                   20444748.6704  107437983.37348  83717915.92448
        48.0004         47.0004
  20226695.6834                   20226687.0404  106292058.53849  82824959.31148
        49.0004         47.0004
  23280294.1774                   23280286.6484  122338778.74246  95328841.74645
        41.0004         38.0004
  25664093.3894                                  134865711.34144
        34.0004
  20226696.0274                   20226687.4304  106292020.53346  82824889.34944
        41.0004         34.0004
  22634860.9264                   22634853.0024  118947029.49447  92685968.35846
        44.0004         40.0004
 03  8  4  2  9  0.0000000  0  9G28G31G13G27G 8G 3G 2G22G10
  22519887.9274                   22519878.9364  118342836.05447  92215167.28046
        44.0004         41.0004
  21944196.3024                   21944187.9304  115317560.01948  89857812.78646
        45.0004         41.0004
  22828388.6074                   22828380.2374  119964017.00947  93478428.91146
        43.0004         39.0004
  20447052.8864                   20447044.3304  107450047.20649  83727316.32948
        49.0004         47.0004
  20219750.2814                   20219741.6384  106255560.20349  82796519.05348
        49.0004         47.0004
  23288654.4124                   23288646.9144  122382711.88846  95363075.32445
        40.0004         38.0004
  25681635.5404                                  134957894.15244
        34.0004
  20219750.6634                   20219742.0224  106255522.21546  82796449.06044
        40.0004         35.0004
  22638620.7284                   22638612.8194  118966787.51347  92701364.24446
        44.0004         41.0004
 03  8  4  2  9 30.0000000  0  9G28G29G31G13G27G 8G 3G22G10
  22502802.7694                   22502793.7654  118253053.19648  92145206.67246
        45.0004         41.0004
  23685385.7564                                  124467545.23556
        39.0004
  21940652.8694                   21940644.4724  115298939.09448  89843302.97946
        45.0004         41.0004
  22847750.3264                   22847741.9284  120065763.28047  93557711.67546
        43.0004         39.0004
  20449409.6834                   20449401.1404  107462432.32149  83736967.07148
        49.0004         47.0004
  20212874.9994                   20212866.3574  106219430.41649  82768365.98848
        50.0004         47.0004
  23297117.3624                   23297109.8784  122427185.11546  95397729.80945
        41.0004         38.0004
  20212875.3944                   20212866.7064  106219392.42946  82768295.98244
        41.0004         35.0004
  22642493.0314                   22642485.1224  118987136.41447  92717220.48946
        43.0004         40.0004
